[[{"header":{"parameterUnit":"m.s-1","parameterCategory":1,"la1":31.0,"la2":29.5877,"lo1":-88.7671,"lo2":-86.6584,"dx":0.0162,"dy":0.0185,"nx":115,"ny":88,"refTime":"2023-01-29T06:00:00:Z","depth":0,"parameterNumber":2,"parameterNumberName":"U-component_of_WINDS"},"data":[0.0,0.0,0.0,0.0,0.0,0.0,0.0,0.0,0.0,0.0,0.0,0.0,0.0,0.0,0.0,0.0,0.0,0.0,0.0,0.0,0.0,0.0,0.0,0.0,0.0,0.0,0.0,0.0,0.0,0.0,0.0,0.0,0.0,0.0,0.0,0.0,0.0,0.0,0.0,0.0,0.0,0.0,0.0,0.0,0.0,0.0,0.0,0.0,0.0,0.0,0.0,0.0,0.0,0.0,0.0,0.0,0.0,0.0,0.0,0.0,0.0,0.0,0.0,0.0,0.0,0.0,0.0,0.0,0.0,0.0,0.0,0.0,0.0,0.0,0.0,0.0,0.0,0.0,0.0,0.0,0.0,0.0,0.0,0.0,0.0,0.0,0.0,0.0,0.0,0.0,0.0,0.0,0.0,0.0,0.0,0.0,0.0,0.0,0.0,0.0,0.0,0.0,0.0,0.0,0.0,0.0,0.0,0.0,0.0,0.0,0.0,0.0,0.0,0.0,0.0,0.0,0.0,0.0,0.0,0.0,0.0,0.0,0.0,0.0,0.0,0.0,0.0,0.0,0.0,0.0,0.0,0.0,0.0,0.0,0.0,0.0,0.0,0.0,0.0,0.0,0.0,0.0,0.0,0.0,0.0,0.0,0.0,0.0,0.0,0.0,0.0,0.0,0.0,0.0,0.0,0.0,0.0,0.0,0.0,0.0,0.0,0.0,0.0,0.0,0.0,0.0,0.0,0.0,0.0,0.0,0.0,0.0,0.0,0.0,0.0,0.0,0.0,0.0,0.0,0.0,0.0,0.0,0.0,0.0,0.0,0.0,0.0,0.0,0.0,0.0,0.0,0.0,0.0,0.0,0.0,0.0,0.0,0.0,0.0,0.0,0.0,0.0,0.0,0.0,0.0,0.0,0.0,0.0,0.0,0.0,0.0,0.0,0.0,0.0,0.0,0.0,0.0,0.0,0.0,0.0,0.0,0.0,0.0,0.0,0.0,0.0,0.0,0.0,0.0,0.0,0.0,0.0,0.0,0.0,0.0,0.0,0.0,0.0,0.0,0.0,0.0,0.0,0.0,0.0,0.0,0.0,0.0,0.0,0.0,0.0,0.0,0.0,0.0,0.0,0.0,0.0,0.0,0.0,0.0,0.0,0.0,0.0,0.0,0.0,0.0,0.0,0.0,0.0,0.0,0.0,0.0,0.0,0.0,0.0,0.0,0.0,0.0,0.0,0.0,0.0,0.0,0.0,0.0,0.0,0.0,0.0,0.0,0.0,0.0,0.0,0.0,0.0,0.0,0.0,0.0,0.0,0.0,0.0,0.0,0.0,0.0,0.0,0.0,0.0,0.0,0.0,0.0,0.0,0.0,0.0,0.0,0.0,0.0,0.0,0.0,0.0,0.0,0.0,0.0,0.0,0.0,0.0,0.0,0.0,0.0,0.0,0.0,0.0,0.0,0.0,0.0,0.0,0.0,0.0,0.0,0.0,0.0,0.0,0.0,0.0,0.0,0.0,0.0,0.0,0.0,0.0,0.0,0.0,0.0,0.0,0.0,0.0,0.0,0.0,0.0,0.0,0.0,0.0,0.0,0.0,0.0,0.0,0.0,0.0,0.0,0.0,0.0,0.0,0.0,0.0,0.0,0.0,0.0,0.0,0.0,0.0,0.0,0.0,0.0,0.0,0.0,0.0,0.0,0.0,0.0,0.0,0.0,0.0,0.0,0.0,0.0,0.0,0.0,0.0,0.0,0.0,0.0,0.0,0.0,0.0,0.0,0.0,0.0,0.0,0.0,0.0,0.0,0.0,0.0,0.0,0.0,0.0,0.0,0.0,0.0,0.0,0.0,0.0,0.0,0.0,0.0,0.0,0.0,0.0,0.0,0.0,0.0,0.0,0.0,0.0,0.0,0.0,0.0,0.0,0.0,0.0,0.0,0.0,0.0,0.0,0.0,0.0,0.0,0.0,0.0,0.0,0.0,0.0,0.0,0.0,0.0,0.0,0.0,0.0,0.0,0.0,0.0,0.0,0.0,0.0,0.0,0.0,0.0,0.0,0.0,0.0,0.0,0.0,0.0,0.0,0.0,0.0,0.0,0.0,0.0,0.0,0.0,0.0,0.0,0.0,0.0,0.0,0.0,0.0,0.0,0.0,0.0,0.0,0.0,0.0,0.0,0.0,0.0,0.0,0.0,0.0,0.0,0.0,0.0,0.0,0.0,0.0,0.0,0.0,0.0,0.0,0.0,0.0,0.0,0.0,0.0,0.0,0.0,0.0,0.0,0.0,0.0,0.0,0.0,0.0,0.0,0.0,0.0,0.0,0.0,0.0,0.0,0.0,0.0,0.0,0.0,0.0,0.0,0.0,0.0,0.0,0.0,0.0,0.0,0.0,0.0,0.0,0.0,0.0,0.0,0.0,0.0,0.0,0.0,0.0,0.0,0.0,0.0,0.0,0.0,0.0,0.0,0.0,0.0,0.0,0.0,0.0,0.0,0.0,0.0,0.0,0.0,0.0,0.0,0.0,0.0,0.0,0.0,0.0,0.0,0.0,0.0,0.0,0.0,0.0,0.0,0.0,0.0,0.0,0.0,0.0,0.0,0.0,0.0,0.0,0.0,0.0,0.0,0.0,0.0,0.0,0.0,0.0,0.0,0.0,0.0,0.0,0.0,0.0,0.0,0.0,0.0,0.0,0.0,0.0,0.0,0.0,0.0,0.0,0.0,0.0,0.0,0.0,0.0,0.0,0.0,0.0,0.0,0.0,0.0,0.0,0.0,0.0,0.0,0.0,0.0,0.0,0.0,0.0,0.0,0.0,0.0,0.0,0.0,0.0,0.0,0.0,0.0,0.0,0.0,0.0,0.0,0.0,0.0,0.0,0.0,0.0,0.0,0.0,0.0,0.0,0.0,0.0,0.0,0.0,0.0,0.0,0.0,0.0,0.0,0.0,0.0,0.0,0.0,0.0,0.0,0.0,0.0,0.0,0.0,0.0,0.0,0.0,0.0,0.0,0.0,0.0,0.0,0.0,0.0,0.0,0.0,0.0,0.0,0.0,0.0,0.0,0.0,0.0,0.0,0.0,0.0,0.0,0.0,0.0,0.0,0.0,0.0,0.0,0.0,0.0,0.0,0.0,0.0,0.0,0.0,0.0,0.0,0.0,0.0,0.0,0.0,0.0,0.0,0.0,0.0,0.0,0.0,0.0,0.0,0.0,0.0,0.0,0.0,0.0,0.0,0.0,0.0,0.0,0.0,0.0,0.0,0.0,0.0,0.0,0.0,0.0,0.0,0.0,0.0,0.0,0.0,0.0,0.0,0.0,0.0,0.0,0.0,0.0,0.0,0.0,0.0,0.0,0.0,0.0,0.0,0.0,0.0,0.0,0.0,0.0,0.0,0.0,0.0,0.0,0.0,0.0,0.0,0.0,0.0,0.0,0.0,0.0,0.0,0.0,0.0,0.0,0.0,0.0,0.0,0.0,0.0,0.0,0.0,0.0,0.0,0.0,0.0,0.0,0.0,0.0,0.0,0.0,0.0,0.0,0.0,0.0,0.0,0.0,0.0,0.0,0.0,0.0,0.0,0.0,0.0,0.0,0.0,0.0,0.0,0.0,0.0,0.0,0.0,0.0,0.0,0.0,0.0,0.0,0.0,0.0,0.0,0.0,0.0,0.0,0.0,0.0,0.0,0.0,0.0,0.0,0.0,0.0,0.0,0.0,0.0,0.0,0.0,0.0,0.0,0.0,0.0,0.0,0.0,0.0,0.0,0.0,0.0,0.0,0.0,0.0,0.0,0.0,0.0,0.0,0.0,0.0,0.0,0.0,0.0,0.0,0.0,0.0,0.0,0.0,0.0,0.0,0.0,0.0,0.0,0.0,0.0,0.0,0.0,0.0,0.0,0.0,0.0,0.0,0.0,0.0,0.0,0.0,0.0,0.0,0.0,0.0,0.0,0.0,0.0,0.0,0.0,0.0,0.0,0.0,0.0,0.0,0.0,0.0,0.0,0.0,0.0,0.0,0.0,0.0,0.0,0.0,0.0,0.0,0.0,0.0,0.0,0.0,0.0,0.0,0.0,0.0,0.0,0.0,0.0,0.0,0.0,0.0,0.0,0.0,0.0,0.0,0.0,0.0,0.0,0.0,0.0,0.0,0.0,0.0,0.0,0.0,0.0,0.0,0.0,0.0,0.0,0.0,0.0,0.0,0.0,0.0,0.0,0.0,0.0,0.0,0.0,0.0,0.0,0.0,0.0,0.0,0.0,0.0,0.0,0.0,-3.3358,0.0,0.0,0.0,0.0,0.0,0.0,0.0,0.0,0.0,0.0,0.0,0.0,0.0,0.0,0.0,0.0,0.0,0.0,0.0,0.0,0.0,0.0,0.0,0.0,0.0,0.0,0.0,0.0,0.0,0.0,0.0,0.0,0.0,0.0,0.0,0.0,0.0,0.0,0.0,0.0,0.0,0.0,0.0,0.0,0.0,0.0,0.0,0.0,0.0,0.0,0.0,0.0,0.0,0.0,0.0,0.0,0.0,0.0,0.0,0.0,0.0,0.0,0.0,0.0,0.0,0.0,0.0,0.0,0.0,0.0,0.0,0.0,0.0,0.0,0.0,0.0,0.0,0.0,0.0,0.0,0.0,0.0,0.0,0.0,0.0,0.0,0.0,0.0,0.0,0.0,0.0,0.0,0.0,0.0,0.0,0.0,0.0,0.0,0.0,0.0,0.0,0.0,0.0,0.0,0.0,0.0,0.0,0.0,0.0,0.0,-3.3887,-3.393,-3.5064,-3.5104,-3.3866,0.0,0.0,0.0,0.0,0.0,0.0,0.0,0.0,0.0,0.0,0.0,0.0,0.0,0.0,0.0,0.0,0.0,0.0,0.0,0.0,0.0,0.0,0.0,0.0,0.0,0.0,0.0,0.0,0.0,0.0,0.0,0.0,0.0,0.0,0.0,0.0,0.0,0.0,0.0,0.0,0.0,0.0,0.0,0.0,0.0,0.0,0.0,0.0,0.0,0.0,0.0,0.0,0.0,0.0,0.0,0.0,0.0,0.0,0.0,0.0,0.0,0.0,0.0,0.0,0.0,0.0,0.0,0.0,0.0,0.0,0.0,0.0,0.0,0.0,0.0,0.0,0.0,0.0,0.0,0.0,0.0,0.0,0.0,0.0,0.0,0.0,0.0,0.0,0.0,0.0,0.0,0.0,0.0,0.0,0.0,0.0,0.0,0.0,0.0,0.0,0.0,0.0,0.0,0.0,0.0,0.0,0.0,0.0,0.0,0.0,0.0,0.0,-3.5393,-3.5182,-3.4181,0.0,0.0,0.0,0.0,0.0,0.0,0.0,0.0,0.0,0.0,0.0,0.0,0.0,0.0,0.0,0.0,0.0,0.0,0.0,0.0,0.0,0.0,0.0,0.0,0.0,0.0,0.0,0.0,0.0,0.0,0.0,0.0,0.0,0.0,0.0,0.0,0.0,0.0,0.0,0.0,0.0,0.0,0.0,0.0,0.0,0.0,0.0,0.0,0.0,0.0,0.0,0.0,0.0,0.0,0.0,0.0,0.0,0.0,0.0,0.0,0.0,0.0,0.0,0.0,0.0,0.0,0.0,0.0,0.0,0.0,0.0,0.0,0.0,0.0,0.0,0.0,0.0,0.0,0.0,0.0,0.0,0.0,0.0,0.0,0.0,0.0,0.0,0.0,0.0,0.0,0.0,0.0,0.0,0.0,0.0,0.0,0.0,0.0,0.0,0.0,0.0,0.0,0.0,0.0,0.0,0.0,0.0,0.0,0.0,0.0,-3.4878,-3.5655,-3.5664,0.0,-3.3378,0.0,0.0,0.0,0.0,0.0,0.0,0.0,0.0,0.0,0.0,0.0,0.0,0.0,0.0,0.0,0.0,0.0,0.0,0.0,0.0,0.0,0.0,0.0,0.0,0.0,0.0,0.0,0.0,0.0,0.0,0.0,0.0,0.0,0.0,0.0,0.0,0.0,0.0,0.0,0.0,0.0,0.0,0.0,0.0,0.0,0.0,0.0,0.0,0.0,0.0,0.0,0.0,0.0,0.0,0.0,0.0,0.0,0.0,0.0,0.0,0.0,0.0,0.0,0.0,0.0,0.0,0.0,0.0,0.0,0.0,0.0,0.0,0.0,0.0,0.0,0.0,0.0,0.0,0.0,0.0,0.0,0.0,0.0,0.0,0.0,0.0,0.0,0.0,0.0,0.0,0.0,0.0,0.0,0.0,0.0,0.0,0.0,0.0,0.0,0.0,0.0,0.0,0.0,0.0,0.0,0.0,0.0,0.0,0.0,0.0,-3.468,-3.5023,-3.4013,-3.3117,0.0,0.0,0.0,0.0,0.0,0.0,0.0,0.0,0.0,0.0,0.0,0.0,0.0,0.0,0.0,0.0,0.0,0.0,0.0,0.0,0.0,0.0,0.0,0.0,0.0,0.0,0.0,0.0,0.0,0.0,0.0,0.0,0.0,0.0,0.0,0.0,0.0,0.0,0.0,0.0,0.0,0.0,0.0,0.0,0.0,0.0,0.0,0.0,0.0,0.0,0.0,0.0,0.0,0.0,0.0,0.0,0.0,0.0,0.0,0.0,0.0,0.0,0.0,0.0,0.0,0.0,0.0,0.0,0.0,0.0,0.0,0.0,0.0,0.0,0.0,0.0,0.0,0.0,0.0,0.0,0.0,0.0,0.0,0.0,0.0,0.0,0.0,0.0,0.0,0.0,0.0,0.0,0.0,0.0,0.0,0.0,0.0,0.0,0.0,0.0,0.0,0.0,0.0,0.0,0.0,0.0,0.0,0.0,0.0,0.0,-3.4652,-3.4163,-3.4083,-3.2701,-3.1921,-3.1889,0.0,0.0,0.0,0.0,0.0,0.0,0.0,0.0,0.0,0.0,0.0,0.0,0.0,0.0,0.0,0.0,0.0,0.0,0.0,0.0,0.0,0.0,0.0,0.0,0.0,0.0,0.0,0.0,0.0,0.0,0.0,0.0,0.0,0.0,0.0,0.0,0.0,0.0,0.0,0.0,0.0,0.0,0.0,0.0,0.0,0.0,0.0,0.0,0.0,0.0,0.0,0.0,0.0,0.0,0.0,0.0,0.0,0.0,0.0,0.0,0.0,0.0,0.0,0.0,0.0,0.0,0.0,0.0,0.0,0.0,0.0,0.0,0.0,0.0,0.0,0.0,0.0,0.0,0.0,0.0,0.0,0.0,0.0,0.0,0.0,0.0,0.0,0.0,0.0,0.0,0.0,0.0,0.0,0.0,0.0,0.0,0.0,0.0,0.0,0.0,0.0,0.0,0.0,0.0,0.0,0.0,0.0,0.0,-3.462,-3.379,-3.3299,-3.3204,-3.2447,-3.1969,0.0,0.0,0.0,0.0,0.0,0.0,0.0,0.0,0.0,0.0,0.0,0.0,0.0,0.0,0.0,0.0,0.0,0.0,0.0,0.0,0.0,0.0,0.0,0.0,0.0,0.0,0.0,0.0,0.0,0.0,0.0,0.0,0.0,0.0,0.0,0.0,0.0,0.0,0.0,0.0,0.0,0.0,0.0,0.0,0.0,0.0,0.0,0.0,0.0,0.0,0.0,0.0,0.0,0.0,0.0,0.0,0.0,0.0,0.0,0.0,0.0,0.0,0.0,0.0,0.0,0.0,0.0,0.0,0.0,0.0,0.0,0.0,0.0,0.0,0.0,0.0,0.0,0.0,0.0,0.0,0.0,0.0,0.0,0.0,0.0,0.0,0.0,0.0,0.0,0.0,0.0,0.0,0.0,0.0,0.0,0.0,0.0,0.0,0.0,0.0,0.0,0.0,0.0,0.0,0.0,0.0,0.0,0.0,0.0,-3.3754,-3.2921,-3.2197,-3.1619,-3.1312,-3.1149,0.0,0.0,0.0,0.0,0.0,0.0,0.0,0.0,0.0,0.0,0.0,0.0,0.0,0.0,0.0,0.0,0.0,0.0,0.0,0.0,0.0,0.0,0.0,0.0,0.0,0.0,0.0,0.0,0.0,0.0,0.0,0.0,0.0,0.0,0.0,0.0,0.0,0.0,0.0,0.0,0.0,0.0,0.0,0.0,0.0,0.0,0.0,0.0,0.0,0.0,0.0,0.0,0.0,0.0,0.0,0.0,0.0,0.0,0.0,0.0,0.0,0.0,0.0,0.0,0.0,0.0,0.0,0.0,0.0,0.0,0.0,0.0,0.0,0.0,0.0,0.0,0.0,0.0,0.0,0.0,0.0,0.0,0.0,0.0,0.0,0.0,0.0,0.0,0.0,0.0,0.0,0.0,0.0,0.0,0.0,0.0,0.0,0.0,0.0,0.0,0.0,0.0,0.0,0.0,0.0,0.0,0.0,0.0,0.0,-3.2541,0.0,-3.1326,-3.0763,-3.0698,-3.0704,0.0,0.0,0.0,0.0,0.0,0.0,0.0,0.0,0.0,0.0,0.0,0.0,0.0,0.0,0.0,0.0,0.0,0.0,0.0,0.0,0.0,0.0,0.0,0.0,0.0,0.0,0.0,0.0,0.0,0.0,0.0,0.0,0.0,0.0,0.0,0.0,0.0,0.0,0.0,0.0,0.0,0.0,0.0,0.0,0.0,0.0,0.0,0.0,0.0,0.0,0.0,0.0,0.0,0.0,0.0,0.0,0.0,0.0,0.0,0.0,0.0,0.0,0.0,0.0,0.0,0.0,0.0,0.0,0.0,0.0,0.0,0.0,0.0,0.0,0.0,0.0,0.0,0.0,0.0,0.0,0.0,0.0,0.0,0.0,0.0,0.0,0.0,0.0,0.0,0.0,0.0,0.0,0.0,0.0,0.0,0.0,0.0,0.0,0.0,0.0,0.0,0.0,0.0,0.0,0.0,0.0,0.0,0.0,-3.2596,-3.0938,-3.0857,-3.0855,-3.0818,-3.0753,-3.0704,0.0,0.0,0.0,0.0,0.0,0.0,0.0,0.0,0.0,0.0,0.0,0.0,0.0,0.0,0.0,0.0,0.0,0.0,0.0,0.0,0.0,0.0,0.0,0.0,0.0,0.0,0.0,0.0,0.0,0.0,0.0,0.0,0.0,0.0,0.0,0.0,0.0,0.0,0.0,0.0,0.0,0.0,0.0,0.0,0.0,0.0,0.0,0.0,0.0,0.0,0.0,0.0,0.0,0.0,0.0,0.0,0.0,0.0,0.0,0.0,0.0,0.0,0.0,0.0,0.0,0.0,0.0,0.0,0.0,0.0,0.0,0.0,0.0,0.0,0.0,0.0,0.0,0.0,0.0,0.0,0.0,0.0,0.0,0.0,0.0,0.0,0.0,0.0,0.0,0.0,0.0,0.0,0.0,0.0,0.0,0.0,0.0,0.0,0.0,0.0,0.0,0.0,0.0,0.0,0.0,0.0,0.0,0.0,0.0,-3.1722,-3.1093,-3.1093,-3.1641,-3.105,-3.0704,0.0,0.0,0.0,0.0,0.0,0.0,0.0,0.0,0.0,0.0,0.0,0.0,0.0,0.0,0.0,0.0,0.0,0.0,0.0,0.0,0.0,0.0,0.0,0.0,0.0,0.0,0.0,0.0,0.0,0.0,0.0,0.0,0.0,0.0,0.0,0.0,0.0,0.0,0.0,0.0,0.0,0.0,0.0,0.0,0.0,0.0,0.0,0.0,0.0,0.0,0.0,0.0,0.0,0.0,0.0,0.0,0.0,0.0,0.0,0.0,0.0,0.0,0.0,0.0,0.0,0.0,0.0,0.0,0.0,0.0,0.0,0.0,0.0,0.0,0.0,0.0,0.0,0.0,0.0,0.0,0.0,0.0,0.0,0.0,0.0,0.0,0.0,0.0,0.0,0.0,0.0,0.0,0.0,0.0,0.0,0.0,0.0,0.0,0.0,0.0,0.0,0.0,0.0,0.0,0.0,0.0,0.0,0.0,0.0,-3.3008,-3.2206,-3.2031,-3.2579,-3.1975,-3.149,-3.1218,0.0,0.0,0.0,0.0,0.0,0.0,0.0,0.0,0.0,0.0,0.0,0.0,0.0,0.0,0.0,0.0,0.0,0.0,0.0,0.0,0.0,0.0,0.0,0.0,0.0,0.0,0.0,0.0,0.0,0.0,0.0,0.0,0.0,0.0,0.0,0.0,0.0,0.0,0.0,0.0,0.0,0.0,0.0,0.0,0.0,0.0,0.0,0.0,0.0,0.0,0.0,0.0,0.0,0.0,0.0,0.0,0.0,0.0,0.0,0.0,0.0,0.0,0.0,0.0,0.0,0.0,0.0,0.0,0.0,0.0,0.0,0.0,0.0,0.0,0.0,0.0,0.0,0.0,0.0,0.0,0.0,0.0,0.0,0.0,0.0,0.0,0.0,0.0,0.0,0.0,0.0,0.0,0.0,0.0,0.0,0.0,0.0,0.0,0.0,0.0,0.0,0.0,0.0,0.0,0.0,0.0,0.0,0.0,-3.4661,-3.3924,-3.3495,-3.3475,-3.3274,-3.2846,0.0,0.0,0.0,0.0,0.0,0.0,0.0,0.0,0.0,0.0,0.0,0.0,0.0,0.0,0.0,0.0,0.0,0.0,0.0,0.0,0.0,0.0,0.0,0.0,0.0,0.0,0.0,0.0,0.0,0.0,0.0,0.0,0.0,0.0,0.0,0.0,0.0,0.0,0.0,0.0,0.0,0.0,0.0,0.0,0.0,0.0,0.0,0.0,0.0,0.0,0.0,0.0,0.0,0.0,0.0,0.0,0.0,0.0,0.0,0.0,0.0,0.0,0.0,0.0,0.0,0.0,0.0,0.0,0.0,0.0,0.0,0.0,0.0,0.0,0.0,0.0,0.0,0.0,0.0,0.0,0.0,0.0,0.0,0.0,0.0,0.0,0.0,0.0,0.0,0.0,0.0,0.0,0.0,0.0,0.0,0.0,0.0,0.0,0.0,0.0,0.0,0.0,0.0,0.0,0.0,0.0,0.0,0.0,0.0,-3.5538,-3.5343,-3.4934,-3.4311,-3.3589,-3.3099,0.0,0.0,0.0,0.0,0.0,0.0,0.0,0.0,0.0,0.0,0.0,0.0,0.0,0.0,0.0,0.0,0.0,0.0,0.0,0.0,0.0,0.0,0.0,0.0,0.0,0.0,0.0,0.0,0.0,0.0,0.0,0.0,0.0,0.0,0.0,0.0,0.0,0.0,0.0,0.0,0.0,0.0,0.0,0.0,0.0,0.0,0.0,0.0,0.0,0.0,0.0,0.0,0.0,0.0,0.0,0.0,0.0,0.0,0.0,0.0,0.0,0.0,0.0,0.0,0.0,0.0,0.0,0.0,0.0,0.0,0.0,0.0,0.0,0.0,0.0,0.0,0.0,0.0,0.0,0.0,0.0,0.0,0.0,0.0,0.0,0.0,0.0,0.0,0.0,0.0,0.0,0.0,0.0,0.0,0.0,0.0,0.0,0.0,0.0,0.0,0.0,0.0,0.0,0.0,0.0,0.0,0.0,0.0,-3.5889,-3.5889,-3.5889,-3.5658,-3.5168,-3.4617,-3.4155,0.0,0.0,0.0,0.0,0.0,0.0,0.0,0.0,0.0,0.0,0.0,0.0,0.0,0.0,0.0,0.0,0.0,0.0,0.0,0.0,0.0,0.0,0.0,0.0,0.0,0.0,0.0,0.0,0.0,0.0,0.0,0.0,0.0,0.0,0.0,0.0,0.0,0.0,0.0,0.0,0.0,0.0,0.0,0.0,0.0,0.0,0.0,0.0,0.0,0.0,0.0,0.0,0.0,0.0,0.0,0.0,0.0,0.0,0.0,0.0,0.0,0.0,0.0,0.0,0.0,0.0,0.0,0.0,0.0,0.0,0.0,0.0,0.0,0.0,0.0,0.0,0.0,0.0,0.0,0.0,0.0,0.0,0.0,0.0,0.0,0.0,0.0,0.0,0.0,0.0,0.0,0.0,0.0,0.0,0.0,0.0,0.0,0.0,0.0,0.0,0.0,0.0,0.0,0.0,0.0,0.0,0.0,0.0,-3.5889,-3.5889,-3.5889,-3.5889,-3.5889,-3.5882,-3.5532,0.0,0.0,0.0,0.0,0.0,0.0,0.0,0.0,0.0,0.0,0.0,0.0,0.0,0.0,0.0,0.0,0.0,0.0,0.0,0.0,0.0,0.0,0.0,0.0,0.0,0.0,0.0,0.0,0.0,0.0,0.0,0.0,0.0,0.0,0.0,0.0,0.0,0.0,0.0,0.0,0.0,0.0,0.0,0.0,0.0,0.0,0.0,0.0,0.0,0.0,0.0,0.0,0.0,0.0,0.0,0.0,0.0,0.0,0.0,0.0,0.0,0.0,0.0,0.0,0.0,0.0,0.0,0.0,0.0,0.0,0.0,0.0,0.0,0.0,0.0,0.0,0.0,0.0,0.0,0.0,0.0,0.0,0.0,0.0,0.0,0.0,0.0,0.0,0.0,0.0,0.0,0.0,0.0,0.0,0.0,0.0,0.0,0.0,0.0,0.0,0.0,0.0,0.0,0.0,0.0,0.0,0.0,0.0,-3.5889,-3.5889,-3.5889,-3.5889,-3.5889,-3.5898,-3.5824,0.0,0.0,0.0,0.0,0.0,0.0,0.0,0.0,0.0,0.0,0.0,0.0,0.0,0.0,0.0,0.0,0.0,0.0,0.0,0.0,0.0,0.0,0.0,0.0,0.0,0.0,0.0,0.0,0.0,0.0,0.0,0.0,0.0,0.0,0.0,0.0,0.0,0.0,0.0,0.0,0.0,0.0,0.0,0.0,0.0,0.0,0.0,0.0,-3.4643,0.0,0.0,0.0,0.0,0.0,0.0,0.0,0.0,0.0,0.0,0.0,0.0,0.0,0.0,0.0,0.0,0.0,0.0,0.0,0.0,0.0,0.0,0.0,0.0,0.0,0.0,0.0,0.0,0.0,0.0,0.0,0.0,0.0,0.0,0.0,0.0,0.0,0.0,0.0,0.0,0.0,0.0,0.0,0.0,0.0,0.0,0.0,0.0,0.0,0.0,0.0,0.0,0.0,0.0,0.0,0.0,0.0,0.0,0.0,-3.5889,-3.5889,-3.5889,-3.5889,-3.5889,-3.5894,-3.5898,0.0,0.0,0.0,0.0,0.0,0.0,0.0,0.0,0.0,0.0,0.0,0.0,0.0,0.0,0.0,0.0,0.0,0.0,0.0,0.0,0.0,0.0,0.0,0.0,0.0,0.0,0.0,0.0,0.0,0.0,0.0,0.0,0.0,0.0,0.0,0.0,0.0,0.0,0.0,0.0,0.0,0.0,0.0,0.0,0.0,0.0,0.0,0.0,0.0,0.0,0.0,0.0,0.0,0.0,0.0,0.0,0.0,0.0,0.0,0.0,0.0,0.0,0.0,0.0,0.0,0.0,0.0,0.0,0.0,0.0,0.0,0.0,0.0,0.0,0.0,0.0,0.0,0.0,0.0,0.0,0.0,0.0,0.0,0.0,0.0,0.0,0.0,0.0,0.0,0.0,0.0,0.0,0.0,0.0,0.0,0.0,0.0,0.0,0.0,0.0,0.0,0.0,0.0,0.0,0.0,0.0,0.0,-3.5889,-3.5889,-3.5889,-3.5889,-3.5889,-3.5889,-3.5889,-3.5894,-3.5882,0.0,0.0,0.0,0.0,0.0,0.0,0.0,0.0,0.0,0.0,0.0,0.0,0.0,0.0,0.0,0.0,0.0,0.0,0.0,0.0,0.0,0.0,0.0,0.0,0.0,0.0,0.0,0.0,0.0,0.0,0.0,0.0,0.0,0.0,0.0,0.0,0.0,0.0,-3.1553,-3.2927,0.0,0.0,0.0,0.0,0.0,0.0,0.0,0.0,-3.6396,0.0,0.0,0.0,0.0,0.0,0.0,0.0,0.0,0.0,0.0,0.0,0.0,0.0,0.0,0.0,0.0,0.0,0.0,0.0,0.0,0.0,0.0,0.0,0.0,0.0,0.0,0.0,0.0,0.0,0.0,0.0,0.0,0.0,0.0,0.0,0.0,0.0,0.0,0.0,0.0,0.0,0.0,0.0,0.0,0.0,0.0,0.0,0.0,0.0,0.0,0.0,0.0,0.0,0.0,0.0,0.0,-3.5889,-3.5889,-3.5889,-3.5889,-3.5889,-3.5889,-3.5889,-3.5889,-3.5894,-3.5882,0.0,0.0,0.0,0.0,0.0,0.0,0.0,0.0,0.0,0.0,0.0,0.0,0.0,0.0,0.0,0.0,0.0,0.0,0.0,0.0,0.0,0.0,0.0,0.0,0.0,0.0,0.0,0.0,0.0,0.0,0.0,0.0,0.0,0.0,0.0,0.0,0.0,0.0,0.0,-3.4149,-3.4765,0.0,0.0,0.0,0.0,0.0,0.0,0.0,0.0,-3.7163,0.0,0.0,0.0,0.0,0.0,0.0,0.0,0.0,0.0,0.0,0.0,0.0,0.0,0.0,0.0,0.0,0.0,0.0,0.0,0.0,0.0,0.0,0.0,0.0,0.0,0.0,0.0,0.0,0.0,0.0,0.0,0.0,0.0,0.0,0.0,0.0,0.0,0.0,0.0,0.0,0.0,0.0,0.0,0.0,0.0,0.0,0.0,0.0,0.0,0.0,0.0,0.0,0.0,0.0,0.0,-3.5892,-3.5889,-3.5889,-3.5889,-3.5889,-3.5889,-3.5889,-3.5889,-3.5894,0.0,0.0,0.0,0.0,0.0,0.0,0.0,0.0,0.0,0.0,0.0,0.0,0.0,0.0,0.0,0.0,0.0,0.0,0.0,0.0,0.0,0.0,0.0,0.0,0.0,0.0,0.0,0.0,0.0,0.0,0.0,0.0,0.0,0.0,0.0,0.0,0.0,0.0,0.0,0.0,-3.4727,-3.4964,-3.4917,0.0,0.0,0.0,0.0,0.0,0.0,-3.8083,-3.8216,0.0,0.0,0.0,0.0,0.0,0.0,0.0,0.0,0.0,0.0,0.0,0.0,0.0,0.0,0.0,0.0,0.0,0.0,0.0,0.0,0.0,0.0,0.0,0.0,0.0,0.0,0.0,0.0,0.0,0.0,0.0,0.0,0.0,0.0,0.0,0.0,0.0,0.0,0.0,0.0,0.0,0.0,0.0,0.0,0.0,0.0,0.0,0.0,0.0,0.0,0.0,0.0,0.0,0.0,0.0,-3.5889,-3.5892,-3.5892,-3.5889,-3.5889,-3.5889,-3.5889,-3.5889,-3.59,0.0,0.0,0.0,0.0,0.0,0.0,0.0,0.0,0.0,0.0,0.0,0.0,0.0,0.0,0.0,0.0,0.0,0.0,0.0,0.0,0.0,0.0,0.0,0.0,0.0,0.0,0.0,0.0,0.0,0.0,0.0,0.0,0.0,0.0,0.0,0.0,0.0,0.0,0.0,0.0,0.0,-3.5258,-3.5202,-3.5951,0.0,0.0,0.0,0.0,-3.8803,-3.8936,0.0,0.0,0.0,0.0,0.0,0.0,0.0,0.0,0.0,0.0,0.0,0.0,0.0,0.0,0.0,0.0,0.0,0.0,0.0,0.0,0.0,0.0,0.0,0.0,0.0,0.0,0.0,0.0,0.0,0.0,0.0,0.0,0.0,0.0,0.0,0.0,0.0,0.0,0.0,0.0,0.0,0.0,0.0,0.0,0.0,0.0,0.0,0.0,0.0,0.0,0.0,0.0,0.0,0.0,0.0,0.0,-3.5892,-3.5883,-3.5883,-3.5889,-3.5889,-3.5889,-3.5889,-3.5889,-3.5889,0.0,0.0,0.0,0.0,0.0,0.0,0.0,0.0,0.0,0.0,0.0,0.0,0.0,0.0,0.0,0.0,0.0,0.0,0.0,0.0,0.0,0.0,0.0,0.0,0.0,0.0,0.0,0.0,0.0,0.0,0.0,0.0,0.0,0.0,0.0,0.0,0.0,0.0,0.0,0.0,0.0,-3.6214,-3.615,-3.6844,-3.7622,0.0,0.0,-3.8841,-3.9635,-3.9748,0.0,0.0,0.0,0.0,0.0,0.0,0.0,0.0,0.0,0.0,0.0,0.0,0.0,0.0,0.0,0.0,0.0,0.0,0.0,0.0,0.0,0.0,0.0,0.0,0.0,0.0,0.0,0.0,0.0,0.0,0.0,0.0,0.0,0.0,0.0,0.0,0.0,0.0,0.0,0.0,0.0,0.0,0.0,0.0,0.0,0.0,0.0,0.0,0.0,0.0,0.0,0.0,0.0,0.0,0.0,-3.5929,-3.5892,-3.5883,-3.5885,-3.5889,-3.5889,-3.5889,-3.5889,-3.5889,-3.5883,0.0,0.0,0.0,0.0,0.0,0.0,0.0,0.0,0.0,0.0,0.0,0.0,0.0,0.0,0.0,0.0,0.0,0.0,0.0,0.0,0.0,0.0,0.0,0.0,0.0,0.0,0.0,0.0,0.0,0.0,0.0,0.0,0.0,0.0,0.0,0.0,0.0,0.0,0.0,0.0,0.0,0.0,-3.6312,-3.7424,0.0,0.0,0.0,-3.9494,-3.9843,0.0,0.0,0.0,0.0,0.0,0.0,0.0,0.0,0.0,0.0,0.0,0.0,0.0,0.0,0.0,0.0,0.0,0.0,0.0,0.0,0.0,0.0,0.0,0.0,0.0,0.0,0.0,0.0,0.0,0.0,0.0,0.0,0.0,0.0,0.0,0.0,0.0,0.0,0.0,0.0,0.0,0.0,0.0,0.0,0.0,0.0,0.0,0.0,0.0,0.0,0.0,0.0,0.0,0.0,0.0,0.0,0.0,-3.5889,-3.5883,-3.5883,-3.5889,-3.5889,-3.5889,-3.5889,-3.5889,0.0,0.0,0.0,0.0,0.0,0.0,0.0,0.0,0.0,0.0,0.0,0.0,0.0,0.0,0.0,0.0,0.0,0.0,0.0,0.0,0.0,0.0,0.0,0.0,0.0,0.0,0.0,-3.268,0.0,0.0,0.0,0.0,0.0,0.0,0.0,0.0,0.0,0.0,0.0,0.0,0.0,0.0,-3.69,-3.6682,-3.8071,-3.8918,0.0,0.0,-3.9922,-3.9922,-3.993,-3.9957,0.0,0.0,0.0,0.0,0.0,0.0,0.0,0.0,0.0,0.0,0.0,0.0,0.0,0.0,0.0,0.0,0.0,0.0,0.0,0.0,0.0,0.0,0.0,0.0,0.0,0.0,0.0,0.0,0.0,0.0,0.0,0.0,0.0,0.0,0.0,0.0,0.0,0.0,0.0,0.0,0.0,0.0,0.0,0.0,0.0,0.0,0.0,0.0,0.0,0.0,0.0,0.0,0.0,0.0,0.0,-3.5892,-3.5883,-3.5883,-3.5889,-3.5889,-3.5889,-3.5889,-3.5889,-3.5889,0.0,0.0,0.0,0.0,0.0,0.0,0.0,0.0,0.0,0.0,0.0,0.0,0.0,0.0,0.0,0.0,0.0,0.0,0.0,0.0,0.0,0.0,0.0,0.0,0.0,0.0,0.0,0.0,0.0,0.0,0.0,0.0,0.0,0.0,0.0,0.0,0.0,0.0,0.0,0.0,0.0,-3.8507,-3.7726,-3.9033,-4.0072,0.0,0.0,-3.9986,-3.9986,-3.9962,-4.0184,-4.098,0.0,0.0,0.0,0.0,0.0,0.0,0.0,0.0,0.0,0.0,0.0,0.0,0.0,0.0,0.0,0.0,0.0,0.0,0.0,0.0,0.0,0.0,0.0,0.0,0.0,0.0,0.0,0.0,0.0,0.0,0.0,0.0,0.0,0.0,0.0,0.0,0.0,0.0,0.0,0.0,0.0,0.0,0.0,0.0,0.0,0.0,0.0,0.0,0.0,0.0,0.0,0.0,0.0,-3.5883,-3.5889,-3.5883,-3.5883,-3.5889,-3.5889,-3.5889,-3.5889,-3.5889,-3.5889,0.0,0.0,0.0,0.0,0.0,0.0,0.0,0.0,0.0,0.0,0.0,0.0,0.0,0.0,0.0,0.0,0.0,0.0,0.0,0.0,0.0,0.0,0.0,0.0,0.0,0.0,0.0,0.0,-3.4533,-3.4751,-3.4732,0.0,0.0,0.0,0.0,0.0,0.0,0.0,0.0,0.0,0.0,-3.8908,-3.8507,-3.9452,0.0,0.0,-3.9706,-4.0176,-4.0664,-4.0737,-4.098,-4.1814,-4.1927,0.0,0.0,0.0,0.0,0.0,0.0,0.0,0.0,0.0,0.0,0.0,0.0,0.0,0.0,0.0,0.0,0.0,0.0,0.0,0.0,0.0,0.0,0.0,0.0,0.0,0.0,0.0,0.0,0.0,0.0,0.0,0.0,0.0,0.0,0.0,0.0,0.0,0.0,0.0,0.0,0.0,0.0,0.0,0.0,0.0,0.0,0.0,0.0,0.0,0.0,0.0,0.0,-3.5899,-3.5889,-3.5899,-3.5899,-3.5889,-3.5889,-3.5889,-3.5889,-3.5889,-3.5889,0.0,0.0,0.0,0.0,0.0,0.0,0.0,0.0,0.0,0.0,0.0,0.0,0.0,0.0,0.0,0.0,0.0,0.0,0.0,0.0,0.0,0.0,0.0,0.0,0.0,0.0,0.0,0.0,-3.5182,-3.5182,-3.5182,0.0,0.0,0.0,0.0,0.0,0.0,0.0,0.0,0.0,0.0,-3.9327,-3.8984,-3.9652,-4.0053,-3.9642,-4.0038,-4.0669,-4.148,-4.156,-4.1832,-4.2659,0.0,0.0,0.0,0.0,0.0,0.0,0.0,0.0,0.0,0.0,0.0,0.0,0.0,0.0,0.0,0.0,0.0,0.0,0.0,0.0,0.0,0.0,0.0,0.0,0.0,0.0,0.0,0.0,0.0,0.0,0.0,0.0,0.0,0.0,0.0,0.0,0.0,0.0,0.0,0.0,0.0,0.0,0.0,0.0,0.0,0.0,0.0,0.0,0.0,0.0,0.0,0.0,0.0,-3.5889,-3.5889,-3.5892,-3.5889,-3.5889,-3.5889,-3.5889,-3.5889,-3.5889,-3.5889,-3.5889,0.0,0.0,0.0,0.0,0.0,0.0,0.0,0.0,0.0,0.0,0.0,0.0,0.0,0.0,0.0,0.0,0.0,0.0,0.0,0.0,0.0,0.0,0.0,0.0,0.0,0.0,-3.5182,-3.5182,-3.5182,0.0,0.0,0.0,0.0,0.0,0.0,0.0,0.0,0.0,0.0,-3.9278,-3.9966,-3.9145,-3.971,-4.0482,-4.1177,-4.1286,-4.1554,-4.2351,-4.2428,-4.2666,0.0,0.0,0.0,0.0,0.0,0.0,0.0,0.0,0.0,0.0,0.0,0.0,0.0,0.0,0.0,0.0,0.0,0.0,0.0,0.0,0.0,0.0,0.0,0.0,0.0,0.0,0.0,0.0,-3.9798,0.0,0.0,0.0,0.0,0.0,0.0,0.0,0.0,0.0,0.0,0.0,-3.8121,-3.7262,0.0,0.0,0.0,0.0,0.0,0.0,0.0,0.0,0.0,0.0,0.0,0.0,-3.5889,-3.5889,-3.5889,-3.5889,-3.5889,-3.5889,-3.5889,-3.5889,-3.5889,-3.5889,-3.5889,0.0,0.0,0.0,0.0,0.0,0.0,0.0,0.0,0.0,0.0,0.0,0.0,0.0,0.0,0.0,0.0,0.0,0.0,0.0,0.0,0.0,0.0,0.0,0.0,0.0,-3.5182,0.0,0.0,0.0,0.0,0.0,0.0,0.0,0.0,0.0,0.0,0.0,-3.9369,-3.96,-4.0095,-4.03,-3.9908,-4.0568,-4.115,0.0,0.0,0.0,0.0,0.0,0.0,0.0,0.0,0.0,0.0,0.0,0.0,0.0,0.0,-4.4732,-4.472,-4.461,-4.4416,-4.411,0.0,0.0,0.0,0.0,0.0,0.0,0.0,0.0,0.0,0.0,0.0,0.0,0.0,0.0,0.0,0.0,-4.0713,0.0,0.0,0.0,0.0,0.0,0.0,0.0,0.0,-3.9157,-3.9019,-3.898,-3.8141,-3.7749,0.0,-3.6864,-3.6453,0.0,0.0,0.0,0.0,0.0,0.0,0.0,0.0,-3.5897,-3.5897,-3.5897,-3.5897,-3.5897,-3.5892,-3.5889,-3.5889,-3.5889,-3.5889,-3.5889,-3.5807,-3.5804,0.0,0.0,0.0,0.0,0.0,0.0,0.0,0.0,0.0,0.0,0.0,0.0,0.0,0.0,0.0,0.0,0.0,0.0,0.0,0.0,0.0,0.0,0.0,-3.5278,0.0,0.0,0.0,0.0,0.0,0.0,0.0,0.0,0.0,-3.9282,-3.9586,-3.9978,-4.0509,-4.05,-4.0492,-4.0692,0.0,0.0,0.0,0.0,0.0,0.0,0.0,-4.4383,-4.4915,-4.495,-4.4895,-4.4895,-4.4895,-4.4895,-4.4895,0.0,0.0,-4.4895,-4.4895,-4.4821,-4.4471,-4.4038,-4.3777,-4.3968,-4.3245,-4.271,0.0,0.0,0.0,0.0,0.0,0.0,0.0,0.0,-4.05,-4.0568,0.0,-4.0706,0.0,0.0,0.0,0.0,0.0,0.0,0.0,0.0,-4.021,-3.9858,-3.978,-3.9019,-3.863,-3.8591,-3.775,-3.734,-3.73,-3.6505,0.0,0.0,0.0,0.0,0.0,0.0,-3.589,-3.5909,-3.589,-3.589,-3.589,-3.5897,-3.5889,-3.5889,-3.5889,-3.5889,-3.5889,-3.5889,-3.5889,-3.5889,-3.5889,0.0,0.0,0.0,0.0,0.0,0.0,0.0,0.0,0.0,0.0,0.0,0.0,0.0,0.0,0.0,0.0,0.0,0.0,0.0,0.0,-3.5417,0.0,0.0,0.0,0.0,0.0,0.0,0.0,0.0,0.0,0.0,-3.9511,-4.0061,-4.0564,-4.0733,0.0,0.0,0.0,0.0,-4.2065,-4.3637,-4.3928,-4.4219,-4.4981,-4.5019,-4.4991,-4.501,0.0,0.0,-4.4895,-4.4895,-4.4895,-4.4895,-4.4895,-4.4895,-4.4895,-4.4895,-4.4789,-4.4498,-4.4643,-4.4758,-4.4471,-4.4058,-4.3778,-4.0496,0.0,0.0,0.0,0.0,-4.0636,-4.0655,-4.0699,-4.0718,-4.0735,-4.0766,-4.0766,0.0,0.0,0.0,0.0,0.0,0.0,-4.1109,-4.109,-4.0836,-4.0717,-4.0698,-3.9858,-3.9449,-3.9429,-3.8611,-3.824,-3.822,-3.7962,-3.7209,-3.5999,0.0,0.0,0.0,0.0,-3.5979,-3.596,-3.5914,-3.589,-3.589,-3.5897,-3.5889,-3.5889,-3.5889,-3.5889,-3.5889,-3.5889,-3.5889,-3.5889,-3.5889,0.0,0.0,0.0,0.0,0.0,0.0,0.0,0.0,0.0,0.0,0.0,0.0,0.0,0.0,0.0,0.0,0.0,0.0,0.0,-3.5243,-3.5904,-3.6322,0.0,0.0,0.0,0.0,0.0,0.0,0.0,0.0,0.0,-4.0485,-4.0643,-4.0967,0.0,0.0,-4.1594,-4.2336,-4.2908,-4.3413,-4.3909,0.0,0.0,0.0,-4.5114,-4.5057,-4.5022,-4.4931,-4.4895,-4.4895,-4.4895,-4.4895,-4.4895,-4.4895,-4.4895,-4.4895,-4.4895,-4.487,-4.4789,-4.4846,-4.4852,-4.4764,-4.4471,-4.4227,-4.0496,-4.0496,-4.0496,-4.0566,-4.0713,-4.0713,-4.0746,-4.081,-4.081,-4.0833,-4.0882,-4.0882,-4.0863,-4.0882,-4.0882,0.0,0.0,0.0,-4.1109,-4.1109,-4.1109,-4.1109,-4.107,-4.0561,-4.0307,-4.0268,-3.9468,-3.906,-3.9079,-3.8767,-3.8056,-3.7028,0.0,0.0,-3.6933,-3.6983,-3.6985,-3.698,-3.6954,-3.6928,-3.6921,-3.693,-3.6921,-3.6921,-3.6921,-3.6941,-3.6921,-3.6921,-3.6941,-3.6921,-3.6921,-3.6941,0.0,0.0,0.0,0.0,0.0,0.0,0.0,0.0,0.0,0.0,0.0,-3.5616,-3.5612,0.0,0.0,0.0,-3.579,-3.5946,-3.5996,-3.6818,0.0,0.0,0.0,0.0,0.0,0.0,0.0,-3.9996,-4.0577,-4.0984,-4.098,-4.1217,-4.1518,-4.1854,-4.174,-4.2027,-4.3109,0.0,-4.4121,-4.4475,-4.4953,-4.5286,-4.5235,-4.5181,-4.5114,-4.5022,-4.4974,-4.4919,-4.4895,-4.4895,-4.4895,-4.4895,-4.4895,-4.4895,-4.4895,-4.4895,-4.4895,-4.4895,-4.4895,-4.4895,-4.4895,-4.4623,-4.4416,-4.0496,-4.0496,-4.0496,-4.0593,-4.0712,-4.0712,-4.0743,-4.082,-4.082,-4.0886,-4.099,-4.099,-4.1013,-4.1019,-4.1019,0.0,0.0,-4.1072,-4.1109,-4.1109,-4.1109,-4.1109,-4.1109,-4.1109,-4.1109,-4.107,-4.0288,-3.9897,-3.9858,-3.9157,-3.8762,-3.8713,-3.8713,-3.8631,-3.8506,-3.8512,-3.8512,-3.8504,-3.8502,-3.8512,-3.8497,-3.8505,-3.8519,-3.85,-3.8519,-3.85,-3.85,-3.85,-3.8519,-3.8519,-3.8519,-3.8519,-3.8519,0.0,0.0,0.0,0.0,0.0,0.0,0.0,0.0,0.0,0.0,0.0,0.0,0.0,0.0,0.0,-3.6604,0.0,-3.7254,-3.7946,0.0,0.0,0.0,-3.9518,-3.9522,-4.0354,-4.0893,-4.0917,0.0,0.0,0.0,0.0,-4.2078,-4.2073,-4.1871,-4.2298,-4.3883,-4.4121,-4.4399,-4.5144,-4.5277,-4.5277,-4.5286,-4.5213,-4.5148,-4.5014,-4.501,-4.4967,-4.4907,-4.4895,-4.4895,-4.4895,-4.4895,-4.4895,-4.4895,-4.4895,-4.4895,-4.4895,-4.4895,-4.4895,-4.4883,-4.4668,-4.4471,-4.0496,-4.0496,-4.0496,-4.061,-4.0771,-4.0771,-4.0848,-4.0963,-4.0967,-4.0977,-4.099,-4.099,-4.102,-4.1076,-4.1076,-4.1076,-4.1076,-4.1085,-4.1109,-4.1109,-4.1109,-4.1109,-4.1109,-4.1109,-4.1109,-4.109,-4.0875,-4.0795,-4.0776,-4.0602,-4.0503,-4.0481,-4.0481,-3.9813,-3.8553,-3.8516,-3.8516,-3.8514,-3.8514,-3.8519,-3.8505,-3.8519,-3.8519,-3.8519,-3.8519,-3.8519,-3.8519,-3.8519,-3.8519,-3.8519,-3.8519,-3.8519,-3.8519,-3.8519,0.0,0.0,0.0,0.0,0.0,0.0,0.0,0.0,0.0,-3.6833,-3.68,0.0,-3.6988,0.0,-3.802,-3.807,-3.7899,-3.8729,0.0,0.0,-3.9948,-4.0466,-4.0657,-4.0803,-4.0935,-4.1038,-4.1081,-4.1298,-4.1794,-4.1923,-4.2376,-4.3458,-4.3598,-4.3904,-4.485,-4.4991,-4.5048,-4.525,-4.5307,-4.5286,-4.5224,-4.517,-4.5103,-4.5022,-4.501,-4.4967,-4.4907,-4.4895,-4.4895,-4.4895,-4.4895,-4.4895,-4.4895,-4.4895,-4.4895,-4.4895,-4.4895,-4.4895,-4.4895,-4.4814,-4.4777,-4.0496,-4.0496,-4.0496,-4.0615,-4.0745,-4.0791,-4.0863,-4.0994,-4.1042,-4.1052,-4.1052,-4.1052,-4.1068,-4.1108,-4.1109,-4.1109,-4.1109,-4.1109,-4.1109,-4.1109,-4.1109,-4.1109,-4.1109,-4.1109,-4.1109,-4.1109,-4.1109,-4.1109,-4.1109,-4.1109,-4.1109,-4.1109,-4.1109,-4.0616,-3.9689,-3.9669,-3.9663,-3.9655,-3.9652,-3.9678,-3.9669,-3.9669,-3.9649,-3.9669,-3.9666,-3.9649,-3.9669,-3.9649,-3.9649,-3.9649,-3.9279,-3.9237,-3.963,-3.9298,-3.9084,0.0,0.0,0.0,0.0,0.0,0.0,0.0,0.0,0.0,0.0,0.0,-3.7897,0.0,-3.885,0.0,-3.8853,-3.9699,-4.0268,-4.0276,-4.0634,-4.0935,-4.1081,-4.1034,-4.1143,-4.1591,-4.1583,-4.1831,-4.2568,-4.2815,-4.3231,-4.4096,-4.4478,-4.4863,-4.5285,-4.539,-4.539,-4.539,-4.539,-4.5361,-4.5256,-4.5233,-4.5159,-4.5114,-4.5091,-4.508,-4.501,-4.4955,-4.4931,-4.4931,-4.4919,-4.4895,-4.4895,-4.4895,-4.4895,-4.4895,-4.4895,-4.4895,-4.4895,-4.4895,-4.4895,-4.0496,-4.0496,-4.0496,-4.0571,-4.0681,-4.0761,-4.0882,-4.0997,-4.1072,-4.1109,-4.1109,-4.1109,-4.1109,-4.1109,-4.1109,-4.1109,-4.1109,-4.1109,-4.1109,-4.1109,-4.1109,-4.1109,-4.1109,-4.1109,-4.1109,-4.1109,-4.1109,-4.1109,-4.1109,-4.1109,-4.1109,-4.1108,-4.1108,-4.1101,-4.1109,-4.1109,-4.1118,-4.1112,-4.1117,-4.1107,-4.1107,-4.1107,-4.1107,-4.1107,-4.1107,-4.1107,-4.1107,-4.1107,-4.1107,-4.1088,-4.037,-4.0312,-4.1029,-4.039,-3.998,0.0,-3.9961,0.0,0.0,0.0,0.0,0.0,0.0,0.0,0.0,-3.8772,-3.8831,-3.8831,-3.9532,-3.9961,-3.9961,-4.064,-4.1107,-4.1107,-4.1107,-4.1107,-4.1107,-4.1179,-4.1503,-4.2185,-4.2256,-4.2557,-4.3388,-4.3916,-4.4203,-4.4425,-4.4921,-4.5343,-4.5524,-4.5524,-4.55,-4.549,-4.5491,-4.5391,-4.5319,-4.5277,-4.5256,-4.5203,-4.5181,-4.517,-4.5103,-4.5045,-4.501,-4.4998,-4.4962,-4.4895,-4.4895,-4.4895,-4.4895,-4.4895,-4.4895,-4.4895,-4.4895,-4.4895,-4.4895,-4.0496,-4.0496,-4.0496,-4.0512,-4.0545,-4.0724,-4.0882,-4.1016,-4.1072,-4.1109,-4.1109,-4.1109,-4.1109,-4.1109,-4.1109,-4.1109,-4.1109,-4.1109,-4.1109,-4.1109,-4.1109,-4.1109,-4.1109,-4.1109,-4.1109,-4.1109,-4.1109,-4.1109,-4.1109,-4.1109,-4.1104,-4.1117,-4.1117,-4.1107,0.0,0.0,0.0,0.0,-4.111,-4.1107,-4.1107,-4.1107,-4.1107,-4.1107,-4.1107,0.0,-4.1107,-4.1107,-4.1107,-4.1107,-4.0951,0.0,0.0,0.0,0.0,0.0,0.0,0.0,0.0,0.0,0.0,0.0,-4.0601,-4.0331,-3.9649,-4.0195,-4.0601,-4.0601,-4.0779,-4.0854,-4.0857,-4.099,-4.1107,-4.1107,-4.1107,-4.1107,-4.1127,-4.1575,-4.1971,-4.2126,-4.2629,-4.3265,-4.3948,-4.4141,-4.4481,-4.5096,-4.5367,-4.5574,-4.5854,-4.5676,-4.5507,-4.549,-4.5409,-4.533,-4.5288,-4.5277,-4.5286,-4.5213,-4.5192,-4.517,-4.5106,-4.5057,-4.501,-4.4991,-4.4962,-4.4895,-4.4895,-4.4895,-4.4895,-4.4895,-4.4895,-4.4895,-4.4895,-4.4895,-4.4895,-4.0496,0.0,-4.0496,-4.0496,0.0,-4.0674,-4.0811,-4.0906,-4.1044,-4.1109,-4.1109,-4.1109,-4.1109,-4.1109,-4.1109,-4.1109,-4.1109,-4.1109,-4.1109,-4.1109,-4.1109,-4.1109,-4.1109,-4.1109,-4.1109,-4.1109,-4.1109,-4.1109,-4.1109,-4.1104,-4.1099,-4.1113,-4.1107,-4.1115,-4.1117,-4.1114,-4.1106,-4.1107,-4.1107,-4.1107,-4.1107,-4.1107,-4.1107,-4.1107,0.0,0.0,0.0,0.0,0.0,0.0,0.0,0.0,0.0,0.0,0.0,-4.1088,-4.1107,-4.1107,-4.1107,-4.1107,-4.1107,-4.1107,-4.1107,-4.0935,-4.0467,-4.0838,-4.1107,-4.1107,-4.1107,-4.1107,-4.1107,-4.1107,-4.1107,-4.1107,-4.1107,-4.1227,-4.165,-4.1988,-4.2544,-4.3352,-4.3687,-4.4114,-4.4832,-4.4878,-4.5009,-4.5421,-4.5574,-4.5694,-4.5933,-4.586,-4.5728,-4.5619,-4.5491,-4.5361,-4.5309,-4.5277,-4.5297,-4.5246,-4.5254,-4.5224,-4.5203,-4.5148,-4.5091,-4.5057,-4.501,-4.4931,-4.4895,-4.4895,-4.4895,-4.4895,-4.4895,-4.4895,-4.4895,-4.4895,-4.4895,-4.0496,-4.0496,-4.0496,-4.0496,-4.0504,-4.0642,-4.0738,-4.0846,0.0,0.0,0.0,-4.1109,-4.1109,-4.1109,-4.1109,-4.1109,-4.1109,-4.1109,-4.1109,-4.1109,-4.1109,-4.1109,-4.1109,-4.1109,-4.1109,-4.1109,-4.1109,-4.1109,-4.1109,-4.1101,-4.1115,-4.1111,-4.1103,-4.1111,-4.11,-4.1098,-4.1112,-4.1117,-4.1097,-4.1117,-4.1117,-4.1114,-4.1114,-4.1117,-4.111,-4.111,-4.1114,-4.111,-4.1107,-4.1088,-4.0429,-4.0351,-4.101,-4.0425,-4.0347,-4.1029,-4.1107,-4.1107,-4.1107,-4.111,-4.1117,-4.1117,-4.1117,-4.1117,-4.111,-4.1107,-4.1107,-4.1107,-4.1107,-4.1107,-4.1107,-4.1107,-4.1149,-4.1305,-4.1322,-4.1633,-4.2413,-4.2672,-4.3315,-4.4526,-4.4707,-4.4935,-4.5517,-4.5557,-4.5558,-4.5607,-4.5694,-4.5815,-4.5977,-4.5961,-4.5815,-4.566,-4.5516,-4.54,-4.532,-4.5277,-4.5277,-4.5277,-4.5297,-4.5277,-4.5297,-4.5254,-4.5181,-4.5125,-4.5068,-4.501,-4.4943,-4.4931,-4.4907,-4.4926,-4.4907,-4.4895,-4.4895,-4.4895,-4.4895,-4.0496,-4.0496,-4.0496,-4.0496,-4.0504,-4.0642,-4.0805,-4.0981,-4.107,-4.1109,-4.1109,-4.1109,-4.1109,-4.1109,-4.1109,-4.1109,-4.1109,-4.1109,-4.1109,0.0,-4.1109,-4.1109,-4.1109,-4.1109,-4.1109,-4.1109,-4.1109,-4.1109,-4.1109,-4.1108,-4.1103,-4.1115,-4.1111,-4.1105,-4.1113,-4.1111,-4.1111,-4.1108,-4.1108,-4.1108,-4.1108,-4.1098,-4.1117,-4.1106,-4.1103,-4.1117,-4.1112,-4.1117,-4.1107,-4.1107,-4.099,-4.0971,-4.1068,-4.0971,-4.0971,-4.1088,-4.1107,-4.1107,-4.111,-4.1103,-4.1117,-4.1106,-4.1108,-4.1117,-4.111,-4.1107,-4.1107,-4.1107,-4.111,-4.1107,-4.1107,-4.1127,-4.1419,-4.2023,-4.212,-4.2471,-4.3328,-4.3934,-4.4365,-4.4632,-4.5157,-4.5486,-4.5557,-4.5634,-4.5736,-4.5879,-4.5914,-4.5993,-4.608,-4.5936,-4.5696,-4.5539,-4.541,-4.5329,-4.5307,-4.5277,-4.5277,-4.5277,-4.5277,-4.5277,-4.5277,-4.5265,-4.5211,-4.5181,-4.5125,-4.5091,-4.5068,-4.5014,-4.4979,-4.4979,-4.4943,-4.4907,-4.4895,-4.4895,-4.4895,-4.0496,-4.0496,-4.0496,-4.0496,-4.0512,-4.0693,-4.0811,-4.0902,-4.1042,-4.1109,-4.1109,-4.1109,-4.1109,-4.1109,-4.1109,-4.1109,-4.1109,-4.1109,-4.1109,-4.1109,-4.1109,-4.1109,-4.1109,-4.1109,-4.1109,-4.1109,-4.1109,-4.1109,-4.1108,-4.1103,-4.1097,-4.1113,-4.1107,-4.11,-4.1113,-4.11,-4.1105,-4.1105,-4.1118,-4.1111,-4.1106,-4.1106,-4.11,-4.1112,-4.1106,-4.1103,-4.11,-4.1114,-4.1107,-4.1107,-4.1107,-4.1107,-4.1107,-4.1107,-4.1107,-4.1107,-4.1107,-4.1114,-4.1103,-4.1117,-4.1108,-4.1113,-4.1108,-4.11,-4.1103,-4.1103,-4.1103,-4.1103,-4.1114,-4.1286,-4.1692,-4.175,-4.2081,-4.2919,-4.3017,-4.3367,-4.4147,-4.4573,-4.4956,-4.5356,-4.5667,-4.5835,-4.5776,-4.5822,-4.5871,-4.5997,-4.6061,-4.6102,-4.6098,-4.5958,-4.579,-4.5642,-4.549,-4.5381,-4.5309,-4.5277,-4.5277,-4.5277,-4.5277,-4.5277,-4.5277,-4.5275,-4.5254,-4.5203,-4.517,-4.5148,-4.5114,-4.5091,-4.5049,-4.5038,-4.4991,-4.4955,-4.4962,-4.4919,-4.4895,-4.0496,-4.0496,-4.0496,-4.0539,-4.0571,-4.0729,-4.08,-4.0859,-4.1018,-4.1109,-4.1109,-4.1109,-4.1109,-4.1109,-4.1109,-4.1109,-4.1109,-4.1109,-4.1109,-4.1109,-4.1109,-4.1109,-4.1109,-4.1109,-4.1109,-4.1109,-4.1109,-4.1109,-4.1108,-4.1101,-4.1117,-4.1115,-4.1107,-4.1103,-4.1103,-4.1111,-4.1117,-4.1117,-4.1107,-4.1098,-4.1111,-4.1115,-4.1108,-4.1109,-4.1112,-4.1109,-4.1117,-4.111,-4.1107,-4.1107,-4.1107,-4.1107,-4.1107,-4.1107,-4.111,-4.1114,-4.1117,-4.1103,-4.1122,-4.1289,-4.1393,-4.1395,-4.1581,-4.1693,-4.1696,-4.1688,-4.1566,-4.1421,-4.1409,-4.1711,-4.2413,-4.2588,-4.2939,-4.3757,-4.3893,-4.4267,-4.5027,-4.5186,-4.539,-4.6033,-4.6089,-4.6027,-4.6012,-4.6042,-4.6056,-4.6071,-4.6138,-4.6146,-4.6071,-4.6022,-4.5919,-4.5783,-4.5619,-4.5465,-4.5329,-4.5277,-4.5277,-4.5277,-4.5277,-4.5277,-4.5277,-4.5277,-4.5267,-4.5224,-4.5213,-4.5203,-4.5159,-4.5136,-4.5106,-4.5106,-4.508,-4.5014,-4.501,-4.4931,-4.4895,-4.0496,-4.0496,-4.0496,-4.0559,-4.0687,-4.0761,-4.0874,-4.0987,-4.1072,-4.1109,-4.1109,-4.1109,-4.1109,-4.1109,-4.1109,-4.1109,-4.1109,-4.1109,-4.1109,-4.1109,-4.1109,-4.1109,-4.1109,-4.1109,-4.1109,-4.1109,-4.1109,-4.1109,-4.1109,-4.1108,-4.1108,-4.1108,-4.1108,-4.1106,-4.1106,-4.1106,-4.1108,-4.1108,-4.1108,-4.1106,-4.1104,-4.1117,-4.1109,-4.1109,-4.1108,-4.1114,-4.1112,-4.11,-4.1107,-4.1107,-4.113,-4.113,-4.113,-4.113,-4.1117,-4.1151,-4.1153,-4.1106,-4.1185,-4.1855,-4.2288,-4.2332,-4.2949,-4.3357,-4.3365,-4.3407,-4.3072,-4.2448,-4.2221,-4.2572,-4.3367,-4.3484,-4.3838,-4.464,-4.4777,-4.5108,-4.5825,-4.6063,-4.6072,-4.6008,-4.6106,-4.6123,-4.6037,-4.6098,-4.6177,-4.6174,-4.6185,-4.6192,-4.6154,-4.6084,-4.5997,-4.5922,-4.5713,-4.5473,-4.5341,-4.5288,-4.5277,-4.5277,-4.5277,-4.5277,-4.5277,-4.5277,-4.5277,-4.5267,-4.5267,-4.5275,-4.5265,-4.5224,-4.5192,-4.5181,-4.5136,-4.5061,-4.5003,-4.4943,-4.4907,-4.0496,-4.0496,-4.0496,-4.0586,-4.0687,-4.0766,-4.0882,-4.0997,-4.1072,-4.1109,-4.1109,-4.1109,-4.1109,-4.1109,-4.1109,-4.1109,-4.1109,-4.1109,-4.1109,-4.1109,-4.1109,-4.1109,-4.1109,-4.1109,-4.1109,-4.1109,-4.1109,-4.1109,-4.1109,-4.1109,-4.1109,-4.1109,-4.1109,-4.1109,-4.1109,-4.1109,-4.1109,-4.1109,-4.1109,-4.1109,-4.1109,-4.1104,-4.1117,-4.1103,-4.11,-4.1115,-4.1106,-4.11,-4.1117,-4.1137,-4.1585,-4.1861,-4.188,-4.2348,-4.2646,-4.2651,-4.2617,-4.2646,-4.2635,-4.2975,-4.3173,-4.3157,-4.348,-4.371,-4.3695,-4.3702,-4.3687,-4.3794,-4.3421,-4.346,-4.4217,-4.4367,-4.4731,-4.5472,-4.566,-4.5809,-4.6141,-4.6199,-4.6185,-4.6134,-4.6158,-4.6169,-4.6142,-4.6158,-4.6196,-4.6199,-4.6199,-4.6199,-4.6196,-4.615,-4.6042,-4.5859,-4.5682,-4.5571,-4.5438,-4.536,-4.5298,-4.5277,-4.5277,-4.5277,-4.5277,-4.5277,-4.5277,-4.5277,-4.5277,-4.5277,-4.5297,-4.5286,-4.5246,-4.5254,-4.5203,-4.5117,-4.5033,-4.4967,-4.4943,-4.0496,-4.0504,-4.0542,-4.061,-4.0734,-4.0825,-4.0917,-4.102,-4.1078,-4.1109,-4.1109,-4.1109,-4.1109,-4.1109,-4.1109,-4.1109,-4.1109,-4.1109,-4.1109,-4.1109,-4.1109,-4.1109,-4.1109,-4.1109,-4.1109,-4.1109,-4.1109,-4.1109,-4.1109,-4.1109,-4.1109,-4.1109,-4.1109,-4.1109,-4.1109,-4.1109,-4.1109,-4.1109,-4.1109,-4.1207,-4.142,-4.1459,-4.1335,-4.1161,-4.1343,-4.1458,-4.1466,-4.1681,-4.1818,-4.1818,-4.2425,-4.2756,-4.2795,-4.3363,-4.3695,-4.37,-4.3708,-4.3695,-4.3714,-4.3915,-4.4055,-4.4075,-4.4261,-4.4413,-4.4393,-4.4406,-4.4658,-4.5106,-4.4753,-4.4712,-4.5128,-4.5253,-4.5556,-4.6118,-4.6206,-4.6199,-4.6199,-4.6199,-4.6196,-4.6199,-4.6196,-4.6199,-4.6196,-4.6196,-4.6199,-4.6199,-4.6199,-4.6199,-4.6199,-4.6192,-4.6111,-4.5869,-4.5815,-4.5679,-4.55,-4.537,-4.5288,-4.5277,-4.5277,-4.5277,-4.5277,-4.5277,-4.5277,-4.5277,-4.5277,-4.5277,-4.5277,-4.5277,-4.5277,-4.5286,-4.5235,-4.517,-4.5091,-4.5026,-4.4979,-4.0496,-4.0519,-4.0636,-4.0715,-4.081,-4.0914,-4.1042,-4.1083,-4.1108,-4.1109,-4.1109,-4.1109,-4.1109,-4.1109,-4.1109,-4.1109,-4.1109,-4.1109,-4.1109,-4.1109,-4.1109,-4.1109,-4.1109,-4.1109,-4.1109,-4.1109,-4.1109,-4.1109,-4.1109,-4.1109,-4.1109,-4.1109,-4.1109,-4.1109,-4.1129,-4.1168,-4.1129,-4.1187,-4.1265,-4.1557,-4.224,-4.2337,-4.1961,-4.1406,-4.1915,-4.234,-4.2427,-4.3129,-4.3539,-4.3558,-4.3578,-4.3656,-4.3636,-4.3734,-4.3817,-4.3806,-4.3757,-4.3762,-4.3899,-4.4522,-4.4953,-4.5029,-4.557,-4.6095,-4.5927,-4.5939,-4.5976,-4.6181,-4.6015,-4.6021,-4.6036,-4.5982,-4.605,-4.6164,-4.6199,-4.6199,-4.6199,-4.6199,-4.6199,-4.6199,-4.6199,-4.6199,-4.6199,-4.6199,-4.6199,-4.6199,-4.6199,-4.6199,-4.6199,-4.6199,-4.6162,-4.6115,-4.6022,-4.5829,-4.5429,-4.5341,-4.5329,-4.5309,-4.5329,-4.5277,-4.5277,-4.5277,-4.5277,-4.5277,-4.5277,-4.5277,-4.5277,-4.5277,-4.5277,-4.5286,-4.5246,-4.5192,-4.5148,-4.5068,-4.5022,-4.1008,-4.0512,-4.0662,-4.0732,-4.0815,-4.094,-4.1047,-4.1108,-4.1109,-4.1109,-4.1109,-4.1109,-4.1109,-4.1109,-4.1109,-4.1109,-4.1109,-4.1109,-4.1109,-4.1109,-4.1109,-4.1109,-4.1109,-4.1109,-4.1109,-4.1109,-4.1109,-4.1109,-4.1109,-4.1109,-4.1109,-4.1109,-4.1109,-4.1109,-4.1207,-4.1674,-4.1927,-4.1986,-4.2437,-4.2923,-4.3177,-4.3216,-4.3058,-4.2822,-4.3056,-4.323,-4.3226,-4.3539,-4.3695,-4.3695,-4.4222,-4.4534,-4.4592,-4.5061,-4.5356,-4.5357,-4.5361,-4.5363,-4.5404,-4.5656,-4.5831,-4.5851,-4.6101,-4.6296,-4.6298,-4.6298,-4.6296,-4.6296,-4.6264,-4.6228,-4.622,-4.6206,-4.6196,-4.6213,-4.6203,-4.6199,-4.6199,-4.6199,-4.6199,-4.6199,-4.6199,-4.6199,-4.6199,-4.6199,-4.6199,-4.6199,-4.6199,-4.6199,-4.6199,-4.6199,-4.6165,-4.6089,-4.6022,-4.5891,-4.5627,-4.5482,-4.5419,-4.54,-4.5381,-4.5329,-4.5288,-4.5277,-4.5277,-4.5277,-4.5277,-4.5277,-4.5277,-4.5277,-4.5277,-4.5277,-4.5246,-4.5235,-4.5203,-4.5136,-4.508,-4.1046,-4.0585,-4.0668,-4.0759,-4.0824,-4.0968,-4.1061,-4.1108,-4.1109,-4.1109,-4.1109,-4.1109,-4.1109,-4.1109,-4.1109,-4.1109,-4.1109,-4.1109,-4.1109,-4.1109,-4.1109,-4.1109,-4.1109,-4.1109,-4.1109,-4.1109,-4.1109,-4.1109,-4.1109,-4.1109,-4.1246,-4.1518,-4.1518,-4.1674,-4.1988,-4.2533,-4.2825,-4.2962,-4.3411,-4.3821,-4.4057,-4.4114,-4.427,-4.4486,-4.4543,-4.4387,-4.4172,-4.4387,-4.4524,-4.4621,-4.5109,-4.5421,-4.548,-4.5968,-4.6302,-4.6302,-4.6282,-4.6302,-4.6302,-4.6302,-4.6282,-4.6302,-4.6302,-4.6302,-4.6302,-4.6302,-4.63,-4.6273,-4.624,-4.6206,-4.6203,-4.6215,-4.6203,-4.6196,-4.6206,-4.6199,-4.6199,-4.6199,-4.6199,-4.6199,-4.6199,-4.6199,-4.6199,-4.6199,-4.6199,-4.6199,-4.6199,-4.6199,-4.6199,-4.6196,-4.6165,-4.6084,-4.6065,-4.6018,-4.5877,-4.5776,-4.5566,-4.5518,-4.5455,-4.539,-4.5319,-4.5298,-4.5288,-4.5288,-4.5277,-4.5277,-4.5277,-4.5277,-4.5277,-4.5277,-4.5277,-4.5256,-4.5235,-4.5222,-4.5159,-4.0516,-4.0523,-4.0718,-4.0801,-4.0837,-4.1008,-4.1108,-4.1109,-4.1109,-4.1109,-4.1109,-4.1109,-4.1109,-4.1109,-4.1109,-4.1109,-4.1109,-4.1109,-4.1109,-4.1109,-4.1109,-4.1109,-4.1109,-4.1109,-4.1109,-4.1109,-4.1148,-4.1168,-4.1226,-4.1343,-4.1732,-4.2279,-4.2415,-4.2728,-4.3627,-4.3608,-4.3705,-4.3764,-4.3881,-4.427,-4.4894,-4.5012,-4.5343,-4.6027,-4.6105,-4.5734,-4.507,-4.5753,-4.6066,-4.6124,-4.6184,-4.6282,-4.6184,-4.6282,-4.6302,-4.6302,-4.6302,-4.6302,-4.6302,-4.6302,-4.6302,-4.6302,-4.6302,-4.6302,-4.6302,-4.63,-4.6298,-4.629,-4.6258,-4.6209,-4.6206,-4.6198,-4.6203,-4.6203,-4.6206,-4.6206,-4.6203,-4.6199,-4.6199,-4.6199,-4.6199,-4.6199,-4.6199,-4.6199,-4.6199,-4.6199,-4.6199,-4.6199,-4.6199,-4.6199,-4.6196,-4.6192,-4.6158,-4.6115,-4.6106,-4.608,-4.5816,-4.5603,-4.5539,-4.5472,-4.539,-4.5351,-4.5329,-4.5319,-4.5277,-4.5277,-4.5277,-4.5277,-4.5277,-4.5277,-4.5277,-4.5277,-4.5275,-4.5254,-4.5213,-4.0496,-4.0515,-4.0718,-4.081,-4.0814,-4.1013,-4.1109,-4.1109,-4.1109,-4.1109,-4.1109,-4.1109,-4.1109,-4.1109,-4.1109,-4.1109,-4.1109,-4.1109,-4.1109,-4.1148,-4.1129,-4.1129,-4.1129,-4.1129,-4.1109,-4.1207,-4.1732,-4.2006,-4.2103,-4.2572,-4.306,-4.3255,-4.3294,-4.343,-4.3782,-4.427,-4.4602,-4.466,-4.5187,-4.5656,-4.587,-4.589,-4.6046,-4.6243,-4.6302,-4.6144,-4.5929,-4.6163,-4.6282,-4.6302,-4.6302,-4.6302,-4.6302,-4.6302,-4.6302,-4.6302,-4.6302,-4.6302,-4.6302,-4.6302,-4.6302,-4.6302,-4.6302,-4.6302,-4.6302,-4.6302,-4.63,-4.6294,-4.6267,-4.626,-4.6258,-4.6209,-4.6198,-4.6215,-4.6212,-4.6212,-4.6212,-4.6212,-4.6209,-4.62,-4.6196,-4.6213,-4.6203,-4.6199,-4.6199,-4.6199,-4.6199,-4.6199,-4.6199,-4.6199,-4.6196,-4.6199,-4.6199,-4.6199,-4.6181,-4.6142,-4.6022,-4.5816,-4.5715,-4.5595,-4.5481,-4.541,-4.538,-4.5329,-4.5298,-4.5277,-4.5277,-4.5277,-4.5277,-4.5277,-4.5277,-4.5277,-4.5277,-4.5267,-4.5235,-4.0534,-4.0588,-4.0735,-4.0829,-4.0894,-4.1044,-4.1109,-4.1109,-4.1109,-4.1109,-4.1109,-4.1109,-4.1109,-4.1109,-4.1109,-4.1303,-4.1557,-4.1576,-4.1752,-4.187,-4.1285,-4.1265,-4.1597,-4.1949,-4.2066,-4.2142,-4.2611,-4.2884,-4.2903,-4.3411,-4.3862,-4.4114,-4.4172,-4.4387,-4.466,-4.5187,-4.548,-4.5558,-4.6007,-4.6302,-4.6302,-4.6302,-4.6302,-4.6302,-4.6302,-4.6302,-4.6302,-4.6302,-4.6302,-4.6302,-4.6302,-4.6302,-4.6302,-4.6302,-4.6302,-4.6302,-4.6302,-4.6302,-4.6302,-4.6302,-4.6302,-4.6302,-4.6302,-4.6302,-4.6302,-4.6302,-4.63,-4.6294,-4.6288,-4.6303,-4.6284,-4.626,-4.6236,-4.624,-4.6211,-4.6209,-4.6206,-4.6206,-4.6203,-4.6195,-4.6212,-4.6206,-4.6213,-4.6209,-4.6203,-4.6199,-4.6199,-4.6199,-4.6199,-4.6199,-4.6199,-4.6199,-4.6199,-4.6199,-4.6199,-4.6189,-4.6174,-4.6047,-4.59,-4.5757,-4.5619,-4.5498,-4.5456,-4.5341,-4.5277,-4.5277,-4.5277,-4.5277,-4.5277,-4.5277,-4.5277,-4.5277,-4.5277,-4.5277,-4.5256,-4.0566,-4.0706,-4.0786,-4.0878,-4.099,-4.1072,-4.1109,-4.1109,-4.1109,-4.1109,-4.1109,-4.1246,-4.1264,-4.1226,-4.1461,-4.1888,-4.2357,-4.2474,-4.2806,-4.2944,-4.2241,-4.1831,-4.2474,-4.31,-4.3354,-4.3471,-4.3665,-4.3762,-4.3782,-4.4016,-4.425,-4.5012,-4.509,-4.5441,-4.5929,-4.6243,-4.6204,-4.6184,-4.6282,-4.6302,-4.6302,-4.6302,-4.6302,-4.6302,-4.6302,-4.6302,-4.6302,-4.6302,-4.6302,-4.6302,-4.6302,-4.6302,-4.6302,-4.6302,-4.6302,-4.6302,-4.6302,-4.6302,-4.6302,-4.6302,-4.6302,-4.6302,-4.6302,-4.6302,-4.6302,-4.63,-4.6298,-4.629,-4.6288,-4.6306,-4.6306,-4.6286,-4.629,-4.6296,-4.6245,-4.6233,-4.6211,-4.6211,-4.6211,-4.6209,-4.6206,-4.6201,-4.6206,-4.6203,-4.6196,-4.6203,-4.6203,-4.6206,-4.6199,-4.6199,-4.6199,-4.6199,-4.6199,-4.6199,-4.6199,-4.6196,-4.6185,-4.6146,-4.6027,-4.5906,-4.5724,-4.5623,-4.55,-4.539,-4.5298,-4.5298,-4.5277,-4.5277,-4.5277,-4.5277,-4.5277,-4.5277,-4.5277,-4.5277,-4.5297,-4.0593,-4.0687,-4.0786,-4.0882,-4.0997,-4.1072,-4.1109,-4.1109,-4.1129,-4.1187,-4.1246,-4.1771,-4.2064,-4.2123,-4.2729,-4.3157,-4.3313,-4.3372,-4.343,-4.3588,-4.3313,-4.31,-4.3333,-4.3588,-4.3764,-4.3862,-4.4406,-4.466,-4.4719,-4.5207,-4.5656,-4.5948,-4.589,-4.6007,-4.6282,-4.6302,-4.6302,-4.6302,-4.6302,-4.6302,-4.6302,-4.6302,-4.6302,-4.6302,-4.6302,-4.6302,-4.6302,-4.6302,-4.6302,-4.6302,-4.6302,-4.6302,-4.6302,-4.6302,-4.6302,-4.6302,-4.6302,-4.6302,-4.6302,-4.6302,-4.6302,-4.6302,-4.6302,-4.6302,-4.6302,-4.6302,-4.63,-4.6296,-4.6296,-4.6296,-4.6296,-4.6296,-4.6298,-4.63,-4.6275,-4.6271,-4.6273,-4.6273,-4.6271,-4.6282,-4.626,-4.625,-4.6217,-4.6215,-4.6212,-4.6213,-4.6196,-4.6203,-4.6209,-4.6206,-4.6209,-4.6199,-4.6199,-4.6199,-4.6199,-4.6199,-4.6196,-4.6196,-4.6146,-4.6069,-4.5877,-4.5706,-4.5594,-4.5475,-4.538,-4.533,-4.5309,-4.5288,-4.5288,-4.5277,-4.5277,-4.5277,-4.5277,-4.5277,-4.5277,-4.0655,-4.0749,-4.0848,-4.0954,-4.1033,-4.108,-4.1304,-4.1615,-4.1654,-4.1888,-4.224,-4.2689,-4.2942,-4.3001,-4.3469,-4.3938,-4.4211,-4.425,-4.4465,-4.4797,-4.4797,-4.4602,-4.4426,-4.4543,-4.4798,-4.4838,-4.5285,-4.5519,-4.5617,-4.6085,-4.6262,-4.6262,-4.6302,-4.6302,-4.6282,-4.6302,-4.6302,-4.6302,-4.6302,-4.6302,-4.6302,-4.6302,-4.6302,-4.6302,-4.6302,-4.6302,-4.6302,-4.6302,-4.6302,-4.6302,-4.6302,-4.6302,-4.6302,-4.6302,-4.6302,-4.6302,-4.6302,-4.6302,-4.6302,-4.6302,-4.6302,-4.6302,-4.6302,-4.6302,-4.6302,-4.6302,-4.6302,-4.63,-4.6302,-4.6302,-4.6302,-4.6302,-4.6302,-4.63,-4.6302,-4.6302,-4.6302,-4.63,-4.6298,-4.6294,-4.629,-4.6286,-4.6245,-4.625,-4.6223,-4.6209,-4.6209,-4.6206,-4.6216,-4.6196,-4.6196,-4.6206,-4.6203,-4.6203,-4.6203,-4.6203,-4.6199,-4.6199,-4.6192,-4.6146,-4.6003,-4.5822,-4.572,-4.5607,-4.5484,-4.5371,-4.537,-4.533,-4.5277,-4.5277,-4.5277,-4.5277,-4.5277,-4.5277,-4.5277,-4.0751,-4.0795,-4.0921,-4.1028,-4.1104,-4.1207,-4.1674,-4.2279,-4.2494,-4.2923,-4.3489,-4.3744,-4.3821,-4.3842,-4.4172,-4.4465,-4.5129,-4.5129,-4.5558,-4.589,-4.6028,-4.5734,-4.5246,-4.5695,-4.597,-4.6046,-4.6262,-4.6223,-4.6184,-4.6262,-4.6302,-4.6302,-4.6302,-4.6302,-4.6302,-4.6302,-4.6302,-4.6302,-4.6303,-4.6303,-4.6305,-4.6305,-4.6287,-4.6306,-4.6303,-4.6302,-4.6302,-4.6302,-4.6302,-4.6302,-4.6302,-4.6302,-4.6302,-4.6302,-4.6302,-4.6302,-4.6302,-4.6302,-4.6302,-4.6302,-4.6302,-4.6302,-4.6302,-4.6302,-4.6302,-4.6302,-4.6302,-4.6302,-4.6302,-4.6302,-4.6302,-4.6302,-4.6302,-4.6302,-4.6302,-4.6302,-4.6302,-4.6302,-4.6302,-4.6302,-4.63,-4.6296,-4.6288,-4.6284,-4.6262,-4.6201,-4.6203,-4.6223,-4.6215,-4.6231,-4.6206,-4.6196,-4.6209,-4.6206,-4.6206,-4.6206,-4.6203,-4.6199,-4.6199,-4.6158,-4.6098,-4.5961,-4.5891,-4.5783,-4.5638,-4.5535,-4.5455,-4.541,-4.5351,-4.5277,-4.5277,-4.5277,-4.5277,-4.5277,-4.5277,-4.0751,-4.08,-4.0963,-4.1028,-4.1204,-4.183,-4.222,-4.2494,-4.3157,-4.3567,-4.386,-4.4426,-4.4699,-4.4758,-4.5304,-4.587,-4.5929,-4.5929,-4.6163,-4.6223,-4.6302,-4.6223,-4.6007,-4.6243,-4.6282,-4.6302,-4.6302,-4.6302,-4.6302,-4.6302,-4.6302,-4.6302,-4.6302,-4.6302,-4.6302,-4.6302,-4.6302,-4.6302,-4.6287,-4.6291,-4.6293,-4.6295,-4.6297,-4.6297,-4.6293,-4.6287,-4.6302,-4.6302,-4.6302,-4.6302,-4.6302,-4.6302,-4.6302,-4.6302,-4.6302,-4.6302,-4.6302,-4.6302,-4.6302,-4.6302,-4.6302,-4.6302,-4.6302,-4.6302,-4.6302,-4.6302,-4.6302,-4.6302,-4.6302,-4.6302,-4.6302,-4.6302,-4.6302,-4.6302,-4.6302,-4.6302,-4.6302,-4.6302,-4.6302,-4.6302,-4.63,-4.6296,-4.6288,-4.6294,-4.6269,-4.6216,-4.6214,-4.624,-4.6236,-4.6245,-4.6217,-4.6206,-4.6206,-4.6206,-4.6206,-4.6203,-4.6196,-4.6213,-4.6209,-4.6206,-4.6127,-4.6089,-4.6003,-4.5894,-4.5777,-4.5687,-4.5623,-4.5507,-4.5455,-4.5371,-4.5298,-4.5298,-4.5309,-4.5298,-4.5277,-4.078,-4.0824,-4.098,-4.1304,-4.175,-4.222,-4.2864,-4.3587,-4.4075,-4.4543,-4.4953,-4.5441,-4.5597,-4.5636,-4.6066,-4.6282,-4.6302,-4.6302,-4.6282,-4.6302,-4.6302,-4.6302,-4.6302,-4.6302,-4.6302,-4.6302,-4.6302,-4.6302,-4.6302,-4.6302,-4.6302,-4.6302,-4.6302,-4.6302,-4.6302,-4.6305,-4.6287,-4.6288,-4.6294,-4.6297,-4.6299,-4.63,-4.6301,-4.6301,-4.6299,-4.6296,-4.6293,-4.6293,-4.6293,-4.6291,-4.6288,-4.6305,-4.6302,-4.6302,-4.6302,-4.6302,-4.6302,-4.6302,-4.6302,-4.6302,-4.6302,-4.6302,-4.6302,-4.6302,-4.6302,-4.6302,-4.6302,-4.6302,-4.6302,-4.6302,-4.6302,-4.6302,-4.6302,-4.6302,-4.6302,-4.6302,-4.6302,-4.6302,-4.6302,-4.6302,-4.6302,-4.6298,-4.6296,-4.6298,-4.6298,-4.6249,-4.626,-4.6264,-4.626,-4.6253,-4.6228,-4.6203,-4.6203,-4.6203,-4.6203,-4.6201,-4.6215,-4.6212,-4.6212,-4.6209,-4.6177,-4.6146,-4.6111,-4.5998,-4.5917,-4.5865,-4.5809,-4.5691,-4.5547,-4.5464,-4.5391,-4.5351,-4.531,-4.5298,-4.5307,-4.08,-4.0846,-4.1037,-4.1615,-4.2357,-4.2552,-4.3509,-4.4816,-4.5148,-4.5539,-4.6165,-4.6302,-4.6163,-4.6282,-4.6262,-4.6302,-4.6302,-4.6302,-4.6302,-4.6302,-4.6302,-4.6302,-4.6302,-4.6302,-4.6302,-4.6302,-4.6302,-4.6302,-4.6302,-4.6302,-4.6302,-4.6302,-4.6302,-4.6302,-4.6305,-4.629,-4.6293,-4.6295,-4.6301,-4.6302,-4.6303,-4.6304,-4.6305,-4.6303,-4.6303,-4.6301,-4.6301,-4.6301,-4.6301,-4.6301,-4.6297,-4.6293,-4.6306,-4.6302,-4.6302,-4.6302,-4.6302,-4.6302,-4.6302,-4.6302,-4.6302,-4.6302,-4.6302,-4.6302,-4.6302,-4.6302,-4.6302,-4.6302,-4.6302,-4.6302,-4.6302,-4.6302,-4.6302,-4.6302,-4.6302,-4.6302,-4.6302,-4.6302,-4.6302,-4.6302,-4.6302,-4.63,-4.63,-4.63,-4.63,-4.63,-4.6292,-4.6286,-4.6284,-4.6262,-4.624,-4.624,-4.624,-4.6236,-4.6236,-4.6233,-4.6228,-4.6203,-4.6206,-4.6206,-4.6203,-4.6186,-4.6157,-4.6162,-4.6102,-4.6032,-4.595,-4.5854,-4.5728,-4.5591,-4.5491,-4.5438,-4.539,-4.5338,-4.5317,-4.0855,-4.0961,-4.107,-4.1615,-4.2454,-4.3157,-4.4055,-4.5031,-4.5753,-4.6144,-4.6262,-4.6302,-4.6302,-4.6302,-4.6302,-4.6302,-4.6302,-4.6302,-4.6302,-4.6302,-4.6302,-4.6302,-4.6302,-4.6302,-4.6302,-4.6302,-4.6302,-4.6302,-4.6302,-4.6302,-4.6302,-4.6302,-4.6302,-4.6303,-4.629,-4.6293,-4.6297,-4.6301,-4.6305,-4.6306,-4.6307,-4.6288,-4.6288,-4.6306,-4.6306,-4.6305,-4.6303,-4.6302,-4.6301,-4.6301,-4.6301,-4.63,-4.6296,-4.6288,-4.6303,-4.6302,-4.6302,-4.6302,-4.6302,-4.6302,-4.6302,-4.6302,-4.6302,-4.6302,-4.6302,-4.6302,-4.6302,-4.6302,-4.6302,-4.6302,-4.6302,-4.6302,-4.6302,-4.6302,-4.6302,-4.6302,-4.6302,-4.6302,-4.6302,-4.6302,-4.6302,-4.6302,-4.6302,-4.6302,-4.6302,-4.6302,-4.6298,-4.6294,-4.6294,-4.6294,-4.6275,-4.6277,-4.6277,-4.629,-4.6284,-4.6282,-4.6279,-4.6233,-4.6233,-4.6233,-4.6211,-4.6206,-4.6215,-4.6433,-4.6313,-4.6115,-4.6047,-4.5982,-4.5859,-4.5729,-4.5611,-4.5545,-4.5447,-4.5381,-4.5319,-4.094,-4.1016,-4.1074,-4.1869,-4.3001,-4.351,-4.4465,-4.5617,-4.6105,-4.6302,-4.6302,-4.6302,-4.6302,-4.6302,-4.6302,-4.6302,-4.6302,-4.6302,-4.6302,-4.6302,-4.6302,-4.6302,-4.6302,-4.6302,-4.6302,-4.6302,-4.6305,-4.6305,-4.6302,-4.6302,-4.6303,-4.6306,-4.6287,-4.6291,-4.6297,-4.6301,-4.6302,-4.6305,-4.6288,-4.6289,-4.6289,-4.6289,-4.6289,-4.6289,-4.6289,-4.6288,-4.6288,-4.6287,-4.6287,-4.6287,-4.6306,-4.6305,-4.6302,-4.6296,-4.6288,-4.6287,-4.6303,-4.6302,-4.6302,-4.6302,-4.6302,-4.6302,-4.6302,-4.6302,-4.6302,-4.6302,-4.6302,-4.6302,-4.6302,-4.6302,-4.6302,-4.6302,-4.6302,-4.6302,-4.6302,-4.6302,-4.6302,-4.6302,-4.6302,-4.6302,-4.6302,-4.6302,-4.6302,-4.6302,-4.6302,-4.6302,-4.6302,-4.6302,-4.6302,-4.6302,-4.6302,-4.6339,-4.6378,-4.6493,-4.6566,-4.6661,-4.67,-4.6616,-4.6555,-4.6555,-4.6572,-4.6728,-4.684,-4.6989,-4.6732,-4.6495,-4.6208,-4.6177,-4.6027,-4.5972,-4.5977,-4.594,-4.5627,-4.5437,-4.5553,-4.1019,-4.1034,-4.1271,-4.2261,-4.3588,-4.3901,-4.4855,-4.6105,-4.6282,-4.6302,-4.6302,-4.6302,-4.6302,-4.6302,-4.6302,-4.6302,-4.6303,-4.6303,-4.6305,-4.6288,-4.6288,-4.6287,-4.6306,-4.6305,-4.6287,-4.629,-4.6293,-4.6291,-4.6306,-4.6287,-4.629,-4.6294,-4.6295,-4.6299,-4.6303,-4.6305,-4.6307,-4.6288,-4.6289,-4.6289,-4.6289,-4.6289,-4.6289,-4.6289,-4.6289,-4.6289,-4.6289,-4.6289,-4.6289,-4.6289,-4.6289,-4.6288,-4.6287,-4.6302,-4.6297,-4.6295,-4.6288,-4.6302,-4.6302,-4.6302,-4.6302,-4.6302,-4.6302,-4.6302,-4.6302,-4.6302,-4.6302,-4.6302,-4.6302,-4.6302,-4.6302,-4.6302,-4.6302,-4.6302,-4.6302,-4.6302,-4.6302,-4.6302,-4.6302,-4.6302,-4.6302,-4.6321,-4.6358,-4.6302,-4.6302,-4.6302,-4.6302,-4.6302,-4.6302,-4.6302,-4.6321,-4.6397,-4.6495,-4.669,-4.6884,-4.7196,-4.7311,-4.7426,-4.7405,-4.7385,-4.7405,-4.7444,-4.7596,-4.7767,-4.7511,-4.7262,-4.6825,-4.6693,-4.7015,-4.7086,-4.6698,-4.6579,-4.6718,-4.6519,-4.6397,-4.1044,-4.1142,-4.1926,-4.2825,-4.3743,-4.4465,-4.5363,-4.6223,-4.6302,-4.6302,-4.6302,-4.6302,-4.6302,-4.6303,-4.6302,-4.6305,-4.629,-4.6291,-4.6294,-4.6297,-4.6299,-4.6299,-4.63,-4.6301,-4.6299,-4.6299,-4.63,-4.6297,-4.6295,-4.6297,-4.63,-4.6301,-4.6301,-4.6303,-4.6306,-4.6287,-4.6288,-4.6289,-4.6289,-4.6289,-4.6289,-4.6289,-4.6289,-4.6289,-4.6289,-4.6289,-4.6289,-4.6289,-4.6289,-4.6289,-4.6289,-4.6289,-4.6289,-4.6288,-4.6306,-4.6303,-4.6295,-4.6302,-4.6302,-4.6302,-4.6302,-4.6302,-4.6302,-4.6302,-4.6302,-4.6302,-4.6302,-4.6302,-4.6302,-4.6302,-4.6302,-4.6302,-4.6302,-4.6302,-4.6302,-4.6302,-4.6302,-4.6302,-4.6302,-4.6436,-4.6475,-4.6456,-4.6475,-4.6378,-4.6302,-4.6302,-4.6321,-4.638,-4.6515,-4.669,-4.6807,-4.7002,-4.7198,-4.7373,-4.7471,-4.7744,-4.79,-4.8135,-4.8135,-4.8135,-4.8152,-4.8189,-4.8523,-4.8597,-4.8402,-4.8474,-4.8462,-4.8449,-4.8473,-4.8155,-4.7739,-4.7884,-4.8211,-4.7847,-4.7281,-4.1074,-4.1168,-4.2045,-4.2903,-4.3762,-4.4641,-4.55,-4.6184,-4.6302,-4.6302,-4.6302,-4.6306,-4.629,-4.6293,-4.6294,-4.6295,-4.6299,-4.6299,-4.63,-4.6301,-4.6302,-4.6302,-4.6301,-4.6301,-4.6301,-4.6303,-4.6304,-4.6305,-4.6303,-4.6301,-4.6302,-4.6305,-4.6305,-4.6306,-4.6289,-4.6289,-4.6289,-4.6289,-4.6289,-4.6289,-4.6289,-4.6289,-4.6289,-4.6289,-4.6289,-4.6289,-4.6289,-4.6289,-4.6289,-4.6289,-4.6289,-4.6289,-4.6289,-4.6288,-4.6287,-4.6306,-4.6301,-4.6293,-4.6288,-4.6305,-4.6303,-4.6302,-4.6302,-4.6302,-4.6302,-4.6302,-4.6302,-4.6302,-4.6302,-4.6302,-4.6302,-4.6302,-4.6302,-4.6302,-4.6302,-4.6378,-4.6358,-4.6302,-4.6341,-4.6495,-4.671,-4.6885,-4.6944,-4.6749,-4.671,-4.669,-4.6885,-4.712,-4.7393,-4.7725,-4.7822,-4.792,-4.8096,-4.8271,-4.831,-4.8447,-4.8486,-4.8642,-4.8642,-4.8681,-4.8798,-4.8954,-4.9345,-4.9774,-4.9928,-5.0,-5.0091,-4.9557,-4.8981,-4.8824,-4.8759,-4.8896,-4.8983,-4.8502,-4.7976,-4.1109,-4.1207,-4.2259,-4.3099,-4.3803,-4.4855,-4.5695,-4.6243,-4.6303,-4.6305,-4.6306,-4.6293,-4.6299,-4.6301,-4.6301,-4.6301,-4.6303,-4.6303,-4.6304,-4.6305,-4.6305,-4.6305,-4.6305,-4.6305,-4.6305,-4.6289,-4.6288,-4.6288,-4.6288,-4.6306,-4.6306,-4.6288,-4.6288,-4.6289,-4.6289,-4.6289,-4.6289,-4.6289,-4.6289,-4.6289,-4.6289,-4.6289,-4.6289,-4.6289,-4.6289,-4.6289,-4.6289,-4.6289,-4.6289,-4.6289,-4.6289,-4.6289,-4.6289,-4.6289,-4.6288,-4.6289,-4.6268,-4.6249,-4.6267,-4.6284,-4.6294,-4.6306,-4.6302,-4.6302,-4.6302,-4.6302,-4.6302,-4.6302,-4.6302,-4.6302,-4.6302,-4.6302,-4.6302,-4.6302,-4.6302,-4.6417,-4.6573,-4.6729,-4.7042,-4.7471,-4.7705,-4.7803,-4.7705,-4.7315,-4.7159,-4.712,-4.7373,-4.782,-4.8211,-4.8603,-4.8564,-4.8603,-4.8974,-4.913,-4.9208,-4.9228,-4.9247,-4.9306,-4.9306,-4.9442,-4.9735,-4.9989,-5.0321,-5.075,-5.1043,-5.1002,-5.0761,-5.0057,-4.9467,-4.9764,-4.9939,-4.9682,-4.9508,-4.908,-4.8778,-4.1109,-4.1246,-4.2905,-4.3608,-4.3842,-4.55,-4.6223,-4.6303,-4.629,-4.6293,-4.6294,-4.6299,-4.6301,-4.6302,-4.6304,-4.6305,-4.6306,-4.6307,-4.6288,-4.6289,-4.6289,-4.6289,-4.6289,-4.6289,-4.6289,-4.6289,-4.6289,-4.6289,-4.6289,-4.6289,-4.6289,-4.6289,-4.6289,-4.6289,-4.6289,-4.6289,-4.6289,-4.6289,-4.6289,-4.6289,-4.6289,-4.6289,-4.6289,-4.6289,-4.6289,-4.6289,-4.6289,-4.6289,-4.6289,-4.6289,-4.6289,-4.6289,-4.6289,-4.6289,-4.6289,-4.6269,-4.6246,-4.6205,-4.6204,-4.6228,-4.6249,-4.628,-4.629,-4.6285,-4.6302,-4.6302,-4.6302,-4.6302,-4.6302,-4.6302,-4.6302,-4.6321,-4.6515,-4.6612,-4.6827,-4.7159,-4.7334,-4.749,-4.7842,-4.8427,-4.8681,-4.8738,-4.8935,-4.8642,-4.8096,-4.8017,-4.8349,-4.8796,-4.9013,-4.9306,-4.915,-4.9228,-4.9733,-4.9967,-5.0104,-5.0182,-5.0321,-5.0418,-5.0438,-5.0672,-5.0945,-5.116,-5.1004,-5.1121,-5.1258,-5.1336,-5.1355,-5.0785,-5.0547,-5.1011,-5.1076,-5.0605,-5.0348,-5.0112,-4.9812,-4.1109,-4.1265,-4.297,-4.371,-4.3842,-4.5565,-4.6288,-4.629,-4.6296,-4.6301,-4.6303,-4.6305,-4.6306,-4.6289,-4.6289,-4.6288,-4.6289,-4.6289,-4.6289,-4.6289,-4.6289,-4.6289,-4.6289,-4.6289,-4.6289,-4.6289,-4.6289,-4.6289,-4.6289,-4.6289,-4.6289,-4.6289,-4.6289,-4.6289,-4.6289,-4.6289,-4.6289,-4.6289,-4.6289,-4.6289,-4.6289,-4.6289,-4.6289,-4.6289,-4.6289,-4.6289,-4.6289,-4.6289,-4.6289,-4.6289,-4.6289,-4.6289,-4.6289,-4.6289,-4.6269,-4.6241,-4.6209,-4.6173,-4.6138,-4.6154,-4.6158,-4.623,-4.6248,-4.6242,-4.6288,-4.6302,-4.6302,-4.6302,-4.636,-4.6417,-4.6358,-4.6788,-4.7178,-4.7237,-4.7471,-4.7842,-4.8154,-4.8308,-4.8584,-4.915,-4.944,-4.9616,-4.987,-5.0087,-4.9462,-4.8993,-4.9364,-4.9714,-4.9911,-5.0087,-4.9989,-4.995,-5.0418,-5.0651,-5.0748,-5.1063,-5.1394,-5.1394,-5.1394,-5.1394,-5.1394,-5.1375,-5.1277,-5.1375,-5.1394,-5.1394,-5.1394,-5.1394,-5.1392,-5.1388,-5.1381,-5.1272,-5.1115,-5.0975,-5.0685,-4.1112,-4.1309,-4.2975,-4.3696,-4.3944,-4.5552,-4.6296,-4.6296,-4.6301,-4.6306,-4.6288,-4.6288,-4.6289,-4.6289,-4.6289,-4.6289,-4.6289,-4.6289,-4.6289,-4.6289,-4.6289,-4.6289,-4.6289,-4.6289,-4.6289,-4.6289,-4.6289,-4.6289,-4.6289,-4.6289,-4.6289,-4.6289,-4.6289,-4.6289,-4.6289,-4.6289,-4.6289,-4.6289,-4.6289,-4.6289,-4.6289,-4.6289,-4.6289,-4.6289,-4.6289,-4.6289,-4.6289,-4.6289,-4.6289,-4.6289,-4.6289,-4.6289,-4.6289,-4.6269,-4.6238,-4.6197,-4.6167,-4.6157,-4.6114,-4.6083,-4.6099,-4.6165,-4.619,-4.621,-4.6261,-4.6327,-4.6378,-4.6788,-4.6749,-4.6749,-4.6887,-4.7647,-4.7959,-4.8017,-4.8174,-4.8525,-4.8954,-4.9226,-4.9501,-4.9852,-5.0145,-5.0475,-5.0553,-5.077,-5.0516,-5.0067,-5.0301,-5.0575,-5.0731,-5.0887,-5.0984,-5.0984,-5.1121,-5.1258,-5.1375,-5.1394,-5.1394,-5.1394,-5.1394,-5.1394,-5.1394,-5.1394,-5.1394,-5.1394,-5.1394,-5.1394,-5.1394,-5.1394,-5.1394,-5.1394,-5.1386,-5.1399,-5.1352,-5.1196,-5.1213,-4.1117,-4.1314,-4.2979,-4.3721,-4.3972,-4.5577,-4.6301,-4.6302,-4.6306,-4.6288,-4.6289,-4.6289,-4.6289,-4.6289,-4.6289,-4.6289,-4.6289,-4.6289,-4.6289,-4.6289,-4.6289,-4.6289,-4.6289,-4.6289,-4.6289,-4.6289,-4.6289,-4.6289,-4.6289,-4.6289,-4.6289,-4.6289,-4.6289,-4.6289,-4.6289,-4.6289,-4.6289,-4.6289,-4.6289,-4.6289,-4.6289,-4.6289,-4.6289,-4.6289,-4.6289,-4.6289,-4.6289,-4.6289,-4.6289,-4.6289,-4.6289,-4.6269,-4.6234,-4.6368,-4.6364,-4.6248,-4.6249,-4.6202,-4.6109,-4.6135,-4.6293,-4.6381,-4.6524,-4.6653,-4.6426,-4.646,-4.6841,-4.7453,-4.7541,-4.7906,-4.8332,-4.872,-4.8759,-4.8896,-4.9052,-4.9403,-4.9872,-5.0065,-5.0321,-5.0457,-5.0926,-5.1336,-5.1316,-5.1316,-5.1297,-5.1199,-5.1316,-5.1394,-5.1394,-5.1394,-5.1394,-5.1394,-5.1394,-5.1394,-5.1394,-5.1394,-5.1394,-5.1394,-5.1394,-5.1394,-5.1394,-5.1394,-5.1394,-5.1394,-5.1394,-5.1394,-5.1394,-5.1394,-5.1394,-5.1394,-5.1394,-5.1388,-5.1401,-5.1394,-5.1358,-4.1433,-4.2062,-4.3218,-4.402,-4.4663,-4.5797,-4.6306,-4.6306,-4.6288,-4.6289,-4.6289,-4.6289,-4.6289,-4.6289,-4.6289,-4.6289,-4.6289,-4.6289,-4.6289,-4.6289,-4.6289,-4.6289,-4.6289,-4.6289,-4.6289,-4.6289,-4.6289,-4.6289,-4.6289,-4.6289,-4.6289,-4.6289,-4.6289,-4.6289,-4.6289,-4.6289,-4.6289,-4.6289,-4.6289,-4.6289,-4.6289,-4.6289,-4.6289,-4.6289,-4.6289,-4.6328,-4.6387,-4.6406,-4.6445,-4.6484,-4.6523,-4.6445,-4.6495,-4.6661,-4.6972,-4.704,-4.7157,-4.7641,-4.7611,-4.7603,-4.737,-4.7242,-4.7315,-4.7594,-4.7773,-4.7824,-4.8075,-4.8203,-4.8339,-4.861,-4.8754,-4.9407,-4.9638,-4.9833,-5.0085,-5.0575,-5.0945,-5.0945,-5.1043,-5.1082,-5.1375,-5.1394,-5.1394,-5.1394,-5.1394,-5.1394,-5.1394,-5.1394,-5.1394,-5.1394,-5.1394,-5.1394,-5.1394,-5.1394,-5.1394,-5.1394,-5.1394,-5.1394,-5.1394,-5.1394,-5.1394,-5.1394,-5.1394,-5.1394,-5.1394,-5.1394,-5.1394,-5.1394,-5.1394,-5.1394,-5.1394,-5.1394,-5.139,-5.1386,-5.1381,-4.1615,-4.2477,-4.3338,-4.4198,-4.5058,-4.5937,-4.6288,-4.6288,-4.6289,-4.6289,-4.6289,-4.6289,-4.6289,-4.6289,-4.6289,-4.6289,-4.6289,-4.6289,-4.6289,-4.6289,-4.6289,-4.6289,-4.6289,-4.6289,-4.6289,-4.6289,-4.6289,-4.6289,-4.6289,-4.6289,-4.6289,-4.6289,-4.6289,-4.6289,-4.6289,-4.6289,-4.6289,-4.6289,-4.6289,-4.6289,-4.6289,-4.6289,-4.6289,-4.6289,-4.6348,-4.6445,-4.666,-4.6777,-4.6855,-4.699,-4.7083,-4.705,-4.7192,-4.7418,-4.7754,-4.7889,-4.8037,-4.8399,-4.8312,-4.8716,-4.8464,-4.8256,-4.8513,-4.855,-4.8573,-4.8434,-4.8735,-4.8935,-4.9101,-4.9388,-4.9687,-5.031,-5.0454,-5.0649,-5.0814,-5.1283,-5.1316,-5.1297,-5.1297,-5.1375,-5.1394,-5.1394,-5.1394,-5.1394,-5.1394,-5.1394,-5.1394,-5.1394,-5.1394,-5.1394,-5.1394,-5.1394,-5.1394,-5.1394,-5.1394,-5.1394,-5.1394,-5.1394,-5.1394,-5.1394,-5.1394,-5.1394,-5.1394,-5.1394,-5.1394,-5.1394,-5.1394,-5.1394,-5.1394,-5.1394,-5.1394,-5.1394,-5.1394,-5.1392,-5.139,-4.1619,-4.2518,-4.334,-4.4238,-4.5137,-4.5976,-4.6289,-4.6289,-4.6289,-4.6289,-4.6289,-4.6289,-4.6289,-4.6289,-4.6289,-4.6289,-4.6289,-4.6289,-4.6289,-4.6289,-4.6289,-4.6289,-4.6289,-4.6289,-4.6289,-4.6289,-4.6289,-4.6289,-4.6289,-4.6289,-4.6289,-4.6289,-4.6289,-4.6289,-4.6289,-4.6289,-4.6289,-4.6289,-4.6289,-4.6289,-4.6289,-4.6445,-4.6543,-4.6601,-4.6719,-4.709,-4.7383,-4.7598,-4.7916,-4.82,-4.8498,-4.8467,-4.8482,-4.8497,-4.8477,-4.8539,-4.8626,-4.8728,-4.8902,-4.9494,-4.9649,-4.9424,-4.9065,-4.881,-4.8832,-4.9104,-4.9434,-4.9767,-4.997,-5.0466,-5.093,-5.1025,-5.1152,-5.1207,-5.1255,-5.1385,-5.1379,-5.1377,-5.1375,-5.1394,-5.1394,-5.1394,-5.1394,-5.1394,-5.1394,-5.1394,-5.1394,-5.1394,-5.1394,-5.1394,-5.1394,-5.1394,-5.1394,-5.1394,-5.1394,-5.1394,-5.1394,-5.1394,-5.1394,-5.1394,-5.1394,-5.1394,-5.1394,-5.1394,-5.1394,-5.1394,-5.1394,-5.1394,-5.1394,-5.1394,-5.1394,-5.1394,-5.1394,-5.1394,-5.1392,-4.1972,-4.332,-4.3594,-4.4551,-4.5859,-4.6191,-4.6289,-4.6289,-4.6289,-4.6289,-4.6289,-4.6289,-4.6289,-4.6289,-4.6289,-4.6289,-4.6289,-4.6289,-4.6289,-4.6289,-4.6289,-4.6289,-4.6289,-4.6289,-4.6289,-4.6289,-4.6289,-4.6289,-4.6289,-4.6289,-4.6289,-4.6289,-4.6289,-4.6289,-4.6289,-4.6308,-4.6348,-4.6387,-4.6426,-4.6426,-4.6621,-4.6933,-4.7048,-4.7215,-4.7599,-4.8002,-4.8237,-4.8345,-4.8577,-4.8662,-4.8691,-4.8591,-4.8519,-4.9048,-4.9505,-5.0136,-5.021,-5.0229,-5.0248,-5.0395,-5.0492,-5.0473,-5.0192,-5.0269,-5.0227,-5.0144,-5.0267,-5.0456,-5.061,-5.0969,-5.1143,-5.1238,-5.1327,-5.1366,-5.138,-5.139,-5.1384,-5.14,-5.1398,-5.1394,-5.1394,-5.1394,-5.1394,-5.1394,-5.1394,-5.1394,-5.1394,-5.1394,-5.1394,-5.1394,-5.1394,-5.1394,-5.1394,-5.1394,-5.1394,-5.1394,-5.1394,-5.1394,-5.1394,-5.1394,-5.1394,-5.1394,-5.1394,-5.1394,-5.1394,-5.1394,-5.1394,-5.1394,-5.1394,-5.1394,-5.1394,-5.1394,-5.1394,-5.1394,-5.1394,-4.2422,-4.3672,-4.4082,-4.5019,-4.6172,-4.6289,-4.6289,-4.6289,-4.6289,-4.6289,-4.6289,-4.6289,-4.6289,-4.6289,-4.6289,-4.6289,-4.6289,-4.6289,-4.6289,-4.6289,-4.6289,-4.6289,-4.6289,-4.6289,-4.6289,-4.6289,-4.6289,-4.6289,-4.6289,-4.6289,-4.6289,-4.6289,-4.6289,-4.6289,-4.6387,-4.6641,-4.6836,-4.6855,-4.6836,-4.6795,-4.7106,-4.7572,-4.7868,-4.8052,-4.8549,-4.8773,-4.9091,-4.9099,-4.9223,-4.9508,-4.9596,-4.9545,-4.9511,-5.0015,-5.028,-5.077,-5.0763,-5.0743,-5.0724,-5.0782,-5.0879,-5.0898,-5.0906,-5.0874,-5.0879,-5.0791,-5.0868,-5.0992,-5.1092,-5.1223,-5.1252,-5.1297,-5.1325,-5.1367,-5.1384,-5.1395,-5.139,-5.1385,-5.1402,-5.1396,-5.1394,-5.1394,-5.1394,-5.1394,-5.1394,-5.1394,-5.1394,-5.1394,-5.1394,-5.1394,-5.1394,-5.1394,-5.1394,-5.1394,-5.1433,-5.157,-5.1609,-5.159,-5.1394,-5.1394,-5.1414,-5.1453,-5.1531,-5.1472,-5.1394,-5.1492,-5.1687,-5.1453,-5.1394,-5.1453,-5.1492,-5.1433,-5.1433,-5.1394,-5.1394,-4.2891,-4.3789,-4.4707,-4.5547,-4.623,-4.6289,-4.6289,-4.6289,-4.6289,-4.6289,-4.6289,-4.6289,-4.6289,-4.6289,-4.6289,-4.6289,-4.6289,-4.6289,-4.6289,-4.6289,-4.6289,-4.6289,-4.6289,-4.6289,-4.6289,-4.6289,-4.6289,-4.6289,-4.6289,-4.6289,-4.6289,-4.6308,-4.6289,-4.6367,-4.6641,-4.709,-4.7374,-4.7606,-4.7753,-4.7875,-4.7858,-4.8274,-4.8786,-4.874,-4.8958,-4.9218,-4.9759,-5.0081,-5.0301,-5.0792,-5.0991,-5.0816,-5.0761,-5.0728,-5.0828,-5.0867,-5.0898,-5.0898,-5.0898,-5.0898,-5.0898,-5.0906,-5.0914,-5.0976,-5.1037,-5.1063,-5.1087,-5.1127,-5.1203,-5.1226,-5.1269,-5.1317,-5.1346,-5.1367,-5.1386,-5.1401,-5.1398,-5.1394,-5.1385,-5.14,-5.1396,-5.1396,-5.1394,-5.1394,-5.1394,-5.1394,-5.1394,-5.1394,-5.1668,-5.1668,-5.157,-5.159,-5.1746,-5.1824,-5.1882,-5.198,-5.196,-5.1863,-5.1785,-5.1941,-5.2331,-5.2097,-5.1687,-5.1999,-5.2351,-5.2038,-5.2019,-5.2058,-5.2038,-5.1765,-5.1746,-5.155,-5.1492,-5.1511,-5.1394,-4.291,-4.3828,-4.5351,-4.6133,-4.6289,-4.6289,-4.6289,-4.6289,-4.6289,-4.6289,-4.6289,-4.6289,-4.6289,-4.6289,-4.6289,-4.6289,-4.6289,-4.6289,-4.6289,-4.6289,-4.6289,-4.6289,-4.6289,-4.6289,-4.6289,-4.6289,-4.6289,-4.6289,-4.6289,-4.6289,-4.6308,-4.6348,-4.6387,-4.6601,-4.7188,-4.7655,-4.7949,-4.8344,-4.8916,-4.8889,-4.8642,-4.9102,-4.959,-4.9732,-4.9948,-5.0272,-5.0636,-5.0635,-5.0731,-5.094,-5.0959,-5.0917,-5.0887,-5.0898,-5.0898,-5.0898,-5.0898,-5.0898,-5.0906,-5.0914,-5.0929,-5.0947,-5.0983,-5.105,-5.1087,-5.108,-5.1111,-5.1174,-5.1232,-5.1263,-5.1288,-5.1337,-5.1367,-5.1387,-5.1386,-5.1386,-5.1384,-5.1398,-5.139,-5.1385,-5.14,-5.1416,-5.1433,-5.1453,-5.1394,-5.1394,-5.1394,-5.157,-5.2214,-5.2409,-5.2117,-5.2117,-5.2351,-5.245,-5.2487,-5.2605,-5.2702,-5.2936,-5.3034,-5.3171,-5.3268,-5.3014,-5.278,-5.321,-5.3463,-5.3053,-5.2936,-5.3346,-5.321,-5.2605,-5.2351,-5.2312,-5.1921,-5.1804,-5.157,-4.3496,-4.4414,-4.5723,-4.6289,-4.6289,-4.6289,-4.6289,-4.6289,-4.6289,-4.6289,-4.6289,-4.6289,-4.6289,-4.6289,-4.6289,-4.6289,-4.6289,-4.6289,-4.6289,-4.6289,-4.6289,-4.6289,-4.6289,-4.6289,-4.6289,-4.6289,-4.6289,-4.6289,-4.6289,-4.6308,-4.6328,-4.6691,-4.6822,-4.7155,-4.792,-4.8304,-4.8665,-4.9163,-4.9985,-4.9999,-4.957,-5.0056,-5.0351,-5.0565,-5.068,-5.0966,-5.0952,-5.0898,-5.0898,-5.0898,-5.0914,-5.0914,-5.0898,-5.0898,-5.0898,-5.0898,-5.0898,-5.0898,-5.0921,-5.0959,-5.0988,-5.1017,-5.1072,-5.1147,-5.1203,-5.1214,-5.1214,-5.1266,-5.1322,-5.1338,-5.1338,-5.1386,-5.1387,-5.1387,-5.1387,-5.1386,-5.1385,-5.14,-5.1394,-5.1389,-5.1499,-5.1709,-5.1804,-5.2136,-5.2214,-5.278,-5.2585,-5.2487,-5.3014,-5.3309,-5.2956,-5.2878,-5.3249,-5.3307,-5.3307,-5.3463,-5.362,-5.3873,-5.4186,-5.3932,-5.3776,-5.3854,-5.3951,-5.4127,-5.4127,-5.3854,-5.3893,-5.4225,-5.401,-5.3385,-5.3229,-5.3171,-5.2702,-5.2312,-5.2273,-4.4258,-4.5234,-4.5976,-4.6289,-4.6289,-4.6289,-4.6289,-4.6289,-4.6289,-4.6289,-4.6289,-4.6289,-4.6289,-4.6289,-4.6289,-4.6289,-4.6289,-4.6289,-4.6289,-4.6289,-4.6289,-4.6289,-4.6289,-4.6289,-4.6289,-4.6289,-4.6269,-4.6269,-4.6269,-4.6429,-4.6813,-4.735,-4.7671,-4.7915,-4.8725,-4.9355,-4.9766,-5.0012,-5.0513,-5.0875,-5.0939,-5.0984,-5.0886,-5.0874,-5.0898,-5.0898,-5.0898,-5.0898,-5.0898,-5.0898,-5.0898,-5.0898,-5.0898,-5.0898,-5.0898,-5.0898,-5.0898,-5.0921,-5.0959,-5.103,-5.1063,-5.1103,-5.1185,-5.1232,-5.1277,-5.1332,-5.1334,-5.1367,-5.1423,-5.1445,-5.1445,-5.1426,-5.1426,-5.1523,-5.1523,-5.1621,-5.1641,-5.1719,-5.1789,-5.1783,-5.1973,-5.222,-5.2472,-5.2804,-5.321,-5.3815,-5.4068,-5.4108,-5.4147,-5.4244,-5.4147,-5.4264,-5.4615,-5.4556,-5.4264,-5.4459,-5.4693,-5.483,-5.5044,-5.4615,-5.442,-5.481,-5.4908,-5.4674,-5.4615,-5.4693,-5.4693,-5.4888,-5.4537,-5.4225,-5.4147,-5.4029,-5.3561,-5.3249,-5.3268,-4.4629,-4.6074,-4.625,-4.6289,-4.6289,-4.6289,-4.6289,-4.6289,-4.6289,-4.6289,-4.6289,-4.6289,-4.6289,-4.6289,-4.6289,-4.6289,-4.6289,-4.6289,-4.6289,-4.6289,-4.6289,-4.6289,-4.6289,-4.6269,-4.6289,-4.6269,-4.6242,-4.6233,-4.6479,-4.685,-4.7184,-4.7512,-4.8222,-4.8729,-4.9432,-4.992,-5.0163,-5.0486,-5.0702,-5.0937,-5.0937,-5.0937,-5.0929,-5.0906,-5.0898,-5.0898,-5.0898,-5.0898,-5.0898,-5.0898,-5.0898,-5.0898,-5.0898,-5.0906,-5.0906,-5.0944,-5.0937,-5.0983,-5.103,-5.1086,-5.1114,-5.1125,-5.1194,-5.1239,-5.1318,-5.1441,-5.1465,-5.1532,-5.158,-5.1621,-5.1621,-5.1582,-5.1582,-5.1894,-5.2012,-5.2324,-5.248,-5.2891,-5.32,-5.3196,-5.327,-5.344,-5.3572,-5.3783,-5.3856,-5.4283,-5.44,-5.4498,-5.5005,-5.5162,-5.5259,-5.5493,-5.5767,-5.5571,-5.524,-5.565,-5.5884,-5.5979,-5.594,-5.5608,-5.5611,-5.6059,-5.6079,-5.5591,-5.5747,-5.5981,-5.5921,-5.5552,-5.5454,-5.5201,-5.5103,-5.4908,-5.4459,-5.4205,-5.4244]},{"header":{"parameterUnit":"m.s-1","parameterCategory":1,"la1":31.0,"la2":29.5877,"lo1":-88.7671,"lo2":-86.6584,"dx":0.0162,"dy":0.0185,"nx":115,"ny":88,"refTime":"2023-01-29T06:00:00:Z","depth":0,"parameterNumber":3,"parameterNumberName":"V-component_of_WINDS"},"data":[0.0,0.0,0.0,0.0,0.0,0.0,0.0,0.0,0.0,0.0,0.0,0.0,0.0,0.0,0.0,0.0,0.0,0.0,0.0,0.0,0.0,0.0,0.0,0.0,0.0,0.0,0.0,0.0,0.0,0.0,0.0,0.0,0.0,0.0,0.0,0.0,0.0,0.0,0.0,0.0,0.0,0.0,0.0,0.0,0.0,0.0,0.0,0.0,0.0,0.0,0.0,0.0,0.0,0.0,0.0,0.0,0.0,0.0,0.0,0.0,0.0,0.0,0.0,0.0,0.0,0.0,0.0,0.0,0.0,0.0,0.0,0.0,0.0,0.0,0.0,0.0,0.0,0.0,0.0,0.0,0.0,0.0,0.0,0.0,0.0,0.0,0.0,0.0,0.0,0.0,0.0,0.0,0.0,0.0,0.0,0.0,0.0,0.0,0.0,0.0,0.0,0.0,0.0,0.0,0.0,0.0,0.0,0.0,0.0,0.0,0.0,0.0,0.0,0.0,0.0,0.0,0.0,0.0,0.0,0.0,0.0,0.0,0.0,0.0,0.0,0.0,0.0,0.0,0.0,0.0,0.0,0.0,0.0,0.0,0.0,0.0,0.0,0.0,0.0,0.0,0.0,0.0,0.0,0.0,0.0,0.0,0.0,0.0,0.0,0.0,0.0,0.0,0.0,0.0,0.0,0.0,0.0,0.0,0.0,0.0,0.0,0.0,0.0,0.0,0.0,0.0,0.0,0.0,0.0,0.0,0.0,0.0,0.0,0.0,0.0,0.0,0.0,0.0,0.0,0.0,0.0,0.0,0.0,0.0,0.0,0.0,0.0,0.0,0.0,0.0,0.0,0.0,0.0,0.0,0.0,0.0,0.0,0.0,0.0,0.0,0.0,0.0,0.0,0.0,0.0,0.0,0.0,0.0,0.0,0.0,0.0,0.0,0.0,0.0,0.0,0.0,0.0,0.0,0.0,0.0,0.0,0.0,0.0,0.0,0.0,0.0,0.0,0.0,0.0,0.0,0.0,0.0,0.0,0.0,0.0,0.0,0.0,0.0,0.0,0.0,0.0,0.0,0.0,0.0,0.0,0.0,0.0,0.0,0.0,0.0,0.0,0.0,0.0,0.0,0.0,0.0,0.0,0.0,0.0,0.0,0.0,0.0,0.0,0.0,0.0,0.0,0.0,0.0,0.0,0.0,0.0,0.0,0.0,0.0,0.0,0.0,0.0,0.0,0.0,0.0,0.0,0.0,0.0,0.0,0.0,0.0,0.0,0.0,0.0,0.0,0.0,0.0,0.0,0.0,0.0,0.0,0.0,0.0,0.0,0.0,0.0,0.0,0.0,0.0,0.0,0.0,0.0,0.0,0.0,0.0,0.0,0.0,0.0,0.0,0.0,0.0,0.0,0.0,0.0,0.0,0.0,0.0,0.0,0.0,0.0,0.0,0.0,0.0,0.0,0.0,0.0,0.0,0.0,0.0,0.0,0.0,0.0,0.0,0.0,0.0,0.0,0.0,0.0,0.0,0.0,0.0,0.0,0.0,0.0,0.0,0.0,0.0,0.0,0.0,0.0,0.0,0.0,0.0,0.0,0.0,0.0,0.0,0.0,0.0,0.0,0.0,0.0,0.0,0.0,0.0,0.0,0.0,0.0,0.0,0.0,0.0,0.0,0.0,0.0,0.0,0.0,0.0,0.0,0.0,0.0,0.0,0.0,0.0,0.0,0.0,0.0,0.0,0.0,0.0,0.0,0.0,0.0,0.0,0.0,0.0,0.0,0.0,0.0,0.0,0.0,0.0,0.0,0.0,0.0,0.0,0.0,0.0,0.0,0.0,0.0,0.0,0.0,0.0,0.0,0.0,0.0,0.0,0.0,0.0,0.0,0.0,0.0,0.0,0.0,0.0,0.0,0.0,0.0,0.0,0.0,0.0,0.0,0.0,0.0,0.0,0.0,0.0,0.0,0.0,0.0,0.0,0.0,0.0,0.0,0.0,0.0,0.0,0.0,0.0,0.0,0.0,0.0,0.0,0.0,0.0,0.0,0.0,0.0,0.0,0.0,0.0,0.0,0.0,0.0,0.0,0.0,0.0,0.0,0.0,0.0,0.0,0.0,0.0,0.0,0.0,0.0,0.0,0.0,0.0,0.0,0.0,0.0,0.0,0.0,0.0,0.0,0.0,0.0,0.0,0.0,0.0,0.0,0.0,0.0,0.0,0.0,0.0,0.0,0.0,0.0,0.0,0.0,0.0,0.0,0.0,0.0,0.0,0.0,0.0,0.0,0.0,0.0,0.0,0.0,0.0,0.0,0.0,0.0,0.0,0.0,0.0,0.0,0.0,0.0,0.0,0.0,0.0,0.0,0.0,0.0,0.0,0.0,0.0,0.0,0.0,0.0,0.0,0.0,0.0,0.0,0.0,0.0,0.0,0.0,0.0,0.0,0.0,0.0,0.0,0.0,0.0,0.0,0.0,0.0,0.0,0.0,0.0,0.0,0.0,0.0,0.0,0.0,0.0,0.0,0.0,0.0,0.0,0.0,0.0,0.0,0.0,0.0,0.0,0.0,0.0,0.0,0.0,0.0,0.0,0.0,0.0,0.0,0.0,0.0,0.0,0.0,0.0,0.0,0.0,0.0,0.0,0.0,0.0,0.0,0.0,0.0,0.0,0.0,0.0,0.0,0.0,0.0,0.0,0.0,0.0,0.0,0.0,0.0,0.0,0.0,0.0,0.0,0.0,0.0,0.0,0.0,0.0,0.0,0.0,0.0,0.0,0.0,0.0,0.0,0.0,0.0,0.0,0.0,0.0,0.0,0.0,0.0,0.0,0.0,0.0,0.0,0.0,0.0,0.0,0.0,0.0,0.0,0.0,0.0,0.0,0.0,0.0,0.0,0.0,0.0,0.0,0.0,0.0,0.0,0.0,0.0,0.0,0.0,0.0,0.0,0.0,0.0,0.0,0.0,0.0,0.0,0.0,0.0,0.0,0.0,0.0,0.0,0.0,0.0,0.0,0.0,0.0,0.0,0.0,0.0,0.0,0.0,0.0,0.0,0.0,0.0,0.0,0.0,0.0,0.0,0.0,0.0,0.0,0.0,0.0,0.0,0.0,0.0,0.0,0.0,0.0,0.0,0.0,0.0,0.0,0.0,0.0,0.0,0.0,0.0,0.0,0.0,0.0,0.0,0.0,0.0,0.0,0.0,0.0,0.0,0.0,0.0,0.0,0.0,0.0,0.0,0.0,0.0,0.0,0.0,0.0,0.0,0.0,0.0,0.0,0.0,0.0,0.0,0.0,0.0,0.0,0.0,0.0,0.0,0.0,0.0,0.0,0.0,0.0,0.0,0.0,0.0,0.0,0.0,0.0,0.0,0.0,0.0,0.0,0.0,0.0,0.0,0.0,0.0,0.0,0.0,0.0,0.0,0.0,0.0,0.0,0.0,0.0,0.0,0.0,0.0,0.0,0.0,0.0,0.0,0.0,0.0,0.0,0.0,0.0,0.0,0.0,0.0,0.0,0.0,0.0,0.0,0.0,0.0,0.0,0.0,0.0,0.0,0.0,0.0,0.0,0.0,0.0,0.0,0.0,0.0,0.0,0.0,0.0,0.0,0.0,0.0,0.0,0.0,0.0,0.0,0.0,0.0,0.0,0.0,0.0,0.0,0.0,0.0,0.0,0.0,0.0,0.0,0.0,0.0,0.0,0.0,0.0,0.0,0.0,0.0,0.0,0.0,0.0,0.0,0.0,0.0,0.0,0.0,0.0,0.0,0.0,0.0,0.0,0.0,0.0,0.0,0.0,0.0,0.0,0.0,0.0,0.0,0.0,0.0,0.0,0.0,0.0,0.0,0.0,0.0,0.0,0.0,0.0,0.0,0.0,0.0,0.0,0.0,0.0,0.0,0.0,0.0,0.0,0.0,0.0,0.0,0.0,0.0,0.0,0.0,0.0,0.0,0.0,0.0,0.0,0.0,0.0,0.0,0.0,0.0,0.0,0.0,0.0,0.0,0.0,0.0,0.0,0.0,0.0,0.0,0.0,0.0,0.0,0.0,0.0,0.0,0.0,0.0,0.0,0.0,0.0,0.0,0.0,0.0,0.0,0.0,0.0,0.0,0.0,0.0,0.0,0.0,0.0,0.0,0.0,0.0,0.0,0.0,0.0,0.0,0.0,0.0,0.0,0.0,0.0,0.0,0.0,0.0,0.0,0.0,0.0,0.0,0.0,0.0,0.0,0.0,0.0,0.0,0.0,0.0,0.0,0.0,0.0,0.0,0.0,0.4725,0.0,0.0,0.0,0.0,0.0,0.0,0.0,0.0,0.0,0.0,0.0,0.0,0.0,0.0,0.0,0.0,0.0,0.0,0.0,0.0,0.0,0.0,0.0,0.0,0.0,0.0,0.0,0.0,0.0,0.0,0.0,0.0,0.0,0.0,0.0,0.0,0.0,0.0,0.0,0.0,0.0,0.0,0.0,0.0,0.0,0.0,0.0,0.0,0.0,0.0,0.0,0.0,0.0,0.0,0.0,0.0,0.0,0.0,0.0,0.0,0.0,0.0,0.0,0.0,0.0,0.0,0.0,0.0,0.0,0.0,0.0,0.0,0.0,0.0,0.0,0.0,0.0,0.0,0.0,0.0,0.0,0.0,0.0,0.0,0.0,0.0,0.0,0.0,0.0,0.0,0.0,0.0,0.0,0.0,0.0,0.0,0.0,0.0,0.0,0.0,0.0,0.0,0.0,0.0,0.0,0.0,0.0,0.0,0.0,0.0,0.3636,0.3604,0.45,0.4934,0.476,0.0,0.0,0.0,0.0,0.0,0.0,0.0,0.0,0.0,0.0,0.0,0.0,0.0,0.0,0.0,0.0,0.0,0.0,0.0,0.0,0.0,0.0,0.0,0.0,0.0,0.0,0.0,0.0,0.0,0.0,0.0,0.0,0.0,0.0,0.0,0.0,0.0,0.0,0.0,0.0,0.0,0.0,0.0,0.0,0.0,0.0,0.0,0.0,0.0,0.0,0.0,0.0,0.0,0.0,0.0,0.0,0.0,0.0,0.0,0.0,0.0,0.0,0.0,0.0,0.0,0.0,0.0,0.0,0.0,0.0,0.0,0.0,0.0,0.0,0.0,0.0,0.0,0.0,0.0,0.0,0.0,0.0,0.0,0.0,0.0,0.0,0.0,0.0,0.0,0.0,0.0,0.0,0.0,0.0,0.0,0.0,0.0,0.0,0.0,0.0,0.0,0.0,0.0,0.0,0.0,0.0,0.0,0.0,0.0,0.0,0.0,0.0,0.4542,0.4944,0.4766,0.0,0.0,0.0,0.0,0.0,0.0,0.0,0.0,0.0,0.0,0.0,0.0,0.0,0.0,0.0,0.0,0.0,0.0,0.0,0.0,0.0,0.0,0.0,0.0,0.0,0.0,0.0,0.0,0.0,0.0,0.0,0.0,0.0,0.0,0.0,0.0,0.0,0.0,0.0,0.0,0.0,0.0,0.0,0.0,0.0,0.0,0.0,0.0,0.0,0.0,0.0,0.0,0.0,0.0,0.0,0.0,0.0,0.0,0.0,0.0,0.0,0.0,0.0,0.0,0.0,0.0,0.0,0.0,0.0,0.0,0.0,0.0,0.0,0.0,0.0,0.0,0.0,0.0,0.0,0.0,0.0,0.0,0.0,0.0,0.0,0.0,0.0,0.0,0.0,0.0,0.0,0.0,0.0,0.0,0.0,0.0,0.0,0.0,0.0,0.0,0.0,0.0,0.0,0.0,0.0,0.0,0.0,0.0,0.0,0.0,0.3743,0.3826,0.4577,0.0,0.4728,0.0,0.0,0.0,0.0,0.0,0.0,0.0,0.0,0.0,0.0,0.0,0.0,0.0,0.0,0.0,0.0,0.0,0.0,0.0,0.0,0.0,0.0,0.0,0.0,0.0,0.0,0.0,0.0,0.0,0.0,0.0,0.0,0.0,0.0,0.0,0.0,0.0,0.0,0.0,0.0,0.0,0.0,0.0,0.0,0.0,0.0,0.0,0.0,0.0,0.0,0.0,0.0,0.0,0.0,0.0,0.0,0.0,0.0,0.0,0.0,0.0,0.0,0.0,0.0,0.0,0.0,0.0,0.0,0.0,0.0,0.0,0.0,0.0,0.0,0.0,0.0,0.0,0.0,0.0,0.0,0.0,0.0,0.0,0.0,0.0,0.0,0.0,0.0,0.0,0.0,0.0,0.0,0.0,0.0,0.0,0.0,0.0,0.0,0.0,0.0,0.0,0.0,0.0,0.0,0.0,0.0,0.0,0.0,0.0,0.0,0.376,0.4029,0.4252,0.4323,0.0,0.0,0.0,0.0,0.0,0.0,0.0,0.0,0.0,0.0,0.0,0.0,0.0,0.0,0.0,0.0,0.0,0.0,0.0,0.0,0.0,0.0,0.0,0.0,0.0,0.0,0.0,0.0,0.0,0.0,0.0,0.0,0.0,0.0,0.0,0.0,0.0,0.0,0.0,0.0,0.0,0.0,0.0,0.0,0.0,0.0,0.0,0.0,0.0,0.0,0.0,0.0,0.0,0.0,0.0,0.0,0.0,0.0,0.0,0.0,0.0,0.0,0.0,0.0,0.0,0.0,0.0,0.0,0.0,0.0,0.0,0.0,0.0,0.0,0.0,0.0,0.0,0.0,0.0,0.0,0.0,0.0,0.0,0.0,0.0,0.0,0.0,0.0,0.0,0.0,0.0,0.0,0.0,0.0,0.0,0.0,0.0,0.0,0.0,0.0,0.0,0.0,0.0,0.0,0.0,0.0,0.0,0.0,0.0,0.0,0.326,0.3628,0.3996,0.387,0.3813,0.3916,0.0,0.0,0.0,0.0,0.0,0.0,0.0,0.0,0.0,0.0,0.0,0.0,0.0,0.0,0.0,0.0,0.0,0.0,0.0,0.0,0.0,0.0,0.0,0.0,0.0,0.0,0.0,0.0,0.0,0.0,0.0,0.0,0.0,0.0,0.0,0.0,0.0,0.0,0.0,0.0,0.0,0.0,0.0,0.0,0.0,0.0,0.0,0.0,0.0,0.0,0.0,0.0,0.0,0.0,0.0,0.0,0.0,0.0,0.0,0.0,0.0,0.0,0.0,0.0,0.0,0.0,0.0,0.0,0.0,0.0,0.0,0.0,0.0,0.0,0.0,0.0,0.0,0.0,0.0,0.0,0.0,0.0,0.0,0.0,0.0,0.0,0.0,0.0,0.0,0.0,0.0,0.0,0.0,0.0,0.0,0.0,0.0,0.0,0.0,0.0,0.0,0.0,0.0,0.0,0.0,0.0,0.0,0.0,0.2459,0.2808,0.3243,0.36,0.3518,0.3572,0.0,0.0,0.0,0.0,0.0,0.0,0.0,0.0,0.0,0.0,0.0,0.0,0.0,0.0,0.0,0.0,0.0,0.0,0.0,0.0,0.0,0.0,0.0,0.0,0.0,0.0,0.0,0.0,0.0,0.0,0.0,0.0,0.0,0.0,0.0,0.0,0.0,0.0,0.0,0.0,0.0,0.0,0.0,0.0,0.0,0.0,0.0,0.0,0.0,0.0,0.0,0.0,0.0,0.0,0.0,0.0,0.0,0.0,0.0,0.0,0.0,0.0,0.0,0.0,0.0,0.0,0.0,0.0,0.0,0.0,0.0,0.0,0.0,0.0,0.0,0.0,0.0,0.0,0.0,0.0,0.0,0.0,0.0,0.0,0.0,0.0,0.0,0.0,0.0,0.0,0.0,0.0,0.0,0.0,0.0,0.0,0.0,0.0,0.0,0.0,0.0,0.0,0.0,0.0,0.0,0.0,0.0,0.0,0.0,0.2768,0.3097,0.3278,0.3358,0.3291,0.3343,0.0,0.0,0.0,0.0,0.0,0.0,0.0,0.0,0.0,0.0,0.0,0.0,0.0,0.0,0.0,0.0,0.0,0.0,0.0,0.0,0.0,0.0,0.0,0.0,0.0,0.0,0.0,0.0,0.0,0.0,0.0,0.0,0.0,0.0,0.0,0.0,0.0,0.0,0.0,0.0,0.0,0.0,0.0,0.0,0.0,0.0,0.0,0.0,0.0,0.0,0.0,0.0,0.0,0.0,0.0,0.0,0.0,0.0,0.0,0.0,0.0,0.0,0.0,0.0,0.0,0.0,0.0,0.0,0.0,0.0,0.0,0.0,0.0,0.0,0.0,0.0,0.0,0.0,0.0,0.0,0.0,0.0,0.0,0.0,0.0,0.0,0.0,0.0,0.0,0.0,0.0,0.0,0.0,0.0,0.0,0.0,0.0,0.0,0.0,0.0,0.0,0.0,0.0,0.0,0.0,0.0,0.0,0.0,0.0,0.274,0.0,0.2947,0.2894,0.2956,0.3092,0.0,0.0,0.0,0.0,0.0,0.0,0.0,0.0,0.0,0.0,0.0,0.0,0.0,0.0,0.0,0.0,0.0,0.0,0.0,0.0,0.0,0.0,0.0,0.0,0.0,0.0,0.0,0.0,0.0,0.0,0.0,0.0,0.0,0.0,0.0,0.0,0.0,0.0,0.0,0.0,0.0,0.0,0.0,0.0,0.0,0.0,0.0,0.0,0.0,0.0,0.0,0.0,0.0,0.0,0.0,0.0,0.0,0.0,0.0,0.0,0.0,0.0,0.0,0.0,0.0,0.0,0.0,0.0,0.0,0.0,0.0,0.0,0.0,0.0,0.0,0.0,0.0,0.0,0.0,0.0,0.0,0.0,0.0,0.0,0.0,0.0,0.0,0.0,0.0,0.0,0.0,0.0,0.0,0.0,0.0,0.0,0.0,0.0,0.0,0.0,0.0,0.0,0.0,0.0,0.0,0.0,0.0,0.0,0.2279,0.2197,0.2225,0.2259,0.2223,0.2555,0.2889,0.0,0.0,0.0,0.0,0.0,0.0,0.0,0.0,0.0,0.0,0.0,0.0,0.0,0.0,0.0,0.0,0.0,0.0,0.0,0.0,0.0,0.0,0.0,0.0,0.0,0.0,0.0,0.0,0.0,0.0,0.0,0.0,0.0,0.0,0.0,0.0,0.0,0.0,0.0,0.0,0.0,0.0,0.0,0.0,0.0,0.0,0.0,0.0,0.0,0.0,0.0,0.0,0.0,0.0,0.0,0.0,0.0,0.0,0.0,0.0,0.0,0.0,0.0,0.0,0.0,0.0,0.0,0.0,0.0,0.0,0.0,0.0,0.0,0.0,0.0,0.0,0.0,0.0,0.0,0.0,0.0,0.0,0.0,0.0,0.0,0.0,0.0,0.0,0.0,0.0,0.0,0.0,0.0,0.0,0.0,0.0,0.0,0.0,0.0,0.0,0.0,0.0,0.0,0.0,0.0,0.0,0.0,0.0,0.0,0.2183,0.2208,0.2208,0.2213,0.2751,0.3092,0.0,0.0,0.0,0.0,0.0,0.0,0.0,0.0,0.0,0.0,0.0,0.0,0.0,0.0,0.0,0.0,0.0,0.0,0.0,0.0,0.0,0.0,0.0,0.0,0.0,0.0,0.0,0.0,0.0,0.0,0.0,0.0,0.0,0.0,0.0,0.0,0.0,0.0,0.0,0.0,0.0,0.0,0.0,0.0,0.0,0.0,0.0,0.0,0.0,0.0,0.0,0.0,0.0,0.0,0.0,0.0,0.0,0.0,0.0,0.0,0.0,0.0,0.0,0.0,0.0,0.0,0.0,0.0,0.0,0.0,0.0,0.0,0.0,0.0,0.0,0.0,0.0,0.0,0.0,0.0,0.0,0.0,0.0,0.0,0.0,0.0,0.0,0.0,0.0,0.0,0.0,0.0,0.0,0.0,0.0,0.0,0.0,0.0,0.0,0.0,0.0,0.0,0.0,0.0,0.0,0.0,0.0,0.0,0.0,0.2272,0.2252,0.224,0.2242,0.2938,0.3275,0.3247,0.0,0.0,0.0,0.0,0.0,0.0,0.0,0.0,0.0,0.0,0.0,0.0,0.0,0.0,0.0,0.0,0.0,0.0,0.0,0.0,0.0,0.0,0.0,0.0,0.0,0.0,0.0,0.0,0.0,0.0,0.0,0.0,0.0,0.0,0.0,0.0,0.0,0.0,0.0,0.0,0.0,0.0,0.0,0.0,0.0,0.0,0.0,0.0,0.0,0.0,0.0,0.0,0.0,0.0,0.0,0.0,0.0,0.0,0.0,0.0,0.0,0.0,0.0,0.0,0.0,0.0,0.0,0.0,0.0,0.0,0.0,0.0,0.0,0.0,0.0,0.0,0.0,0.0,0.0,0.0,0.0,0.0,0.0,0.0,0.0,0.0,0.0,0.0,0.0,0.0,0.0,0.0,0.0,0.0,0.0,0.0,0.0,0.0,0.0,0.0,0.0,0.0,0.0,0.0,0.0,0.0,0.0,0.0,0.2424,0.2335,0.2305,0.2304,0.3094,0.3452,0.0,0.0,0.0,0.0,0.0,0.0,0.0,0.0,0.0,0.0,0.0,0.0,0.0,0.0,0.0,0.0,0.0,0.0,0.0,0.0,0.0,0.0,0.0,0.0,0.0,0.0,0.0,0.0,0.0,0.0,0.0,0.0,0.0,0.0,0.0,0.0,0.0,0.0,0.0,0.0,0.0,0.0,0.0,0.0,0.0,0.0,0.0,0.0,0.0,0.0,0.0,0.0,0.0,0.0,0.0,0.0,0.0,0.0,0.0,0.0,0.0,0.0,0.0,0.0,0.0,0.0,0.0,0.0,0.0,0.0,0.0,0.0,0.0,0.0,0.0,0.0,0.0,0.0,0.0,0.0,0.0,0.0,0.0,0.0,0.0,0.0,0.0,0.0,0.0,0.0,0.0,0.0,0.0,0.0,0.0,0.0,0.0,0.0,0.0,0.0,0.0,0.0,0.0,0.0,0.0,0.0,0.0,0.0,0.0,0.2485,0.2471,0.2443,0.2399,0.3086,0.3479,0.0,0.0,0.0,0.0,0.0,0.0,0.0,0.0,0.0,0.0,0.0,0.0,0.0,0.0,0.0,0.0,0.0,0.0,0.0,0.0,0.0,0.0,0.0,0.0,0.0,0.0,0.0,0.0,0.0,0.0,0.0,0.0,0.0,0.0,0.0,0.0,0.0,0.0,0.0,0.0,0.0,0.0,0.0,0.0,0.0,0.0,0.0,0.0,0.0,0.0,0.0,0.0,0.0,0.0,0.0,0.0,0.0,0.0,0.0,0.0,0.0,0.0,0.0,0.0,0.0,0.0,0.0,0.0,0.0,0.0,0.0,0.0,0.0,0.0,0.0,0.0,0.0,0.0,0.0,0.0,0.0,0.0,0.0,0.0,0.0,0.0,0.0,0.0,0.0,0.0,0.0,0.0,0.0,0.0,0.0,0.0,0.0,0.0,0.0,0.0,0.0,0.0,0.0,0.0,0.0,0.0,0.0,0.0,0.251,0.251,0.251,0.2454,0.2459,0.2991,0.3326,0.0,0.0,0.0,0.0,0.0,0.0,0.0,0.0,0.0,0.0,0.0,0.0,0.0,0.0,0.0,0.0,0.0,0.0,0.0,0.0,0.0,0.0,0.0,0.0,0.0,0.0,0.0,0.0,0.0,0.0,0.0,0.0,0.0,0.0,0.0,0.0,0.0,0.0,0.0,0.0,0.0,0.0,0.0,0.0,0.0,0.0,0.0,0.0,0.0,0.0,0.0,0.0,0.0,0.0,0.0,0.0,0.0,0.0,0.0,0.0,0.0,0.0,0.0,0.0,0.0,0.0,0.0,0.0,0.0,0.0,0.0,0.0,0.0,0.0,0.0,0.0,0.0,0.0,0.0,0.0,0.0,0.0,0.0,0.0,0.0,0.0,0.0,0.0,0.0,0.0,0.0,0.0,0.0,0.0,0.0,0.0,0.0,0.0,0.0,0.0,0.0,0.0,0.0,0.0,0.0,0.0,0.0,0.0,0.251,0.251,0.251,0.251,0.251,0.2863,0.307,0.0,0.0,0.0,0.0,0.0,0.0,0.0,0.0,0.0,0.0,0.0,0.0,0.0,0.0,0.0,0.0,0.0,0.0,0.0,0.0,0.0,0.0,0.0,0.0,0.0,0.0,0.0,0.0,0.0,0.0,0.0,0.0,0.0,0.0,0.0,0.0,0.0,0.0,0.0,0.0,0.0,0.0,0.0,0.0,0.0,0.0,0.0,0.0,0.0,0.0,0.0,0.0,0.0,0.0,0.0,0.0,0.0,0.0,0.0,0.0,0.0,0.0,0.0,0.0,0.0,0.0,0.0,0.0,0.0,0.0,0.0,0.0,0.0,0.0,0.0,0.0,0.0,0.0,0.0,0.0,0.0,0.0,0.0,0.0,0.0,0.0,0.0,0.0,0.0,0.0,0.0,0.0,0.0,0.0,0.0,0.0,0.0,0.0,0.0,0.0,0.0,0.0,0.0,0.0,0.0,0.0,0.0,0.0,0.251,0.251,0.251,0.251,0.251,0.2904,0.3095,0.0,0.0,0.0,0.0,0.0,0.0,0.0,0.0,0.0,0.0,0.0,0.0,0.0,0.0,0.0,0.0,0.0,0.0,0.0,0.0,0.0,0.0,0.0,0.0,0.0,0.0,0.0,0.0,0.0,0.0,0.0,0.0,0.0,0.0,0.0,0.0,0.0,0.0,0.0,0.0,0.0,0.0,0.0,0.0,0.0,0.0,0.0,0.0,0.8637,0.0,0.0,0.0,0.0,0.0,0.0,0.0,0.0,0.0,0.0,0.0,0.0,0.0,0.0,0.0,0.0,0.0,0.0,0.0,0.0,0.0,0.0,0.0,0.0,0.0,0.0,0.0,0.0,0.0,0.0,0.0,0.0,0.0,0.0,0.0,0.0,0.0,0.0,0.0,0.0,0.0,0.0,0.0,0.0,0.0,0.0,0.0,0.0,0.0,0.0,0.0,0.0,0.0,0.0,0.0,0.0,0.0,0.0,0.0,0.251,0.251,0.251,0.251,0.251,0.2707,0.2904,0.0,0.0,0.0,0.0,0.0,0.0,0.0,0.0,0.0,0.0,0.0,0.0,0.0,0.0,0.0,0.0,0.0,0.0,0.0,0.0,0.0,0.0,0.0,0.0,0.0,0.0,0.0,0.0,0.0,0.0,0.0,0.0,0.0,0.0,0.0,0.0,0.0,0.0,0.0,0.0,0.0,0.0,0.0,0.0,0.0,0.0,0.0,0.0,0.0,0.0,0.0,0.0,0.0,0.0,0.0,0.0,0.0,0.0,0.0,0.0,0.0,0.0,0.0,0.0,0.0,0.0,0.0,0.0,0.0,0.0,0.0,0.0,0.0,0.0,0.0,0.0,0.0,0.0,0.0,0.0,0.0,0.0,0.0,0.0,0.0,0.0,0.0,0.0,0.0,0.0,0.0,0.0,0.0,0.0,0.0,0.0,0.0,0.0,0.0,0.0,0.0,0.0,0.0,0.0,0.0,0.0,0.0,0.251,0.251,0.251,0.251,0.251,0.251,0.251,0.2707,0.31,0.0,0.0,0.0,0.0,0.0,0.0,0.0,0.0,0.0,0.0,0.0,0.0,0.0,0.0,0.0,0.0,0.0,0.0,0.0,0.0,0.0,0.0,0.0,0.0,0.0,0.0,0.0,0.0,0.0,0.0,0.0,0.0,0.0,0.0,0.0,0.0,0.0,0.0,0.7867,0.8171,0.0,0.0,0.0,0.0,0.0,0.0,0.0,0.0,0.9032,0.0,0.0,0.0,0.0,0.0,0.0,0.0,0.0,0.0,0.0,0.0,0.0,0.0,0.0,0.0,0.0,0.0,0.0,0.0,0.0,0.0,0.0,0.0,0.0,0.0,0.0,0.0,0.0,0.0,0.0,0.0,0.0,0.0,0.0,0.0,0.0,0.0,0.0,0.0,0.0,0.0,0.0,0.0,0.0,0.0,0.0,0.0,0.0,0.0,0.0,0.0,0.0,0.0,0.0,0.0,0.0,0.251,0.251,0.251,0.251,0.251,0.251,0.251,0.251,0.2707,0.31,0.0,0.0,0.0,0.0,0.0,0.0,0.0,0.0,0.0,0.0,0.0,0.0,0.0,0.0,0.0,0.0,0.0,0.0,0.0,0.0,0.0,0.0,0.0,0.0,0.0,0.0,0.0,0.0,0.0,0.0,0.0,0.0,0.0,0.0,0.0,0.0,0.0,0.0,0.0,0.8356,0.8467,0.0,0.0,0.0,0.0,0.0,0.0,0.0,0.0,0.9266,0.0,0.0,0.0,0.0,0.0,0.0,0.0,0.0,0.0,0.0,0.0,0.0,0.0,0.0,0.0,0.0,0.0,0.0,0.0,0.0,0.0,0.0,0.0,0.0,0.0,0.0,0.0,0.0,0.0,0.0,0.0,0.0,0.0,0.0,0.0,0.0,0.0,0.0,0.0,0.0,0.0,0.0,0.0,0.0,0.0,0.0,0.0,0.0,0.0,0.0,0.0,0.0,0.0,0.0,0.0,0.247,0.251,0.251,0.251,0.251,0.251,0.251,0.251,0.2707,0.0,0.0,0.0,0.0,0.0,0.0,0.0,0.0,0.0,0.0,0.0,0.0,0.0,0.0,0.0,0.0,0.0,0.0,0.0,0.0,0.0,0.0,0.0,0.0,0.0,0.0,0.0,0.0,0.0,0.0,0.0,0.0,0.0,0.0,0.0,0.0,0.0,0.0,0.0,0.0,0.8458,0.8475,0.8665,0.0,0.0,0.0,0.0,0.0,0.0,0.9451,0.9484,0.0,0.0,0.0,0.0,0.0,0.0,0.0,0.0,0.0,0.0,0.0,0.0,0.0,0.0,0.0,0.0,0.0,0.0,0.0,0.0,0.0,0.0,0.0,0.0,0.0,0.0,0.0,0.0,0.0,0.0,0.0,0.0,0.0,0.0,0.0,0.0,0.0,0.0,0.0,0.0,0.0,0.0,0.0,0.0,0.0,0.0,0.0,0.0,0.0,0.0,0.0,0.0,0.0,0.0,0.0,0.251,0.247,0.247,0.251,0.251,0.251,0.251,0.251,0.2628,0.0,0.0,0.0,0.0,0.0,0.0,0.0,0.0,0.0,0.0,0.0,0.0,0.0,0.0,0.0,0.0,0.0,0.0,0.0,0.0,0.0,0.0,0.0,0.0,0.0,0.0,0.0,0.0,0.0,0.0,0.0,0.0,0.0,0.0,0.0,0.0,0.0,0.0,0.0,0.0,0.0,0.8424,0.8654,0.8714,0.0,0.0,0.0,0.0,0.963,0.9663,0.0,0.0,0.0,0.0,0.0,0.0,0.0,0.0,0.0,0.0,0.0,0.0,0.0,0.0,0.0,0.0,0.0,0.0,0.0,0.0,0.0,0.0,0.0,0.0,0.0,0.0,0.0,0.0,0.0,0.0,0.0,0.0,0.0,0.0,0.0,0.0,0.0,0.0,0.0,0.0,0.0,0.0,0.0,0.0,0.0,0.0,0.0,0.0,0.0,0.0,0.0,0.0,0.0,0.0,0.0,0.0,0.247,0.2313,0.2313,0.251,0.251,0.251,0.251,0.251,0.251,0.0,0.0,0.0,0.0,0.0,0.0,0.0,0.0,0.0,0.0,0.0,0.0,0.0,0.0,0.0,0.0,0.0,0.0,0.0,0.0,0.0,0.0,0.0,0.0,0.0,0.0,0.0,0.0,0.0,0.0,0.0,0.0,0.0,0.0,0.0,0.0,0.0,0.0,0.0,0.0,0.0,0.8278,0.8637,0.8845,0.9032,0.0,0.0,0.9639,0.9928,0.9956,0.0,0.0,0.0,0.0,0.0,0.0,0.0,0.0,0.0,0.0,0.0,0.0,0.0,0.0,0.0,0.0,0.0,0.0,0.0,0.0,0.0,0.0,0.0,0.0,0.0,0.0,0.0,0.0,0.0,0.0,0.0,0.0,0.0,0.0,0.0,0.0,0.0,0.0,0.0,0.0,0.0,0.0,0.0,0.0,0.0,0.0,0.0,0.0,0.0,0.0,0.0,0.0,0.0,0.0,0.0,0.2198,0.247,0.2313,0.2273,0.251,0.251,0.251,0.251,0.251,0.2588,0.0,0.0,0.0,0.0,0.0,0.0,0.0,0.0,0.0,0.0,0.0,0.0,0.0,0.0,0.0,0.0,0.0,0.0,0.0,0.0,0.0,0.0,0.0,0.0,0.0,0.0,0.0,0.0,0.0,0.0,0.0,0.0,0.0,0.0,0.0,0.0,0.0,0.0,0.0,0.0,0.0,0.0,0.8634,0.8855,0.0,0.0,0.0,0.9847,0.998,0.0,0.0,0.0,0.0,0.0,0.0,0.0,0.0,0.0,0.0,0.0,0.0,0.0,0.0,0.0,0.0,0.0,0.0,0.0,0.0,0.0,0.0,0.0,0.0,0.0,0.0,0.0,0.0,0.0,0.0,0.0,0.0,0.0,0.0,0.0,0.0,0.0,0.0,0.0,0.0,0.0,0.0,0.0,0.0,0.0,0.0,0.0,0.0,0.0,0.0,0.0,0.0,0.0,0.0,0.0,0.0,0.0,0.251,0.2313,0.2313,0.251,0.251,0.251,0.251,0.251,0.0,0.0,0.0,0.0,0.0,0.0,0.0,0.0,0.0,0.0,0.0,0.0,0.0,0.0,0.0,0.0,0.0,0.0,0.0,0.0,0.0,0.0,0.0,0.0,0.0,0.0,0.0,0.6984,0.0,0.0,0.0,0.0,0.0,0.0,0.0,0.0,0.0,0.0,0.0,0.0,0.0,0.0,0.8434,0.8595,0.8833,0.8985,0.0,0.0,0.9907,0.9907,0.9956,1.0009,0.0,0.0,0.0,0.0,0.0,0.0,0.0,0.0,0.0,0.0,0.0,0.0,0.0,0.0,0.0,0.0,0.0,0.0,0.0,0.0,0.0,0.0,0.0,0.0,0.0,0.0,0.0,0.0,0.0,0.0,0.0,0.0,0.0,0.0,0.0,0.0,0.0,0.0,0.0,0.0,0.0,0.0,0.0,0.0,0.0,0.0,0.0,0.0,0.0,0.0,0.0,0.0,0.0,0.0,0.0,0.247,0.2313,0.2313,0.251,0.251,0.251,0.251,0.251,0.251,0.0,0.0,0.0,0.0,0.0,0.0,0.0,0.0,0.0,0.0,0.0,0.0,0.0,0.0,0.0,0.0,0.0,0.0,0.0,0.0,0.0,0.0,0.0,0.0,0.0,0.0,0.0,0.0,0.0,0.0,0.0,0.0,0.0,0.0,0.0,0.0,0.0,0.0,0.0,0.0,0.0,0.8317,0.8321,0.8653,0.893,0.0,0.0,0.9646,0.9646,0.9825,1.0066,1.0265,0.0,0.0,0.0,0.0,0.0,0.0,0.0,0.0,0.0,0.0,0.0,0.0,0.0,0.0,0.0,0.0,0.0,0.0,0.0,0.0,0.0,0.0,0.0,0.0,0.0,0.0,0.0,0.0,0.0,0.0,0.0,0.0,0.0,0.0,0.0,0.0,0.0,0.0,0.0,0.0,0.0,0.0,0.0,0.0,0.0,0.0,0.0,0.0,0.0,0.0,0.0,0.0,0.0,0.2313,0.251,0.2313,0.2313,0.251,0.251,0.251,0.251,0.251,0.251,0.0,0.0,0.0,0.0,0.0,0.0,0.0,0.0,0.0,0.0,0.0,0.0,0.0,0.0,0.0,0.0,0.0,0.0,0.0,0.0,0.0,0.0,0.0,0.0,0.0,0.0,0.0,0.0,0.738,0.7387,0.7382,0.0,0.0,0.0,0.0,0.0,0.0,0.0,0.0,0.0,0.0,0.7828,0.8405,0.8746,0.0,0.0,0.9304,0.9692,0.9997,1.011,1.0265,1.0474,1.0502,0.0,0.0,0.0,0.0,0.0,0.0,0.0,0.0,0.0,0.0,0.0,0.0,0.0,0.0,0.0,0.0,0.0,0.0,0.0,0.0,0.0,0.0,0.0,0.0,0.0,0.0,0.0,0.0,0.0,0.0,0.0,0.0,0.0,0.0,0.0,0.0,0.0,0.0,0.0,0.0,0.0,0.0,0.0,0.0,0.0,0.0,0.0,0.0,0.0,0.0,0.0,0.0,0.2353,0.251,0.2353,0.2353,0.251,0.251,0.251,0.251,0.251,0.251,0.0,0.0,0.0,0.0,0.0,0.0,0.0,0.0,0.0,0.0,0.0,0.0,0.0,0.0,0.0,0.0,0.0,0.0,0.0,0.0,0.0,0.0,0.0,0.0,0.0,0.0,0.0,0.0,0.7518,0.7518,0.7518,0.0,0.0,0.0,0.0,0.0,0.0,0.0,0.0,0.0,0.0,0.7823,0.842,0.8745,0.8925,0.9061,0.9428,0.9811,1.0198,1.0362,1.0478,1.0636,0.0,0.0,0.0,0.0,0.0,0.0,0.0,0.0,0.0,0.0,0.0,0.0,0.0,0.0,0.0,0.0,0.0,0.0,0.0,0.0,0.0,0.0,0.0,0.0,0.0,0.0,0.0,0.0,0.0,0.0,0.0,0.0,0.0,0.0,0.0,0.0,0.0,0.0,0.0,0.0,0.0,0.0,0.0,0.0,0.0,0.0,0.0,0.0,0.0,0.0,0.0,0.0,0.0,0.251,0.251,0.247,0.251,0.251,0.251,0.251,0.251,0.251,0.251,0.251,0.0,0.0,0.0,0.0,0.0,0.0,0.0,0.0,0.0,0.0,0.0,0.0,0.0,0.0,0.0,0.0,0.0,0.0,0.0,0.0,0.0,0.0,0.0,0.0,0.0,0.0,0.7518,0.7518,0.7518,0.0,0.0,0.0,0.0,0.0,0.0,0.0,0.0,0.0,0.0,0.7768,0.8495,0.8321,0.8667,0.8975,0.9176,0.9579,0.9976,1.0168,1.0431,1.0687,0.0,0.0,0.0,0.0,0.0,0.0,0.0,0.0,0.0,0.0,0.0,0.0,0.0,0.0,0.0,0.0,0.0,0.0,0.0,0.0,0.0,0.0,0.0,0.0,0.0,0.0,0.0,0.0,0.5638,0.0,0.0,0.0,0.0,0.0,0.0,0.0,0.0,0.0,0.0,0.0,0.1331,0.1301,0.0,0.0,0.0,0.0,0.0,0.0,0.0,0.0,0.0,0.0,0.0,0.0,0.251,0.251,0.251,0.251,0.251,0.251,0.251,0.251,0.251,0.251,0.251,0.0,0.0,0.0,0.0,0.0,0.0,0.0,0.0,0.0,0.0,0.0,0.0,0.0,0.0,0.0,0.0,0.0,0.0,0.0,0.0,0.0,0.0,0.0,0.0,0.0,0.7518,0.0,0.0,0.0,0.0,0.0,0.0,0.0,0.0,0.0,0.0,0.0,0.65,0.6893,0.7341,0.7834,0.8392,0.8669,0.8935,0.0,0.0,0.0,0.0,0.0,0.0,0.0,0.0,0.0,0.0,0.0,0.0,0.0,0.0,1.1673,1.1722,1.2058,1.2684,1.3644,0.0,0.0,0.0,0.0,0.0,0.0,0.0,0.0,0.0,0.0,0.0,0.0,0.0,0.0,0.0,0.0,0.5722,0.0,0.0,0.0,0.0,0.0,0.0,0.0,0.0,0.1325,0.1363,0.1361,0.1332,0.1359,0.0,0.1489,0.1512,0.0,0.0,0.0,0.0,0.0,0.0,0.0,0.0,0.2392,0.2392,0.2392,0.2392,0.2392,0.247,0.251,0.251,0.251,0.251,0.251,0.3054,0.3093,0.0,0.0,0.0,0.0,0.0,0.0,0.0,0.0,0.0,0.0,0.0,0.0,0.0,0.0,0.0,0.0,0.0,0.0,0.0,0.0,0.0,0.0,0.0,0.7057,0.0,0.0,0.0,0.0,0.0,0.0,0.0,0.0,0.0,0.6309,0.6137,0.6153,0.6552,0.7187,0.7871,0.8557,0.0,0.0,0.0,0.0,0.0,0.0,0.0,1.0655,1.0783,1.1051,1.1194,1.1194,1.1194,1.1194,1.1194,0.0,0.0,1.1194,1.1194,1.1487,1.249,1.2368,1.2501,1.3705,1.4785,1.5598,0.0,0.0,0.0,0.0,0.0,0.0,0.0,0.0,0.6959,0.6425,0.0,0.563,0.0,0.0,0.0,0.0,0.0,0.0,0.0,0.0,0.1404,0.1392,0.1389,0.1363,0.1307,0.1305,0.1318,0.1304,0.1343,0.1674,0.0,0.0,0.0,0.0,0.0,0.0,0.2195,0.2196,0.2195,0.2195,0.2195,0.2392,0.251,0.251,0.251,0.251,0.251,0.251,0.251,0.251,0.251,0.0,0.0,0.0,0.0,0.0,0.0,0.0,0.0,0.0,0.0,0.0,0.0,0.0,0.0,0.0,0.0,0.0,0.0,0.0,0.0,0.6205,0.0,0.0,0.0,0.0,0.0,0.0,0.0,0.0,0.0,0.0,0.5289,0.6256,0.6697,0.5861,0.0,0.0,0.0,0.0,0.9325,0.9724,0.994,1.0158,1.0333,1.06,1.0801,1.0806,0.0,0.0,1.1194,1.1194,1.1194,1.1194,1.1194,1.1194,1.1194,1.1194,1.1531,1.2393,1.1858,1.1575,1.249,1.368,1.4489,0.7095,0.0,0.0,0.0,0.0,0.6118,0.5714,0.5087,0.509,0.4956,0.469,0.469,0.0,0.0,0.0,0.0,0.0,0.0,0.1391,0.139,0.1381,0.1422,0.1421,0.1392,0.1378,0.1377,0.1306,0.1294,0.1293,0.1409,0.1665,0.2005,0.0,0.0,0.0,0.0,0.2004,0.2003,0.2118,0.2195,0.2195,0.2392,0.251,0.251,0.251,0.251,0.251,0.251,0.251,0.251,0.251,0.0,0.0,0.0,0.0,0.0,0.0,0.0,0.0,0.0,0.0,0.0,0.0,0.0,0.0,0.0,0.0,0.0,0.0,0.0,0.713,0.6695,0.6364,0.0,0.0,0.0,0.0,0.0,0.0,0.0,0.0,0.0,0.4568,0.49,0.5302,0.0,0.0,0.8038,0.8902,0.9218,0.9376,0.9484,0.0,0.0,0.0,1.0364,1.0609,1.0757,1.1047,1.1194,1.1194,1.1194,1.1194,1.1194,1.1194,1.1194,1.1194,1.1194,1.1292,1.1531,1.1389,1.1287,1.1629,1.249,1.3258,0.7095,0.7095,0.7095,0.6561,0.5722,0.5722,0.5184,0.4289,0.4289,0.4067,0.3757,0.3757,0.3755,0.3757,0.3757,0.0,0.0,0.0,0.1391,0.1391,0.1391,0.1391,0.1389,0.1416,0.1408,0.1406,0.1378,0.1321,0.1322,0.1311,0.1495,0.1779,0.0,0.0,0.2097,0.1898,0.1857,0.1938,0.2058,0.2178,0.2299,0.2461,0.2582,0.2582,0.2582,0.2583,0.2582,0.2582,0.2583,0.2582,0.2582,0.2583,0.0,0.0,0.0,0.0,0.0,0.0,0.0,0.0,0.0,0.0,0.0,0.4649,0.4965,0.0,0.0,0.0,0.5629,0.5894,0.558,0.5502,0.0,0.0,0.0,0.0,0.0,0.0,0.0,0.5044,0.4265,0.3721,0.3765,0.415,0.4822,0.5882,0.7125,0.8264,0.9114,0.0,0.9429,0.9453,0.9555,0.9677,0.9821,1.0068,1.0364,1.0757,1.0953,1.1096,1.1194,1.1194,1.1194,1.1194,1.1194,1.1194,1.1194,1.1194,1.1194,1.1194,1.1194,1.1194,1.1194,1.2009,1.2684,0.7095,0.7095,0.7095,0.652,0.5586,0.5586,0.5048,0.42,0.42,0.3712,0.2911,0.2911,0.2868,0.2778,0.2778,0.0,0.0,0.1838,0.1391,0.1391,0.1391,0.1391,0.1391,0.1391,0.1391,0.1389,0.1407,0.1393,0.1392,0.1325,0.1438,0.169,0.169,0.1771,0.1934,0.1808,0.1808,0.1976,0.2018,0.2187,0.2439,0.2608,0.2694,0.2692,0.2694,0.2692,0.2692,0.2692,0.2694,0.2694,0.2694,0.2694,0.2694,0.0,0.0,0.0,0.0,0.0,0.0,0.0,0.0,0.0,0.0,0.0,0.0,0.0,0.0,0.0,0.413,0.0,0.285,0.3487,0.0,0.0,0.0,0.5378,0.5203,0.4687,0.4253,0.421,0.0,0.0,0.0,0.0,0.5073,0.6007,0.7619,0.8894,0.9328,0.9429,0.9437,0.9596,0.9624,0.9624,0.9677,0.992,1.0216,1.0703,1.0806,1.09,1.1145,1.1194,1.1194,1.1194,1.1194,1.1194,1.1194,1.1194,1.1194,1.1194,1.1194,1.1194,1.1243,1.1917,1.249,0.7095,0.7095,0.7095,0.616,0.4645,0.4645,0.4113,0.3269,0.3224,0.309,0.2911,0.2911,0.2464,0.1749,0.1749,0.1749,0.1749,0.1524,0.1391,0.1391,0.1391,0.1391,0.1391,0.1391,0.1391,0.139,0.1383,0.1425,0.1424,0.1374,0.1414,0.1458,0.1458,0.1564,0.1768,0.1724,0.1724,0.1766,0.2145,0.2398,0.2608,0.2694,0.2694,0.2694,0.2694,0.2694,0.2694,0.2694,0.2694,0.2694,0.2694,0.2694,0.2694,0.2694,0.0,0.0,0.0,0.0,0.0,0.0,0.0,0.0,0.0,0.298,0.3139,0.0,0.3847,0.0,0.3076,0.3414,0.4486,0.4284,0.0,0.0,0.4949,0.5058,0.3646,0.3974,0.4032,0.332,0.3008,0.325,0.407,0.5055,0.6097,0.7272,0.7835,0.8435,0.938,0.9563,0.9575,0.9567,0.9579,0.9677,0.9871,1.0117,1.0413,1.0757,1.0806,1.09,1.1145,1.1194,1.1194,1.1194,1.1194,1.1194,1.1194,1.1194,1.1194,1.1194,1.1194,1.1194,1.1194,1.1433,1.158,0.7095,0.7095,0.7095,0.6251,0.4868,0.4467,0.3755,0.2867,0.242,0.2241,0.2241,0.2241,0.1928,0.1436,0.1391,0.1391,0.1391,0.1391,0.1391,0.1391,0.1391,0.1391,0.1391,0.1391,0.1391,0.1391,0.1391,0.1391,0.1391,0.1391,0.1391,0.1391,0.1391,0.1507,0.1733,0.1732,0.1862,0.2035,0.2425,0.2644,0.2774,0.2774,0.2773,0.2774,0.2817,0.2773,0.2774,0.2773,0.2773,0.2773,0.2747,0.2787,0.2771,0.2748,0.2733,0.0,0.0,0.0,0.0,0.0,0.0,0.0,0.0,0.0,0.0,0.0,0.3149,0.0,0.2717,0.0,0.4041,0.3823,0.3612,0.3524,0.4092,0.4032,0.3008,0.3365,0.3464,0.3,0.3364,0.389,0.4568,0.5922,0.7089,0.7825,0.8344,0.8721,0.8803,0.8874,0.8874,0.8874,0.8874,0.9126,0.9723,0.9924,1.0167,1.0364,1.0462,1.0511,1.0806,1.0949,1.1047,1.1047,1.1096,1.1194,1.1194,1.1194,1.1194,1.1194,1.1194,1.1194,1.1194,1.1194,1.1194,0.7095,0.7095,0.7095,0.6653,0.5808,0.4734,0.3757,0.2822,0.1838,0.1391,0.1391,0.1391,0.1391,0.1391,0.1391,0.1391,0.1391,0.1391,0.1391,0.1391,0.1391,0.1391,0.1391,0.1391,0.1391,0.1391,0.1391,0.1391,0.1391,0.1391,0.1391,0.1436,0.1436,0.1615,0.1885,0.1885,0.211,0.256,0.2785,0.292,0.292,0.292,0.292,0.292,0.292,0.292,0.292,0.292,0.292,0.2918,0.2823,0.2819,0.2914,0.2824,0.2796,0.0,0.2794,0.0,0.0,0.0,0.0,0.0,0.0,0.0,0.0,0.2711,0.2715,0.2715,0.2764,0.2794,0.2794,0.2886,0.292,0.292,0.292,0.292,0.292,0.3015,0.313,0.3181,0.4162,0.4849,0.5135,0.6759,0.7894,0.7983,0.863,0.8711,0.7822,0.7822,0.8074,0.8021,0.8124,0.8772,0.9426,0.9624,0.9723,0.9969,1.0068,1.0117,1.0413,1.0659,1.0806,1.0855,1.1002,1.1194,1.1194,1.1194,1.1194,1.1194,1.1194,1.1194,1.1194,1.1194,1.1194,0.7095,0.7095,0.7095,0.7007,0.6694,0.5045,0.3757,0.2823,0.1838,0.1391,0.1391,0.1391,0.1391,0.1391,0.1391,0.1391,0.1391,0.1391,0.1391,0.1391,0.1391,0.1391,0.1391,0.1391,0.1391,0.1391,0.1391,0.1391,0.1391,0.1391,0.1525,0.1705,0.1705,0.193,0.0,0.0,0.0,0.0,0.2875,0.292,0.292,0.292,0.292,0.292,0.292,0.0,0.292,0.292,0.292,0.292,0.2908,0.0,0.0,0.0,0.0,0.0,0.0,0.0,0.0,0.0,0.0,0.0,0.2884,0.282,0.2773,0.2811,0.2884,0.2884,0.2852,0.2902,0.2857,0.2911,0.292,0.292,0.292,0.292,0.2921,0.3683,0.4272,0.4288,0.5234,0.6225,0.7059,0.7684,0.7893,0.8002,0.8153,0.7524,0.5732,0.6877,0.7922,0.8021,0.857,0.9274,0.9575,0.9624,0.9677,0.992,1.0019,1.0117,1.031,1.0609,1.0806,1.0801,1.1002,1.1194,1.1194,1.1194,1.1194,1.1194,1.1194,1.1194,1.1194,1.1194,1.1194,0.7095,0.0,0.7095,0.7095,0.0,0.5581,0.4469,0.3489,0.2016,0.1391,0.1391,0.1391,0.1391,0.1391,0.1391,0.1391,0.1391,0.1391,0.1391,0.1391,0.1391,0.1391,0.1391,0.1391,0.1391,0.1391,0.1391,0.1391,0.1391,0.1525,0.166,0.1795,0.193,0.2155,0.247,0.2515,0.2649,0.292,0.292,0.292,0.292,0.292,0.292,0.292,0.0,0.0,0.0,0.0,0.0,0.0,0.0,0.0,0.0,0.0,0.0,0.2918,0.292,0.292,0.292,0.292,0.292,0.292,0.292,0.2862,0.283,0.2856,0.292,0.292,0.292,0.292,0.292,0.292,0.292,0.292,0.292,0.2883,0.3004,0.3443,0.3816,0.3984,0.5267,0.6495,0.7101,0.7661,0.7936,0.7958,0.7524,0.6625,0.5233,0.5682,0.6528,0.7123,0.8124,0.9023,0.9476,0.9624,0.9628,0.9772,0.9826,0.9871,0.9969,1.0216,1.0462,1.0609,1.0806,1.1047,1.1194,1.1194,1.1194,1.1194,1.1194,1.1194,1.1194,1.1194,1.1194,0.7095,0.7095,0.7095,0.7095,0.7051,0.6074,0.5092,0.3933,0.0,0.0,0.0,0.1391,0.1391,0.1391,0.1391,0.1391,0.1391,0.1391,0.1391,0.1391,0.1391,0.1391,0.1391,0.1391,0.1391,0.1391,0.1391,0.1391,0.1391,0.1615,0.175,0.184,0.2019,0.2244,0.2424,0.2469,0.256,0.2785,0.2784,0.2785,0.2785,0.283,0.283,0.2785,0.2875,0.2875,0.283,0.2875,0.292,0.2918,0.2827,0.2822,0.2913,0.2871,0.2866,0.2914,0.292,0.292,0.292,0.2875,0.2785,0.2785,0.2785,0.2785,0.2875,0.292,0.292,0.292,0.292,0.292,0.292,0.292,0.2877,0.2888,0.2935,0.2957,0.3012,0.3218,0.3504,0.3798,0.5291,0.6415,0.6752,0.7266,0.7624,0.7325,0.6625,0.5727,0.4832,0.4983,0.5727,0.6722,0.7872,0.8722,0.9324,0.9624,0.9624,0.9624,0.9628,0.9624,0.9628,0.9826,1.0068,1.0314,1.056,1.0806,1.0998,1.1047,1.1145,1.1149,1.1145,1.1194,1.1194,1.1194,1.1194,0.7095,0.7095,0.7095,0.7095,0.7051,0.6074,0.4694,0.3045,0.1883,0.1391,0.1391,0.1391,0.1391,0.1391,0.1391,0.1391,0.1391,0.1391,0.1391,0.0,0.1391,0.1391,0.1391,0.1391,0.1391,0.1391,0.1391,0.1391,0.1391,0.1436,0.157,0.175,0.184,0.1974,0.22,0.2244,0.2244,0.2289,0.2289,0.2289,0.2289,0.2469,0.247,0.2334,0.2694,0.2785,0.256,0.2785,0.292,0.292,0.2911,0.291,0.2917,0.291,0.291,0.2918,0.292,0.292,0.2875,0.2694,0.247,0.2334,0.2289,0.247,0.2875,0.292,0.292,0.292,0.2875,0.292,0.292,0.2921,0.2942,0.2985,0.2992,0.3016,0.3077,0.3844,0.4663,0.5431,0.6095,0.6697,0.7266,0.7024,0.6326,0.5532,0.5231,0.4682,0.4183,0.5031,0.6473,0.7621,0.8673,0.9377,0.9579,0.9624,0.9624,0.9624,0.9624,0.9624,0.9624,0.9776,1.0023,1.0068,1.0314,1.0462,1.056,1.0703,1.085,1.085,1.0998,1.1145,1.1194,1.1194,1.1194,0.7095,0.7095,0.7095,0.7095,0.7007,0.5583,0.4469,0.3534,0.2061,0.1391,0.1391,0.1391,0.1391,0.1391,0.1391,0.1391,0.1391,0.1391,0.1391,0.1391,0.1391,0.1391,0.1391,0.1391,0.1391,0.1391,0.1391,0.1391,0.1436,0.157,0.1705,0.1795,0.193,0.2064,0.22,0.2064,0.1974,0.1974,0.211,0.2244,0.2334,0.2334,0.2424,0.256,0.2649,0.2694,0.2739,0.283,0.292,0.292,0.292,0.292,0.292,0.292,0.292,0.292,0.292,0.283,0.2694,0.247,0.2289,0.22,0.2289,0.2424,0.2694,0.2694,0.2694,0.2694,0.283,0.2887,0.2961,0.2965,0.2989,0.3048,0.3055,0.308,0.3135,0.3459,0.4032,0.4567,0.5153,0.5729,0.6179,0.5829,0.5429,0.4834,0.4384,0.3932,0.3982,0.483,0.5927,0.6974,0.8021,0.8924,0.9476,0.9624,0.9624,0.9624,0.9624,0.9624,0.9624,0.9727,0.9826,0.9969,1.0117,1.0216,1.0364,1.0462,1.0556,1.0605,1.0801,1.0949,1.1002,1.1096,1.1194,0.7095,0.7095,0.7095,0.6966,0.6653,0.5001,0.4198,0.3799,0.215,0.1391,0.1391,0.1391,0.1391,0.1391,0.1391,0.1391,0.1391,0.1391,0.1391,0.1391,0.1391,0.1391,0.1391,0.1391,0.1391,0.1391,0.1391,0.1391,0.1436,0.1615,0.1705,0.175,0.193,0.2019,0.2019,0.184,0.1705,0.1705,0.193,0.2109,0.2244,0.2155,0.2289,0.2604,0.256,0.2604,0.2785,0.2875,0.292,0.292,0.292,0.292,0.292,0.292,0.2875,0.283,0.2785,0.2694,0.238,0.2209,0.2079,0.2034,0.2225,0.2322,0.2276,0.2413,0.2497,0.2624,0.2805,0.2962,0.3012,0.3025,0.305,0.3108,0.3117,0.3095,0.3149,0.311,0.3273,0.3572,0.4083,0.4533,0.4684,0.4585,0.4435,0.4284,0.3732,0.3632,0.4284,0.4583,0.5181,0.5977,0.7123,0.8375,0.9377,0.9624,0.9624,0.9624,0.9624,0.9624,0.9624,0.9624,0.9673,0.9871,0.992,0.9969,1.0167,1.0265,1.031,1.031,1.0511,1.0703,1.0806,1.1047,1.1194,0.7095,0.7095,0.7095,0.6605,0.5764,0.4734,0.3846,0.2956,0.1838,0.1391,0.1391,0.1391,0.1391,0.1391,0.1391,0.1391,0.1391,0.1391,0.1391,0.1391,0.1391,0.1391,0.1391,0.1391,0.1391,0.1391,0.1391,0.1391,0.1391,0.1436,0.1436,0.1436,0.1436,0.148,0.148,0.148,0.1436,0.1436,0.1436,0.148,0.1525,0.1705,0.1885,0.1885,0.2289,0.2515,0.256,0.2739,0.292,0.292,0.2876,0.2876,0.2876,0.2876,0.2785,0.2562,0.2517,0.2334,0.1933,0.1827,0.1754,0.1617,0.1828,0.1893,0.1704,0.2085,0.2493,0.2782,0.2952,0.2977,0.308,0.3088,0.3065,0.3073,0.3082,0.3105,0.3204,0.3171,0.3575,0.4531,0.3882,0.3681,0.4433,0.3982,0.3482,0.3533,0.3381,0.3281,0.3531,0.4133,0.4834,0.5334,0.6628,0.8223,0.9225,0.9575,0.9624,0.9624,0.9624,0.9624,0.9624,0.9624,0.9624,0.9673,0.9673,0.9727,0.9776,0.9871,1.0019,1.0068,1.0265,1.0507,1.0752,1.0998,1.1145,0.7095,0.7095,0.7095,0.6564,0.5628,0.469,0.3757,0.2822,0.1838,0.1391,0.1391,0.1391,0.1391,0.1391,0.1391,0.1391,0.1391,0.1391,0.1391,0.1391,0.1391,0.1391,0.1391,0.1391,0.1391,0.1391,0.1391,0.1391,0.1391,0.1391,0.1391,0.1391,0.1391,0.1391,0.1391,0.1391,0.1391,0.1391,0.1391,0.1391,0.1391,0.1525,0.1705,0.2019,0.2064,0.2155,0.2334,0.2424,0.247,0.2471,0.2498,0.2469,0.247,0.2497,0.2422,0.2329,0.2233,0.2048,0.1861,0.1688,0.1602,0.1507,0.1756,0.1861,0.1765,0.2051,0.2337,0.2535,0.2561,0.2563,0.2656,0.2762,0.2883,0.2931,0.3043,0.3153,0.3176,0.318,0.3381,0.3783,0.3481,0.333,0.3682,0.3481,0.323,0.318,0.318,0.318,0.323,0.3581,0.4383,0.5529,0.6573,0.7422,0.8524,0.9229,0.9525,0.9624,0.9624,0.9624,0.9624,0.9624,0.9624,0.9624,0.9624,0.9624,0.9628,0.9677,0.9772,0.9826,0.9969,1.0261,1.0708,1.09,1.0998,0.7095,0.7051,0.683,0.616,0.5272,0.4336,0.3355,0.2464,0.1704,0.1391,0.1391,0.1391,0.1391,0.1391,0.1391,0.1391,0.1391,0.1391,0.1391,0.1391,0.1391,0.1391,0.1391,0.1391,0.1391,0.1391,0.1391,0.1391,0.1391,0.1391,0.1391,0.1391,0.1391,0.1391,0.1391,0.1391,0.1391,0.1391,0.1391,0.1394,0.1446,0.1448,0.1624,0.2022,0.1895,0.1946,0.2173,0.2184,0.2192,0.2192,0.2177,0.2194,0.2196,0.2178,0.2194,0.2099,0.1908,0.1765,0.1765,0.1629,0.1538,0.1539,0.1787,0.1891,0.189,0.2036,0.2096,0.2117,0.215,0.2197,0.2464,0.2669,0.2836,0.2922,0.3079,0.318,0.318,0.318,0.323,0.318,0.323,0.318,0.323,0.323,0.318,0.318,0.318,0.318,0.318,0.3281,0.3831,0.5277,0.5727,0.6725,0.8074,0.9076,0.9575,0.9624,0.9624,0.9624,0.9624,0.9624,0.9624,0.9624,0.9624,0.9624,0.9624,0.9624,0.9624,0.9677,0.9821,1.0117,1.0462,1.0654,1.085,0.7095,0.6962,0.6118,0.527,0.4289,0.34,0.242,0.1569,0.1436,0.1391,0.1391,0.1391,0.1391,0.1391,0.1391,0.1391,0.1391,0.1391,0.1391,0.1391,0.1391,0.1391,0.1391,0.1391,0.1391,0.1391,0.1391,0.1391,0.1391,0.1391,0.1391,0.1391,0.1391,0.1391,0.1391,0.1393,0.1391,0.1393,0.1396,0.1451,0.1475,0.1478,0.1603,0.1808,0.1784,0.1895,0.2131,0.2166,0.2187,0.2188,0.2188,0.2192,0.2191,0.2196,0.2105,0.1913,0.1671,0.1528,0.1533,0.1603,0.157,0.1622,0.179,0.1861,0.1654,0.1855,0.1907,0.1663,0.1908,0.2211,0.2665,0.2913,0.3069,0.3127,0.318,0.318,0.318,0.318,0.318,0.318,0.318,0.318,0.318,0.318,0.318,0.318,0.318,0.318,0.318,0.318,0.343,0.3781,0.4583,0.5932,0.8676,0.9225,0.9377,0.9476,0.9377,0.9624,0.9624,0.9624,0.9624,0.9624,0.9624,0.9624,0.9624,0.9624,0.9624,0.9677,0.9772,1.0019,1.0216,1.056,1.0757,0.7231,0.7007,0.6077,0.5137,0.4245,0.3312,0.2331,0.1436,0.1391,0.1391,0.1391,0.1391,0.1391,0.1391,0.1391,0.1391,0.1391,0.1391,0.1391,0.1391,0.1391,0.1391,0.1391,0.1391,0.1391,0.1391,0.1391,0.1391,0.1391,0.1391,0.1391,0.1391,0.1391,0.1391,0.1394,0.1455,0.1464,0.1466,0.1436,0.1499,0.1508,0.1509,0.1551,0.1589,0.1598,0.1651,0.1746,0.1758,0.1765,0.1765,0.1786,0.1798,0.1801,0.182,0.1782,0.1733,0.1634,0.1584,0.1536,0.1594,0.16,0.1601,0.1711,0.1718,0.1667,0.1667,0.1718,0.1718,0.202,0.2372,0.2523,0.2775,0.2927,0.2978,0.313,0.318,0.318,0.318,0.318,0.318,0.318,0.318,0.318,0.318,0.318,0.318,0.318,0.318,0.318,0.318,0.338,0.4083,0.4583,0.5432,0.7074,0.8173,0.8623,0.8825,0.8924,0.9377,0.9575,0.9624,0.9624,0.9624,0.9624,0.9624,0.9624,0.9624,0.9624,0.9624,0.9772,0.9821,0.9969,1.0265,1.0511,0.7238,0.6928,0.5761,0.4914,0.4156,0.2955,0.2062,0.1436,0.1391,0.1391,0.1391,0.1391,0.1391,0.1391,0.1391,0.1391,0.1391,0.1391,0.1391,0.1391,0.1391,0.1391,0.1391,0.1391,0.1391,0.1391,0.1391,0.1391,0.1391,0.1391,0.1395,0.145,0.145,0.1455,0.142,0.1485,0.1495,0.15,0.1516,0.153,0.149,0.154,0.1546,0.1505,0.1555,0.155,0.1543,0.155,0.1555,0.1558,0.1575,0.1586,0.1588,0.1605,0.1566,0.1566,0.1566,0.1566,0.1566,0.1566,0.1566,0.1566,0.1566,0.1566,0.1566,0.1566,0.1617,0.1818,0.212,0.2422,0.2472,0.2624,0.2826,0.2927,0.3079,0.318,0.318,0.318,0.318,0.318,0.318,0.318,0.318,0.318,0.318,0.318,0.318,0.318,0.318,0.323,0.338,0.4133,0.4131,0.4431,0.5379,0.6179,0.7574,0.7975,0.8322,0.8874,0.9426,0.9525,0.9575,0.9575,0.9624,0.9624,0.9624,0.9624,0.9624,0.9624,0.9624,0.9723,0.9821,0.9974,1.0167,0.7098,0.6827,0.509,0.4378,0.4022,0.2329,0.1436,0.1391,0.1391,0.1391,0.1391,0.1391,0.1391,0.1391,0.1391,0.1391,0.1391,0.1391,0.1391,0.1391,0.1391,0.1391,0.1391,0.1391,0.1391,0.1391,0.1392,0.1393,0.1395,0.1399,0.1457,0.1476,0.1481,0.1492,0.1476,0.1475,0.1478,0.148,0.1484,0.1546,0.1568,0.1572,0.1583,0.1607,0.161,0.1597,0.1574,0.1598,0.1609,0.1611,0.1562,0.1566,0.1562,0.1566,0.1566,0.1566,0.1566,0.1566,0.1566,0.1566,0.1566,0.1566,0.1566,0.1566,0.1566,0.1617,0.1667,0.1869,0.2171,0.2371,0.2422,0.2573,0.2826,0.313,0.3079,0.3079,0.313,0.318,0.318,0.318,0.318,0.318,0.318,0.318,0.318,0.318,0.318,0.318,0.318,0.318,0.323,0.3281,0.3481,0.3781,0.3882,0.4183,0.5879,0.7223,0.7621,0.812,0.8874,0.9175,0.9377,0.9426,0.9624,0.9624,0.9624,0.9624,0.9624,0.9624,0.9624,0.9624,0.9727,0.9826,0.992,0.7095,0.6871,0.509,0.4289,0.4065,0.2239,0.1391,0.1391,0.1391,0.1391,0.1391,0.1391,0.1391,0.1391,0.1391,0.1391,0.1391,0.1391,0.1391,0.1392,0.1391,0.1391,0.1391,0.1391,0.1391,0.1394,0.1457,0.1467,0.147,0.1487,0.1504,0.151,0.1512,0.1517,0.1529,0.1546,0.1558,0.156,0.1578,0.1594,0.1602,0.1603,0.1608,0.1564,0.1566,0.1611,0.1604,0.1612,0.1566,0.1566,0.1566,0.1566,0.1566,0.1566,0.1566,0.1566,0.1566,0.1566,0.1566,0.1566,0.1566,0.1566,0.1566,0.1566,0.1566,0.1566,0.1617,0.1768,0.1969,0.2121,0.2171,0.2371,0.2573,0.2624,0.2675,0.2675,0.2675,0.2675,0.2725,0.2876,0.2927,0.2978,0.313,0.318,0.318,0.318,0.318,0.318,0.318,0.318,0.323,0.318,0.318,0.318,0.3432,0.3682,0.4583,0.5879,0.6476,0.7273,0.8071,0.8775,0.9027,0.9377,0.9525,0.9624,0.9624,0.9624,0.9624,0.9624,0.9624,0.9624,0.9624,0.9673,0.9821,0.6874,0.6428,0.4956,0.4111,0.3623,0.2016,0.1391,0.1391,0.1391,0.1391,0.1391,0.1391,0.1391,0.1391,0.1391,0.1442,0.1451,0.1452,0.1458,0.1416,0.1397,0.1396,0.1407,0.1419,0.1423,0.1472,0.1488,0.1498,0.1498,0.1516,0.1484,0.154,0.1543,0.155,0.156,0.1578,0.1588,0.1591,0.1607,0.1566,0.1566,0.1566,0.1566,0.1566,0.1566,0.1566,0.1566,0.1566,0.1566,0.1566,0.1566,0.1566,0.1566,0.1566,0.1566,0.1566,0.1566,0.1566,0.1566,0.1566,0.1566,0.1566,0.1566,0.1566,0.1566,0.1566,0.1617,0.1768,0.192,0.2022,0.2021,0.2121,0.2221,0.212,0.2321,0.2371,0.2422,0.2422,0.2472,0.2623,0.2675,0.2775,0.2978,0.3029,0.313,0.318,0.318,0.318,0.318,0.318,0.318,0.318,0.318,0.318,0.318,0.3331,0.3533,0.4332,0.5179,0.6176,0.7123,0.7971,0.8425,0.9225,0.9624,0.9624,0.9624,0.9624,0.9624,0.9624,0.9624,0.9624,0.9624,0.9624,0.9723,0.6561,0.563,0.4692,0.3801,0.2911,0.1838,0.1391,0.1391,0.1391,0.1391,0.1391,0.1395,0.1441,0.1395,0.1403,0.1463,0.1479,0.1483,0.1495,0.1453,0.1429,0.1415,0.1483,0.1458,0.1467,0.1471,0.1525,0.1528,0.1529,0.1537,0.1545,0.1572,0.1575,0.1587,0.1604,0.1564,0.1563,0.1562,0.1566,0.1566,0.1566,0.1566,0.1566,0.1566,0.1566,0.1566,0.1566,0.1566,0.1566,0.1566,0.1566,0.1566,0.1566,0.1566,0.1566,0.1566,0.1566,0.1566,0.1566,0.1566,0.1566,0.1566,0.1566,0.1566,0.1566,0.1617,0.1667,0.1869,0.192,0.1971,0.1971,0.197,0.1869,0.1718,0.2019,0.2271,0.2321,0.2321,0.2321,0.2371,0.2422,0.2522,0.2775,0.2826,0.2927,0.313,0.313,0.3079,0.318,0.318,0.318,0.318,0.318,0.318,0.318,0.323,0.3381,0.3632,0.4331,0.5129,0.6274,0.7226,0.8074,0.8874,0.9525,0.9525,0.9624,0.9624,0.9624,0.9624,0.9624,0.9624,0.9624,0.9624,0.9628,0.652,0.5628,0.4692,0.3757,0.2822,0.1838,0.1391,0.1391,0.1391,0.1393,0.1395,0.1459,0.1469,0.1471,0.1445,0.1507,0.1513,0.1515,0.1517,0.1475,0.1513,0.1458,0.1513,0.1475,0.148,0.1484,0.1551,0.156,0.1562,0.1579,0.1594,0.1605,0.1603,0.1607,0.1566,0.1566,0.1566,0.1566,0.1566,0.1566,0.1566,0.1566,0.1566,0.1566,0.1566,0.1566,0.1566,0.1566,0.1566,0.1566,0.1566,0.1566,0.1566,0.1566,0.1566,0.1566,0.1566,0.1566,0.1566,0.1566,0.1566,0.1566,0.1566,0.1566,0.1566,0.1566,0.1617,0.1718,0.1718,0.1718,0.1718,0.1718,0.1667,0.1617,0.1768,0.1869,0.1818,0.1818,0.1869,0.2071,0.2121,0.2323,0.2574,0.2624,0.2675,0.2978,0.2927,0.2826,0.3029,0.3079,0.3029,0.318,0.318,0.318,0.318,0.318,0.323,0.323,0.3632,0.4081,0.5379,0.6678,0.7528,0.8326,0.9027,0.9274,0.9476,0.9575,0.9575,0.9624,0.9624,0.9624,0.9624,0.9624,0.9624,0.5985,0.5003,0.4113,0.3133,0.224,0.1659,0.1397,0.1453,0.1455,0.1463,0.1475,0.1491,0.15,0.1502,0.1518,0.1534,0.1544,0.1545,0.1553,0.1564,0.1564,0.1558,0.1551,0.1555,0.1515,0.1517,0.1581,0.159,0.1593,0.1609,0.1565,0.1565,0.1566,0.1566,0.1566,0.1566,0.1566,0.1566,0.1566,0.1566,0.1566,0.1566,0.1566,0.1566,0.1566,0.1566,0.1566,0.1566,0.1566,0.1566,0.1566,0.1566,0.1566,0.1566,0.1566,0.1566,0.1566,0.1566,0.1566,0.1566,0.1566,0.1566,0.1566,0.1566,0.1566,0.1566,0.1566,0.1617,0.1566,0.1566,0.1566,0.1566,0.1566,0.1617,0.1566,0.1566,0.1566,0.1617,0.1667,0.1768,0.1869,0.197,0.2424,0.2323,0.2473,0.2725,0.2725,0.2775,0.2928,0.2927,0.2927,0.3079,0.313,0.313,0.313,0.313,0.318,0.318,0.3281,0.3632,0.4582,0.5982,0.6578,0.7325,0.8276,0.8973,0.9076,0.9274,0.9624,0.9624,0.9624,0.9624,0.9624,0.9624,0.9624,0.5139,0.4243,0.331,0.233,0.1525,0.1394,0.1455,0.1476,0.1484,0.1499,0.1519,0.148,0.153,0.1483,0.1543,0.1553,0.1576,0.1576,0.1591,0.1603,0.1557,0.1597,0.158,0.1596,0.1555,0.1608,0.1565,0.1564,0.1562,0.1565,0.1566,0.1566,0.1566,0.1566,0.1566,0.1566,0.1566,0.1566,0.1516,0.1516,0.1465,0.1465,0.1414,0.1415,0.1516,0.1566,0.1566,0.1566,0.1566,0.1566,0.1566,0.1566,0.1566,0.1566,0.1566,0.1566,0.1566,0.1566,0.1566,0.1566,0.1566,0.1566,0.1566,0.1566,0.1566,0.1566,0.1566,0.1566,0.1566,0.1566,0.1566,0.1566,0.1566,0.1566,0.1566,0.1566,0.1566,0.1566,0.1566,0.1566,0.1617,0.1718,0.192,0.2021,0.207,0.2522,0.2472,0.2473,0.2624,0.2676,0.2775,0.2927,0.3029,0.3079,0.3079,0.3079,0.313,0.318,0.318,0.3481,0.3982,0.4983,0.5432,0.6129,0.7126,0.7875,0.8322,0.8673,0.9175,0.9624,0.9624,0.9624,0.9624,0.9624,0.9624,0.5139,0.4198,0.3269,0.233,0.1484,0.1461,0.1474,0.1484,0.1507,0.1521,0.1532,0.1551,0.1561,0.1563,0.1582,0.1602,0.1604,0.1604,0.1612,0.1564,0.1566,0.1564,0.1607,0.1564,0.1566,0.1566,0.1566,0.1566,0.1566,0.1566,0.1566,0.1566,0.1566,0.1566,0.1566,0.1566,0.1566,0.1566,0.1414,0.1263,0.1212,0.1111,0.101,0.101,0.1212,0.1414,0.1566,0.1566,0.1566,0.1566,0.1566,0.1566,0.1566,0.1566,0.1566,0.1566,0.1566,0.1566,0.1566,0.1566,0.1566,0.1566,0.1566,0.1566,0.1566,0.1566,0.1566,0.1566,0.1566,0.1566,0.1566,0.1566,0.1566,0.1566,0.1566,0.1566,0.1566,0.1566,0.1566,0.1566,0.1617,0.1718,0.192,0.1768,0.1919,0.222,0.227,0.212,0.2221,0.2424,0.2574,0.2775,0.2775,0.2775,0.2775,0.2826,0.2927,0.2978,0.3029,0.3079,0.363,0.4083,0.4582,0.5229,0.6027,0.6675,0.7226,0.7922,0.8322,0.8973,0.9525,0.9525,0.9476,0.9525,0.9624,0.4736,0.4156,0.2776,0.1894,0.1504,0.1474,0.1497,0.1522,0.1539,0.1555,0.157,0.1587,0.1592,0.1594,0.1609,0.1566,0.1566,0.1566,0.1566,0.1566,0.1566,0.1566,0.1566,0.1566,0.1566,0.1566,0.1566,0.1566,0.1566,0.1566,0.1566,0.1566,0.1566,0.1566,0.1566,0.1465,0.1414,0.1364,0.1162,0.101,0.096,0.0909,0.0808,0.0808,0.096,0.1061,0.1212,0.1212,0.1212,0.1263,0.1364,0.1465,0.1566,0.1566,0.1566,0.1566,0.1566,0.1566,0.1566,0.1566,0.1566,0.1566,0.1566,0.1566,0.1566,0.1566,0.1566,0.1566,0.1566,0.1566,0.1566,0.1566,0.1566,0.1566,0.1566,0.1566,0.1566,0.1566,0.1566,0.1566,0.1566,0.1667,0.1718,0.1667,0.1667,0.1918,0.2121,0.202,0.2121,0.2272,0.2372,0.2472,0.2472,0.2472,0.2472,0.2522,0.2624,0.2675,0.2675,0.2725,0.2925,0.3379,0.3831,0.4429,0.5029,0.5479,0.6082,0.6778,0.7571,0.8273,0.8772,0.9072,0.9373,0.9525,0.9579,0.4198,0.3933,0.2151,0.1453,0.1479,0.1486,0.1519,0.1565,0.1577,0.159,0.1562,0.1566,0.1612,0.1566,0.1565,0.1566,0.1566,0.1566,0.1566,0.1566,0.1566,0.1566,0.1566,0.1566,0.1566,0.1566,0.1566,0.1566,0.1566,0.1566,0.1566,0.1566,0.1566,0.1566,0.1465,0.1313,0.1212,0.1111,0.0859,0.0758,0.0707,0.0657,0.0606,0.0707,0.0707,0.0808,0.0859,0.0859,0.0808,0.0808,0.101,0.1212,0.1415,0.1566,0.1566,0.1566,0.1566,0.1566,0.1566,0.1566,0.1566,0.1566,0.1566,0.1566,0.1566,0.1566,0.1566,0.1566,0.1566,0.1566,0.1566,0.1566,0.1566,0.1566,0.1566,0.1566,0.1566,0.1566,0.1566,0.1566,0.1566,0.1617,0.1617,0.1617,0.1617,0.1617,0.1819,0.197,0.2021,0.207,0.212,0.212,0.212,0.2221,0.2221,0.2271,0.2372,0.2472,0.2422,0.2422,0.2472,0.2774,0.3228,0.343,0.3932,0.4483,0.5083,0.5732,0.6528,0.7425,0.8124,0.8524,0.8977,0.943,0.9529,0.3844,0.3044,0.1883,0.1453,0.1483,0.1507,0.1538,0.1573,0.1598,0.1611,0.1565,0.1566,0.1566,0.1566,0.1566,0.1566,0.1566,0.1566,0.1566,0.1566,0.1566,0.1566,0.1566,0.1566,0.1566,0.1566,0.1566,0.1566,0.1566,0.1566,0.1566,0.1566,0.1566,0.1516,0.1313,0.1212,0.101,0.0859,0.0606,0.0455,0.0404,0.0303,0.0303,0.0455,0.0455,0.0556,0.0707,0.0758,0.0808,0.0808,0.0859,0.0909,0.1061,0.1364,0.1516,0.1566,0.1566,0.1566,0.1566,0.1566,0.1566,0.1566,0.1566,0.1566,0.1566,0.1566,0.1566,0.1566,0.1566,0.1566,0.1566,0.1566,0.1566,0.1566,0.1566,0.1566,0.1566,0.1566,0.1566,0.1566,0.1566,0.1566,0.1566,0.1566,0.1566,0.1566,0.1667,0.1768,0.1768,0.1768,0.1768,0.1717,0.1717,0.1869,0.2021,0.2071,0.2122,0.2271,0.2271,0.2271,0.2321,0.2422,0.2624,0.2891,0.3238,0.3781,0.4332,0.4782,0.5529,0.6376,0.7173,0.7928,0.8474,0.8924,0.9426,0.3312,0.2823,0.1793,0.1462,0.1502,0.1472,0.1553,0.1593,0.161,0.1566,0.1566,0.1566,0.1566,0.1566,0.1566,0.1566,0.1566,0.1566,0.1566,0.1566,0.1566,0.1566,0.1566,0.1566,0.1566,0.1566,0.1465,0.1465,0.1566,0.1566,0.1516,0.1415,0.1414,0.1263,0.101,0.0808,0.0758,0.0556,0.0353,0.0,0.0,0.0,0.0,0.0,0.0,0.0252,0.0353,0.0404,0.0404,0.0404,0.0505,0.0606,0.0758,0.1061,0.1364,0.1414,0.1516,0.1566,0.1566,0.1566,0.1566,0.1566,0.1566,0.1566,0.1566,0.1566,0.1566,0.1566,0.1566,0.1566,0.1566,0.1566,0.1566,0.1566,0.1566,0.1566,0.1566,0.1566,0.1566,0.1566,0.1566,0.1566,0.1566,0.1566,0.1566,0.1566,0.1566,0.1566,0.1566,0.1566,0.1566,0.1618,0.162,0.1674,0.183,0.1884,0.1886,0.2035,0.2084,0.2084,0.2135,0.2142,0.225,0.2411,0.2807,0.3149,0.3332,0.3736,0.4533,0.5238,0.5849,0.6559,0.7686,0.8421,0.8958,0.2778,0.2555,0.1757,0.143,0.1475,0.1485,0.1566,0.161,0.1566,0.1566,0.1566,0.1566,0.1566,0.1566,0.1566,0.1566,0.1516,0.1516,0.1465,0.1364,0.1364,0.1414,0.1415,0.1465,0.1414,0.1313,0.1212,0.1263,0.1415,0.1414,0.1313,0.1162,0.1111,0.096,0.0707,0.0556,0.0404,0.0252,0.0,0.0,0.0,0.0,0.0,0.0,0.0,0.0,0.0,0.0,0.0,0.0,0.0202,0.0303,0.0404,0.0758,0.101,0.1111,0.1364,0.1566,0.1566,0.1566,0.1566,0.1566,0.1566,0.1566,0.1566,0.1566,0.1566,0.1566,0.1566,0.1566,0.1566,0.1566,0.1566,0.1566,0.1566,0.1566,0.1566,0.1566,0.1566,0.1566,0.1566,0.1567,0.1619,0.1566,0.1566,0.1566,0.1566,0.1566,0.1566,0.1566,0.1567,0.162,0.1624,0.163,0.1688,0.17,0.1755,0.1812,0.1863,0.1862,0.1863,0.1864,0.1974,0.2086,0.2126,0.2425,0.2556,0.2805,0.3545,0.4119,0.4497,0.5256,0.6358,0.768,0.8599,0.2376,0.1572,0.151,0.1495,0.1528,0.1553,0.1584,0.1564,0.1566,0.1566,0.1566,0.1566,0.1566,0.1516,0.1566,0.1465,0.1313,0.1263,0.1162,0.101,0.096,0.096,0.0909,0.0859,0.096,0.096,0.0909,0.101,0.1111,0.101,0.0909,0.0859,0.0808,0.0707,0.0455,0.0404,0.0303,0.0101,0.0,0.0,0.0,0.0,0.0,0.0,0.0,0.0,0.0,0.0,0.0,0.0,0.0,0.0,0.0101,0.0303,0.0455,0.0707,0.1111,0.1566,0.1566,0.1566,0.1566,0.1566,0.1566,0.1566,0.1566,0.1566,0.1566,0.1566,0.1566,0.1566,0.1566,0.1566,0.1566,0.1566,0.1566,0.1566,0.1566,0.1566,0.1566,0.1622,0.1623,0.1622,0.1623,0.162,0.1566,0.1566,0.1567,0.1569,0.1624,0.163,0.1635,0.1641,0.1648,0.1654,0.1658,0.1667,0.1673,0.1681,0.1681,0.1681,0.1734,0.1788,0.1747,0.1856,0.1849,0.201,0.2275,0.2539,0.2806,0.3209,0.381,0.44,0.5067,0.6459,0.7859,0.1793,0.1393,0.1468,0.1498,0.1528,0.1559,0.1589,0.1562,0.1566,0.1566,0.1566,0.1415,0.1313,0.1212,0.1162,0.1111,0.096,0.096,0.0909,0.0808,0.0758,0.0758,0.0808,0.0808,0.0808,0.0707,0.0657,0.0606,0.0707,0.0808,0.0758,0.0606,0.0556,0.0455,0.0,0.0,0.0101,0.0,0.0,0.0,0.0,0.0,0.0,0.0,0.0,0.0,0.0,0.0,0.0,0.0,0.0,0.0,0.0,0.0252,0.0404,0.0455,0.0859,0.1212,0.1364,0.1465,0.1516,0.1566,0.1566,0.1566,0.1566,0.1566,0.1566,0.1566,0.1566,0.1566,0.1566,0.1566,0.1566,0.1566,0.1566,0.162,0.1619,0.1566,0.1568,0.1624,0.1631,0.1637,0.1639,0.1633,0.1631,0.163,0.1637,0.1645,0.1655,0.1667,0.167,0.1673,0.168,0.1686,0.1687,0.1692,0.1693,0.1699,0.1699,0.17,0.1704,0.171,0.1723,0.1738,0.1798,0.1965,0.2132,0.2272,0.246,0.2826,0.3249,0.3795,0.4393,0.5098,0.6529,0.1391,0.1394,0.1476,0.1505,0.1482,0.1566,0.1596,0.1564,0.1516,0.1465,0.1415,0.1212,0.096,0.0859,0.0808,0.0808,0.0707,0.0707,0.0657,0.0606,0.0606,0.0606,0.0556,0.0556,0.0556,0.0,0.0353,0.0303,0.0353,0.0455,0.0455,0.0303,0.0303,0.0202,0.0,0.0,0.0,0.0,0.0,0.0,0.0,0.0,0.0,0.0,0.0,0.0,0.0,0.0,0.0,0.0,0.0,0.0,0.0,0.0151,0.0252,0.0202,0.0303,0.0252,0.0454,0.0707,0.1162,0.1415,0.1566,0.1566,0.1566,0.1566,0.1566,0.1566,0.1566,0.1566,0.1566,0.1566,0.1566,0.1566,0.1566,0.1621,0.1626,0.1632,0.1643,0.1658,0.1666,0.1669,0.1666,0.1652,0.1647,0.1645,0.1654,0.1722,0.1736,0.1697,0.1696,0.1697,0.171,0.1716,0.1718,0.1719,0.172,0.1722,0.1722,0.1727,0.1737,0.1746,0.1757,0.1772,0.1782,0.1837,0.1994,0.2021,0.2106,0.2445,0.2836,0.3202,0.3733,0.4402,0.545,0.1391,0.1395,0.1451,0.1475,0.1483,0.1589,0.1564,0.1516,0.1313,0.1212,0.1162,0.096,0.0808,0.0758,0.0657,0.0606,0.0455,0.0404,0.0303,0.0151,0.0,0.0,0.0,0.0,0.0,0.0,0.0,0.0,0.0,0.0,0.0,0.0,0.0,0.0,0.0,0.0,0.0,0.0,0.0,0.0,0.0,0.0,0.0,0.0,0.0,0.0,0.0,0.0,0.0,0.0,0.0,0.0,0.0,0.0,0.0,-0.0202,-0.0605,-0.0756,-0.0806,-0.0454,0.0252,0.0909,0.1313,0.1465,0.1566,0.1566,0.1566,0.1566,0.1566,0.1566,0.1566,0.1567,0.1624,0.1628,0.1635,0.1647,0.1653,0.1658,0.1671,0.1691,0.17,0.1755,0.1709,0.1699,0.168,0.1677,0.1688,0.1757,0.1712,0.1722,0.1716,0.1719,0.1791,0.1799,0.1804,0.1807,0.1757,0.1761,0.1761,0.177,0.1779,0.1787,0.1781,0.1785,0.179,0.1793,0.1793,0.1884,0.1986,0.2116,0.2398,0.2818,0.319,0.3779,0.4961,0.1391,0.1396,0.1266,0.1335,0.1483,0.1392,0.1364,0.1313,0.1061,0.0859,0.0707,0.0606,0.0455,0.0,0.0,0.0252,0.0151,0.0151,0.0,0.0,0.0,0.0,0.0,0.0,0.0,0.0,0.0,0.0,0.0,0.0,0.0,0.0,0.0,0.0,0.0,0.0,0.0,0.0,0.0,0.0,0.0,0.0,0.0,0.0,0.0,0.0,0.0,0.0,0.0,0.0,0.0,0.0,0.0,0.0,0.0,-0.0908,-0.1412,-0.1865,-0.2216,-0.1864,-0.1108,-0.005,0.0454,0.0858,0.1364,0.1566,0.1566,0.1566,0.1568,0.1621,0.1619,0.1634,0.1647,0.165,0.1658,0.1671,0.1682,0.174,0.1697,0.1716,0.178,0.1787,0.1796,0.1749,0.1727,0.1711,0.1724,0.179,0.1743,0.1749,0.1746,0.1744,0.1761,0.1824,0.1828,0.1783,0.1795,0.1795,0.1795,0.1795,0.1795,0.1794,0.1791,0.1794,0.1795,0.1795,0.1795,0.1795,0.1851,0.1963,0.2131,0.2407,0.2791,0.3174,0.4212,0.1301,0.1262,0.1078,0.1144,0.1343,0.1143,0.1061,0.1061,0.0808,0.0505,0.0252,0.0252,0.0202,0.0,0.0,0.0,0.0,0.0,0.0,0.0,0.0,0.0,0.0,0.0,0.0,0.0,0.0,0.0,0.0,0.0,0.0,0.0,0.0,0.0,0.0,0.0,0.0,0.0,0.0,0.0,0.0,0.0,0.0,0.0,0.0,0.0,0.0,0.0,0.0,0.0,0.0,0.0,0.0,0.0,-0.1059,-0.1765,-0.242,-0.2924,-0.3275,-0.2869,-0.2214,-0.1562,-0.0403,0.0252,0.0908,0.1365,0.162,0.1634,0.1633,0.1633,0.1586,0.1664,0.1675,0.1677,0.1682,0.1695,0.171,0.1773,0.1729,0.1741,0.1751,0.1818,0.1821,0.1773,0.1764,0.1748,0.1757,0.1766,0.1772,0.1777,0.178,0.178,0.1785,0.179,0.1794,0.1795,0.1795,0.1795,0.1795,0.1795,0.1795,0.1795,0.1795,0.1795,0.1795,0.1795,0.1795,0.1795,0.1795,0.1795,0.2019,0.2188,0.2354,0.2739,0.3132,0.1122,0.1082,0.0891,0.0906,0.1055,0.0895,0.0808,0.0758,0.0505,0.0252,0.0,0.0,0.0,0.0,0.0,0.0,0.0,0.0,0.0,0.0,0.0,0.0,0.0,0.0,0.0,0.0,0.0,0.0,0.0,0.0,0.0,0.0,0.0,0.0,0.0,0.0,0.0,0.0,0.0,0.0,0.0,0.0,0.0,0.0,0.0,0.0,0.0,0.0,0.0,0.0,0.0,0.0,-0.1211,-0.1315,-0.1974,-0.3031,-0.4046,-0.4551,-0.4694,-0.353,-0.3237,-0.3091,-0.1879,-0.0814,-0.0051,0.0659,0.1175,0.088,0.1297,0.1516,0.1635,0.1701,0.1703,0.1707,0.1713,0.1725,0.1742,0.1803,0.1757,0.1762,0.1778,0.1793,0.1792,0.1792,0.1791,0.1788,0.1792,0.1795,0.1795,0.1795,0.1795,0.1795,0.1795,0.1795,0.1795,0.1795,0.1795,0.1795,0.1795,0.1795,0.1795,0.1795,0.1795,0.1795,0.1795,0.1795,0.1795,0.1795,0.1795,0.1795,0.1795,0.1963,0.2132,0.23,0.2635,0.0995,0.0826,0.0613,0.0576,0.0633,0.055,0.0505,0.0505,0.0252,0.0,0.0,0.0,0.0,0.0,0.0,0.0,0.0,0.0,0.0,0.0,0.0,0.0,0.0,0.0,0.0,0.0,0.0,0.0,0.0,0.0,0.0,0.0,0.0,0.0,0.0,0.0,0.0,0.0,0.0,0.0,0.0,0.0,0.0,0.0,0.0,0.0,0.0,0.0,0.0,0.0,0.0,0.0,-0.1624,-0.1884,-0.2719,-0.396,-0.5008,-0.5428,-0.5846,-0.5582,-0.5031,-0.4341,-0.3464,-0.2442,-0.1929,-0.1618,-0.0997,-0.021,0.0158,0.053,0.1223,0.1617,0.1733,0.174,0.1804,0.1766,0.1779,0.1779,0.1782,0.1784,0.1794,0.1795,0.1795,0.1795,0.1795,0.1795,0.1795,0.1795,0.1795,0.1795,0.1795,0.1795,0.1795,0.1795,0.1795,0.1795,0.1795,0.1795,0.1795,0.1795,0.1795,0.1795,0.1795,0.1795,0.1795,0.1795,0.1795,0.1795,0.1795,0.1795,0.1795,0.1795,0.1907,0.2019,0.2131,0.0726,0.0556,0.0331,0.0241,0.0246,0.0251,0.0252,0.0252,0.0,0.0,0.0,0.0,0.0,0.0,0.0,0.0,0.0,0.0,0.0,0.0,0.0,0.0,0.0,0.0,0.0,0.0,0.0,0.0,0.0,0.0,0.0,0.0,0.0,0.0,0.0,0.0,0.0,0.0,0.0,0.0,0.0,0.0,0.0,0.0,0.0,0.0,0.0,0.0,-0.0256,-0.0461,-0.0822,-0.1386,-0.2267,-0.3108,-0.3863,-0.5139,-0.5739,-0.6157,-0.6521,-0.6738,-0.6112,-0.5551,-0.4992,-0.4194,-0.3397,-0.2803,-0.2288,-0.1709,-0.1393,-0.0808,-0.0054,0.0494,0.1211,0.1216,0.1608,0.1623,0.1792,0.1791,0.1791,0.1794,0.1795,0.1795,0.1795,0.1795,0.1795,0.1795,0.1795,0.1795,0.1795,0.1795,0.1795,0.1795,0.1795,0.1795,0.1795,0.1795,0.1795,0.1795,0.1795,0.1795,0.1795,0.1795,0.1795,0.1795,0.1795,0.1795,0.1795,0.1795,0.1795,0.1795,0.1795,0.1795,0.1795,0.1851,0.1907,0.0409,0.0371,0.0095,0.0,0.0,0.0,0.0,0.0,0.0,0.0,0.0,0.0,0.0,0.0,0.0,0.0,0.0,0.0,0.0,0.0,0.0,0.0,0.0,0.0,0.0,0.0,0.0,0.0,0.0,0.0,0.0,0.0,0.0,0.0,0.0,0.0,0.0,0.0,0.0,0.0,0.0,0.0,0.0,0.0,0.0,0.0,0.0,0.0,-0.115,-0.1473,-0.1905,-0.323,-0.4295,-0.5151,-0.5845,-0.6444,-0.6672,-0.6794,-0.6818,-0.6956,-0.6978,-0.6452,-0.5699,-0.4969,-0.4541,-0.4134,-0.3674,-0.3098,-0.2619,-0.2479,-0.2168,-0.1002,0.0167,0.0614,0.123,0.1458,0.1682,0.1738,0.1794,0.1795,0.1795,0.1795,0.1795,0.1795,0.1795,0.1795,0.1795,0.1795,0.1795,0.1795,0.1795,0.1795,0.1795,0.1795,0.1795,0.1795,0.1795,0.1795,0.1795,0.1795,0.1795,0.1795,0.1795,0.1795,0.1795,0.1795,0.1795,0.1795,0.1795,0.1795,0.1795,0.1795,0.1795,0.1795,0.1851,0.0275,0.0095,0.0048,0.0,0.0,0.0,0.0,0.0,0.0,0.0,0.0,0.0,0.0,0.0,0.0,0.0,0.0,0.0,0.0,0.0,0.0,0.0,0.0,0.0,0.0,0.0,0.0,0.0,0.0,0.0,0.0,0.0,0.0,0.0,0.0,0.0,0.0,0.0,0.0,0.0,0.0,0.0,-0.0513,-0.103,-0.1298,-0.1571,-0.2053,-0.2269,-0.2705,-0.2923,-0.3085,-0.3931,-0.4939,-0.5318,-0.5804,-0.6879,-0.7056,-0.7059,-0.7062,-0.7139,-0.7152,-0.715,-0.6608,-0.6618,-0.6334,-0.5713,-0.5117,-0.4359,-0.3373,-0.295,-0.2233,-0.1118,-0.0336,0.028,0.0841,0.129,0.1514,0.1627,0.1683,0.1795,0.1795,0.1795,0.1795,0.1795,0.1795,0.1795,0.1795,0.1795,0.1795,0.1795,0.1795,0.1795,0.1795,0.1795,0.1795,0.1795,0.1795,0.1795,0.1795,0.1795,0.1795,0.1795,0.1795,0.1795,0.1795,0.1795,0.1795,0.1795,0.1795,0.1795,0.1795,0.1795,0.1795,0.1795,0.1795,0.0139,0.0,0.0,0.0,0.0,0.0,0.0,0.0,0.0,0.0,0.0,0.0,0.0,0.0,0.0,0.0,0.0,0.0,0.0,0.0,0.0,0.0,0.0,0.0,0.0,0.0,0.0,0.0,0.0,0.0,0.0,0.0,0.0,0.0,0.0,0.0,0.0,0.0,0.0,-0.0357,-0.0514,-0.0727,-0.1463,-0.2256,-0.2491,-0.3036,-0.354,-0.3703,-0.3874,-0.4223,-0.4339,-0.488,-0.575,-0.6141,-0.6229,-0.7135,-0.7191,-0.7188,-0.7185,-0.7193,-0.7207,-0.721,-0.7154,-0.6811,-0.6473,-0.5899,-0.5571,-0.5135,-0.4021,-0.2965,-0.1958,-0.1063,-0.056,-0.0056,0.0504,0.1065,0.129,0.1458,0.157,0.1739,0.1795,0.1795,0.1795,0.1795,0.1795,0.1795,0.1795,0.1795,0.1795,0.1795,0.1795,0.1795,0.1795,0.1795,0.1796,0.1801,0.1802,0.1802,0.1795,0.1795,0.1795,0.1797,0.18,0.1797,0.1795,0.1798,0.1805,0.1797,0.1795,0.1797,0.1798,0.1796,0.1796,0.1795,0.1795,0.0,0.0,0.0,0.0,0.0,0.0,0.0,0.0,0.0,0.0,0.0,0.0,0.0,0.0,0.0,0.0,0.0,0.0,0.0,0.0,0.0,0.0,0.0,0.0,0.0,0.0,0.0,0.0,0.0,0.0,0.0,0.0,0.0,0.0,0.0,0.0,-0.093,-0.1714,-0.1407,-0.1201,-0.1776,-0.2108,-0.245,-0.3515,-0.3746,-0.3928,-0.4025,-0.4161,-0.4345,-0.517,-0.5697,-0.6183,-0.6626,-0.7017,-0.7143,-0.7149,-0.721,-0.721,-0.721,-0.721,-0.721,-0.7154,-0.7099,-0.6485,-0.5984,-0.5761,-0.5539,-0.4754,-0.358,-0.2909,-0.2014,-0.1064,-0.0448,-0.0112,0.0336,0.0729,0.0897,0.1121,0.1458,0.1627,0.1739,0.1739,0.1795,0.1795,0.1795,0.1795,0.1795,0.1795,0.1804,0.1804,0.1801,0.1802,0.1807,0.181,0.1812,0.1815,0.1814,0.1811,0.1808,0.1814,0.1827,0.1819,0.1805,0.1816,0.1828,0.1817,0.1817,0.1818,0.1817,0.1808,0.1807,0.18,0.1798,0.1799,0.1795,0.0,0.0,0.0,0.0,0.0,0.0,0.0,0.0,0.0,0.0,0.0,0.0,0.0,0.0,0.0,0.0,0.0,0.0,0.0,0.0,0.0,0.0,0.0,0.0,0.0,0.0,0.0,0.0,0.0,0.0,0.0,0.0,0.0,0.0,-0.1339,-0.1404,-0.1936,-0.301,-0.2938,-0.2723,-0.3241,-0.338,-0.3685,-0.457,-0.4974,-0.545,-0.5713,-0.6217,-0.6398,-0.6763,-0.6765,-0.693,-0.7152,-0.721,-0.721,-0.721,-0.721,-0.721,-0.7154,-0.7099,-0.6988,-0.6707,-0.6429,-0.5873,-0.5539,-0.5425,-0.4921,-0.3971,-0.3134,-0.2574,-0.2015,-0.1064,0.0,0.0,0.0112,0.0336,0.0504,0.0897,0.129,0.1458,0.1627,0.1739,0.1796,0.1797,0.1795,0.1795,0.1795,0.1801,0.1823,0.183,0.182,0.182,0.1828,0.1774,0.1833,0.1837,0.184,0.1849,0.1852,0.1857,0.186,0.1851,0.1843,0.1858,0.1867,0.1853,0.1849,0.1863,0.1858,0.1837,0.1828,0.1827,0.1813,0.1809,0.1801,0.0,0.0,0.0,0.0,0.0,0.0,0.0,0.0,0.0,0.0,0.0,0.0,0.0,0.0,0.0,0.0,0.0,0.0,0.0,0.0,0.0,0.0,0.0,0.0,0.0,0.0,0.0,0.0,0.0,0.0,0.0,-0.0866,-0.1124,-0.175,-0.2564,-0.269,-0.319,-0.4355,-0.4373,-0.4649,-0.4828,-0.4875,-0.507,-0.5817,-0.6335,-0.671,-0.6821,-0.721,-0.721,-0.721,-0.7099,-0.7099,-0.721,-0.721,-0.721,-0.721,-0.721,-0.721,-0.7043,-0.6765,-0.6543,-0.6151,-0.5312,-0.4531,-0.358,-0.3413,-0.3413,-0.2519,-0.1624,-0.1008,-0.1008,-0.028,0.0,0.0,0.0,0.0224,0.0448,0.0785,0.1121,0.1346,0.1573,0.1749,0.1809,0.1821,0.1823,0.1843,0.1836,0.1833,0.1851,0.1803,0.1849,0.1847,0.1859,0.1862,0.1862,0.1867,0.1872,0.1881,0.1892,0.1883,0.1878,0.1881,0.1884,0.189,0.189,0.1881,0.1882,0.1894,0.1886,0.1864,0.1859,0.1857,0.184,0.1827,0.1825,0.0,0.0,0.0,0.0,0.0,0.0,0.0,0.0,0.0,0.0,0.0,0.0,0.0,0.0,0.0,0.0,0.0,0.0,0.0,0.0,0.0,0.0,0.0,0.0,0.0,0.0,0.0,0.0,0.0,-0.1216,-0.1993,-0.2223,-0.2811,-0.3561,-0.3728,-0.3938,-0.4409,-0.5312,-0.5755,-0.619,-0.6311,-0.626,-0.6417,-0.6811,-0.721,-0.721,-0.721,-0.721,-0.721,-0.721,-0.721,-0.721,-0.721,-0.721,-0.721,-0.721,-0.721,-0.7043,-0.6765,-0.604,-0.5761,-0.5202,-0.4085,-0.3134,-0.2295,-0.1905,-0.1849,-0.1401,-0.0561,-0.0112,-0.0112,0.0,0.0,0.0,0.0,0.0,0.0,0.0,0.0904,0.1186,0.1418,0.1652,0.1718,0.1729,0.1858,0.1879,0.1888,0.1889,0.1891,0.1894,0.1891,0.1895,0.1907,0.1905,0.1895,0.1902,0.191,0.1915,0.1922,0.1907,0.19,0.1914,0.1917,0.1909,0.1907,0.191,0.191,0.1917,0.1904,0.1894,0.1891,0.1887,0.187,0.1859,0.186,0.0,0.0,0.0,0.0,0.0,0.0,0.0,0.0,0.0,0.0,0.0,0.0,0.0,0.0,0.0,0.0,0.0,0.0,0.0,0.0,0.0,0.0,0.0,0.0,0.0,0.0,-0.0858,-0.1261,-0.1522,-0.2455,-0.3093,-0.3166,-0.3372,-0.4156,-0.5032,-0.5247,-0.5549,-0.6311,-0.6619,-0.6932,-0.6932,-0.6932,-0.6988,-0.7154,-0.721,-0.721,-0.721,-0.721,-0.721,-0.721,-0.721,-0.721,-0.721,-0.7154,-0.7154,-0.6877,-0.6932,-0.6429,-0.5871,-0.5369,-0.5091,-0.4979,-0.3973,-0.3022,-0.2241,-0.1572,-0.1404,-0.1068,-0.045,-0.0169,0.0,0.0,0.0,0.0,0.0,0.0,0.0,0.0,0.058,0.087,0.1104,0.1341,0.152,0.1643,0.1822,0.1896,0.19,0.1903,0.1921,0.1926,0.193,0.1938,0.1947,0.1941,0.1929,0.1943,0.1952,0.2016,0.2015,0.2003,0.1942,0.1958,0.1958,0.1941,0.1947,0.1955,0.2014,0.194,0.1937,0.1928,0.1924,0.1917,0.1902,0.1893,0.1894]}]]